<?xml version="1.0" encoding="UTF-8" standalone="no" ?>
<gpx xmlns="http://www.topografix.com/GPX/1/1" xmlns:xsi="http://www.w3.org/2001/XMLSchema-instance" xsi:schemaLocation="http://www.topografix.com/GPX/1/1 http://www.topografix.com/GPX/1/1/gpx.xsd" version="1.1" creator="VisuGPX - https://www.visugpx.com">
  <metadata>
    <name>blizous brenne</name>
    <desc><![CDATA[balades pres des etangs]]></desc>
  </metadata>
  <trk>
    <name><![CDATA[BLIZOUS]]></name>
    <trkseg>
      <trkpt lat="46.74083" lon="1.22424">
        <ele>90.5</ele>
        <time>2011-01-23T12:24:33Z</time>
      </trkpt>
      <trkpt lat="46.74083" lon="1.22424">
        <ele>92.42</ele>
        <time>2011-01-23T12:24:50Z</time>
      </trkpt>
      <trkpt lat="46.74088" lon="1.22426">
        <ele>91.94</ele>
        <time>2011-01-23T12:25:06Z</time>
      </trkpt>
      <trkpt lat="46.74097" lon="1.22424">
        <ele>92.9</ele>
        <time>2011-01-23T12:25:16Z</time>
      </trkpt>
      <trkpt lat="46.74097" lon="1.22424">
        <ele>92.42</ele>
        <time>2011-01-23T12:25:17Z</time>
      </trkpt>
      <trkpt lat="46.74107" lon="1.22417">
        <ele>92.42</ele>
        <time>2011-01-23T12:25:29Z</time>
      </trkpt>
      <trkpt lat="46.74107" lon="1.22417">
        <ele>92.9</ele>
        <time>2011-01-23T12:25:42Z</time>
      </trkpt>
      <trkpt lat="46.74107" lon="1.22417">
        <ele>92.9</ele>
        <time>2011-01-23T12:26:00Z</time>
      </trkpt>
      <trkpt lat="46.74105" lon="1.22418">
        <ele>92.9</ele>
        <time>2011-01-23T12:26:15Z</time>
      </trkpt>
      <trkpt lat="46.74106" lon="1.22418">
        <ele>93.39</ele>
        <time>2011-01-23T12:26:18Z</time>
      </trkpt>
      <trkpt lat="46.74109" lon="1.22417">
        <ele>92.42</ele>
        <time>2011-01-23T12:26:20Z</time>
      </trkpt>
      <trkpt lat="46.74117" lon="1.22413">
        <ele>91.94</ele>
        <time>2011-01-23T12:26:28Z</time>
      </trkpt>
      <trkpt lat="46.74121" lon="1.22421">
        <ele>93.39</ele>
        <time>2011-01-23T12:26:40Z</time>
      </trkpt>
      <trkpt lat="46.74121" lon="1.22421">
        <ele>92.42</ele>
        <time>2011-01-23T12:26:59Z</time>
      </trkpt>
      <trkpt lat="46.74121" lon="1.22421">
        <ele>93.87</ele>
        <time>2011-01-23T12:27:01Z</time>
      </trkpt>
      <trkpt lat="46.7412" lon="1.22421">
        <ele>92.9</ele>
        <time>2011-01-23T12:27:21Z</time>
      </trkpt>
      <trkpt lat="46.7412" lon="1.22421">
        <ele>94.35</ele>
        <time>2011-01-23T12:27:37Z</time>
      </trkpt>
      <trkpt lat="46.7412" lon="1.22421">
        <ele>93.87</ele>
        <time>2011-01-23T12:27:43Z</time>
      </trkpt>
      <trkpt lat="46.74118" lon="1.22416">
        <ele>93.87</ele>
        <time>2011-01-23T12:27:48Z</time>
      </trkpt>
      <trkpt lat="46.74118" lon="1.22411">
        <ele>93.87</ele>
        <time>2011-01-23T12:27:57Z</time>
      </trkpt>
      <trkpt lat="46.74118" lon="1.22411">
        <ele>92.9</ele>
        <time>2011-01-23T12:28:19Z</time>
      </trkpt>
      <trkpt lat="46.74133" lon="1.22398">
        <ele>92.9</ele>
        <time>2011-01-23T12:28:33Z</time>
      </trkpt>
      <trkpt lat="46.74144" lon="1.2239">
        <ele>93.39</ele>
        <time>2011-01-23T12:28:45Z</time>
      </trkpt>
      <trkpt lat="46.74152" lon="1.22384">
        <ele>92.9</ele>
        <time>2011-01-23T12:28:55Z</time>
      </trkpt>
      <trkpt lat="46.74155" lon="1.22382">
        <ele>93.39</ele>
        <time>2011-01-23T12:28:57Z</time>
      </trkpt>
      <trkpt lat="46.7416" lon="1.22378">
        <ele>93.39</ele>
        <time>2011-01-23T12:29:02Z</time>
      </trkpt>
      <trkpt lat="46.74178" lon="1.22375">
        <ele>93.39</ele>
        <time>2011-01-23T12:29:17Z</time>
      </trkpt>
      <trkpt lat="46.74191" lon="1.22376">
        <ele>92.9</ele>
        <time>2011-01-23T12:29:28Z</time>
      </trkpt>
      <trkpt lat="46.74204" lon="1.22378">
        <ele>92.9</ele>
        <time>2011-01-23T12:29:41Z</time>
      </trkpt>
      <trkpt lat="46.7421" lon="1.22378">
        <ele>92.9</ele>
        <time>2011-01-23T12:29:54Z</time>
      </trkpt>
      <trkpt lat="46.74209" lon="1.22378">
        <ele>93.39</ele>
        <time>2011-01-23T12:30:14Z</time>
      </trkpt>
      <trkpt lat="46.74213" lon="1.22379">
        <ele>92.42</ele>
        <time>2011-01-23T12:30:25Z</time>
      </trkpt>
      <trkpt lat="46.74218" lon="1.2238">
        <ele>92.42</ele>
        <time>2011-01-23T12:30:38Z</time>
      </trkpt>
      <trkpt lat="46.74236" lon="1.2238">
        <ele>93.39</ele>
        <time>2011-01-23T12:30:51Z</time>
      </trkpt>
      <trkpt lat="46.74248" lon="1.22383">
        <ele>93.39</ele>
        <time>2011-01-23T12:31:02Z</time>
      </trkpt>
      <trkpt lat="46.74262" lon="1.22385">
        <ele>92.9</ele>
        <time>2011-01-23T12:31:15Z</time>
      </trkpt>
      <trkpt lat="46.74271" lon="1.22386">
        <ele>92.9</ele>
        <time>2011-01-23T12:31:23Z</time>
      </trkpt>
      <trkpt lat="46.74286" lon="1.2239">
        <ele>92.9</ele>
        <time>2011-01-23T12:31:37Z</time>
      </trkpt>
      <trkpt lat="46.74301" lon="1.22391">
        <ele>92.9</ele>
        <time>2011-01-23T12:31:51Z</time>
      </trkpt>
      <trkpt lat="46.74313" lon="1.22391">
        <ele>93.39</ele>
        <time>2011-01-23T12:32:02Z</time>
      </trkpt>
      <trkpt lat="46.74325" lon="1.22393">
        <ele>93.39</ele>
        <time>2011-01-23T12:32:13Z</time>
      </trkpt>
      <trkpt lat="46.74326" lon="1.22397">
        <ele>93.87</ele>
        <time>2011-01-23T12:32:21Z</time>
      </trkpt>
      <trkpt lat="46.74343" lon="1.22395">
        <ele>94.35</ele>
        <time>2011-01-23T12:32:35Z</time>
      </trkpt>
      <trkpt lat="46.74357" lon="1.22395">
        <ele>94.35</ele>
        <time>2011-01-23T12:32:46Z</time>
      </trkpt>
      <trkpt lat="46.74365" lon="1.22399">
        <ele>93.87</ele>
        <time>2011-01-23T12:32:57Z</time>
      </trkpt>
      <trkpt lat="46.74369" lon="1.22401">
        <ele>93.39</ele>
        <time>2011-01-23T12:33:09Z</time>
      </trkpt>
      <trkpt lat="46.74376" lon="1.22401">
        <ele>94.35</ele>
        <time>2011-01-23T12:33:19Z</time>
      </trkpt>
      <trkpt lat="46.74379" lon="1.224">
        <ele>93.87</ele>
        <time>2011-01-23T12:33:22Z</time>
      </trkpt>
      <trkpt lat="46.74387" lon="1.2239">
        <ele>93.87</ele>
        <time>2011-01-23T12:33:35Z</time>
      </trkpt>
      <trkpt lat="46.74396" lon="1.22385">
        <ele>94.35</ele>
        <time>2011-01-23T12:33:44Z</time>
      </trkpt>
      <trkpt lat="46.74402" lon="1.22383">
        <ele>93.39</ele>
        <time>2011-01-23T12:33:49Z</time>
      </trkpt>
      <trkpt lat="46.74416" lon="1.22373">
        <ele>93.39</ele>
        <time>2011-01-23T12:34:02Z</time>
      </trkpt>
      <trkpt lat="46.74427" lon="1.22371">
        <ele>93.39</ele>
        <time>2011-01-23T12:34:15Z</time>
      </trkpt>
      <trkpt lat="46.74427" lon="1.22372">
        <ele>93.39</ele>
        <time>2011-01-23T12:34:16Z</time>
      </trkpt>
      <trkpt lat="46.74434" lon="1.22371">
        <ele>93.39</ele>
        <time>2011-01-23T12:34:22Z</time>
      </trkpt>
      <trkpt lat="46.7444" lon="1.22368">
        <ele>93.39</ele>
        <time>2011-01-23T12:34:28Z</time>
      </trkpt>
      <trkpt lat="46.74444" lon="1.22363">
        <ele>92.9</ele>
        <time>2011-01-23T12:34:39Z</time>
      </trkpt>
      <trkpt lat="46.7445" lon="1.22359">
        <ele>93.39</ele>
        <time>2011-01-23T12:34:52Z</time>
      </trkpt>
      <trkpt lat="46.74463" lon="1.22345">
        <ele>92.42</ele>
        <time>2011-01-23T12:35:07Z</time>
      </trkpt>
      <trkpt lat="46.74469" lon="1.22344">
        <ele>93.39</ele>
        <time>2011-01-23T12:35:19Z</time>
      </trkpt>
      <trkpt lat="46.74469" lon="1.22344">
        <ele>93.39</ele>
        <time>2011-01-23T12:35:20Z</time>
      </trkpt>
      <trkpt lat="46.74477" lon="1.22342">
        <ele>92.9</ele>
        <time>2011-01-23T12:35:31Z</time>
      </trkpt>
      <trkpt lat="46.7448" lon="1.22341">
        <ele>92.9</ele>
        <time>2011-01-23T12:35:33Z</time>
      </trkpt>
      <trkpt lat="46.74487" lon="1.22337">
        <ele>92.42</ele>
        <time>2011-01-23T12:35:38Z</time>
      </trkpt>
      <trkpt lat="46.745" lon="1.22333">
        <ele>92.9</ele>
        <time>2011-01-23T12:35:50Z</time>
      </trkpt>
      <trkpt lat="46.74511" lon="1.22329">
        <ele>92.9</ele>
        <time>2011-01-23T12:36:01Z</time>
      </trkpt>
      <trkpt lat="46.74514" lon="1.22329">
        <ele>92.9</ele>
        <time>2011-01-23T12:36:03Z</time>
      </trkpt>
      <trkpt lat="46.74527" lon="1.22324">
        <ele>92.9</ele>
        <time>2011-01-23T12:36:16Z</time>
      </trkpt>
      <trkpt lat="46.74543" lon="1.2232">
        <ele>93.39</ele>
        <time>2011-01-23T12:36:29Z</time>
      </trkpt>
      <trkpt lat="46.74545" lon="1.2232">
        <ele>92.9</ele>
        <time>2011-01-23T12:36:31Z</time>
      </trkpt>
      <trkpt lat="46.74561" lon="1.22319">
        <ele>92.9</ele>
        <time>2011-01-23T12:36:44Z</time>
      </trkpt>
      <trkpt lat="46.74569" lon="1.22322">
        <ele>93.39</ele>
        <time>2011-01-23T12:36:54Z</time>
      </trkpt>
      <trkpt lat="46.74582" lon="1.22324">
        <ele>92.9</ele>
        <time>2011-01-23T12:37:06Z</time>
      </trkpt>
      <trkpt lat="46.74593" lon="1.22326">
        <ele>92.9</ele>
        <time>2011-01-23T12:37:17Z</time>
      </trkpt>
      <trkpt lat="46.74603" lon="1.22327">
        <ele>91.94</ele>
        <time>2011-01-23T12:37:27Z</time>
      </trkpt>
      <trkpt lat="46.7461" lon="1.22329">
        <ele>94.35</ele>
        <time>2011-01-23T12:37:39Z</time>
      </trkpt>
      <trkpt lat="46.74611" lon="1.2233">
        <ele>93.87</ele>
        <time>2011-01-23T12:37:40Z</time>
      </trkpt>
      <trkpt lat="46.74612" lon="1.22331">
        <ele>92.42</ele>
        <time>2011-01-23T12:37:42Z</time>
      </trkpt>
      <trkpt lat="46.74616" lon="1.22331">
        <ele>91.94</ele>
        <time>2011-01-23T12:37:53Z</time>
      </trkpt>
      <trkpt lat="46.74619" lon="1.22331">
        <ele>92.42</ele>
        <time>2011-01-23T12:37:58Z</time>
      </trkpt>
      <trkpt lat="46.74628" lon="1.22332">
        <ele>92.42</ele>
        <time>2011-01-23T12:38:06Z</time>
      </trkpt>
      <trkpt lat="46.74643" lon="1.22334">
        <ele>92.9</ele>
        <time>2011-01-23T12:38:19Z</time>
      </trkpt>
      <trkpt lat="46.74655" lon="1.22335">
        <ele>91.94</ele>
        <time>2011-01-23T12:38:31Z</time>
      </trkpt>
      <trkpt lat="46.7466" lon="1.22336">
        <ele>91.46</ele>
        <time>2011-01-23T12:38:42Z</time>
      </trkpt>
      <trkpt lat="46.74663" lon="1.22338">
        <ele>91.94</ele>
        <time>2011-01-23T12:38:53Z</time>
      </trkpt>
      <trkpt lat="46.74675" lon="1.2235">
        <ele>91.46</ele>
        <time>2011-01-23T12:39:07Z</time>
      </trkpt>
      <trkpt lat="46.74686" lon="1.22356">
        <ele>92.9</ele>
        <time>2011-01-23T12:39:19Z</time>
      </trkpt>
      <trkpt lat="46.74698" lon="1.22362">
        <ele>92.42</ele>
        <time>2011-01-23T12:39:31Z</time>
      </trkpt>
      <trkpt lat="46.74704" lon="1.22364">
        <ele>91.94</ele>
        <time>2011-01-23T12:39:37Z</time>
      </trkpt>
      <trkpt lat="46.74717" lon="1.22371">
        <ele>91.94</ele>
        <time>2011-01-23T12:39:50Z</time>
      </trkpt>
      <trkpt lat="46.74728" lon="1.22378">
        <ele>91.94</ele>
        <time>2011-01-23T12:40:01Z</time>
      </trkpt>
      <trkpt lat="46.74734" lon="1.22385">
        <ele>92.9</ele>
        <time>2011-01-23T12:40:09Z</time>
      </trkpt>
      <trkpt lat="46.74743" lon="1.22395">
        <ele>92.42</ele>
        <time>2011-01-23T12:40:21Z</time>
      </trkpt>
      <trkpt lat="46.74744" lon="1.22396">
        <ele>92.9</ele>
        <time>2011-01-23T12:40:23Z</time>
      </trkpt>
      <trkpt lat="46.74751" lon="1.22408">
        <ele>91.94</ele>
        <time>2011-01-23T12:40:35Z</time>
      </trkpt>
      <trkpt lat="46.74752" lon="1.22409">
        <ele>92.42</ele>
        <time>2011-01-23T12:40:36Z</time>
      </trkpt>
      <trkpt lat="46.74761" lon="1.22419">
        <ele>92.42</ele>
        <time>2011-01-23T12:40:47Z</time>
      </trkpt>
      <trkpt lat="46.74769" lon="1.22424">
        <ele>92.9</ele>
        <time>2011-01-23T12:40:56Z</time>
      </trkpt>
      <trkpt lat="46.74775" lon="1.22429">
        <ele>92.9</ele>
        <time>2011-01-23T12:41:08Z</time>
      </trkpt>
      <trkpt lat="46.74775" lon="1.22429">
        <ele>92.9</ele>
        <time>2011-01-23T12:41:21Z</time>
      </trkpt>
      <trkpt lat="46.74777" lon="1.22433">
        <ele>91.46</ele>
        <time>2011-01-23T12:41:48Z</time>
      </trkpt>
      <trkpt lat="46.74778" lon="1.22434">
        <ele>91.46</ele>
        <time>2011-01-23T12:41:49Z</time>
      </trkpt>
      <trkpt lat="46.74789" lon="1.22446">
        <ele>92.42</ele>
        <time>2011-01-23T12:42:03Z</time>
      </trkpt>
      <trkpt lat="46.74794" lon="1.2245">
        <ele>92.9</ele>
        <time>2011-01-23T12:42:09Z</time>
      </trkpt>
      <trkpt lat="46.74805" lon="1.22456">
        <ele>92.42</ele>
        <time>2011-01-23T12:42:20Z</time>
      </trkpt>
      <trkpt lat="46.74815" lon="1.22463">
        <ele>92.42</ele>
        <time>2011-01-23T12:42:31Z</time>
      </trkpt>
      <trkpt lat="46.74821" lon="1.22471">
        <ele>92.42</ele>
        <time>2011-01-23T12:42:44Z</time>
      </trkpt>
      <trkpt lat="46.74832" lon="1.22479">
        <ele>92.9</ele>
        <time>2011-01-23T12:42:55Z</time>
      </trkpt>
      <trkpt lat="46.74844" lon="1.22485">
        <ele>92.9</ele>
        <time>2011-01-23T12:43:07Z</time>
      </trkpt>
      <trkpt lat="46.74854" lon="1.2249">
        <ele>92.9</ele>
        <time>2011-01-23T12:43:18Z</time>
      </trkpt>
      <trkpt lat="46.74863" lon="1.22493">
        <ele>93.39</ele>
        <time>2011-01-23T12:43:30Z</time>
      </trkpt>
      <trkpt lat="46.7487" lon="1.22499">
        <ele>92.9</ele>
        <time>2011-01-23T12:43:41Z</time>
      </trkpt>
      <trkpt lat="46.74882" lon="1.22507">
        <ele>93.87</ele>
        <time>2011-01-23T12:43:54Z</time>
      </trkpt>
      <trkpt lat="46.7489" lon="1.22511">
        <ele>93.87</ele>
        <time>2011-01-23T12:44:03Z</time>
      </trkpt>
      <trkpt lat="46.74902" lon="1.22518">
        <ele>93.87</ele>
        <time>2011-01-23T12:44:16Z</time>
      </trkpt>
      <trkpt lat="46.74914" lon="1.22525">
        <ele>93.87</ele>
        <time>2011-01-23T12:44:28Z</time>
      </trkpt>
      <trkpt lat="46.74925" lon="1.22536">
        <ele>94.35</ele>
        <time>2011-01-23T12:44:40Z</time>
      </trkpt>
      <trkpt lat="46.74937" lon="1.22545">
        <ele>94.83</ele>
        <time>2011-01-23T12:44:53Z</time>
      </trkpt>
      <trkpt lat="46.74948" lon="1.22553">
        <ele>94.35</ele>
        <time>2011-01-23T12:45:05Z</time>
      </trkpt>
      <trkpt lat="46.74954" lon="1.22558">
        <ele>93.87</ele>
        <time>2011-01-23T12:45:12Z</time>
      </trkpt>
      <trkpt lat="46.7496" lon="1.22562">
        <ele>93.87</ele>
        <time>2011-01-23T12:45:18Z</time>
      </trkpt>
      <trkpt lat="46.74966" lon="1.22567">
        <ele>95.79</ele>
        <time>2011-01-23T12:45:26Z</time>
      </trkpt>
      <trkpt lat="46.74969" lon="1.22569">
        <ele>93.39</ele>
        <time>2011-01-23T12:45:29Z</time>
      </trkpt>
      <trkpt lat="46.7497" lon="1.22571">
        <ele>93.87</ele>
        <time>2011-01-23T12:45:31Z</time>
      </trkpt>
      <trkpt lat="46.74983" lon="1.22582">
        <ele>94.35</ele>
        <time>2011-01-23T12:45:44Z</time>
      </trkpt>
      <trkpt lat="46.74995" lon="1.22591">
        <ele>94.83</ele>
        <time>2011-01-23T12:45:56Z</time>
      </trkpt>
      <trkpt lat="46.74995" lon="1.22592">
        <ele>95.31</ele>
        <time>2011-01-23T12:45:57Z</time>
      </trkpt>
      <trkpt lat="46.75001" lon="1.22598">
        <ele>94.83</ele>
        <time>2011-01-23T12:46:04Z</time>
      </trkpt>
      <trkpt lat="46.75012" lon="1.22608">
        <ele>95.31</ele>
        <time>2011-01-23T12:46:17Z</time>
      </trkpt>
      <trkpt lat="46.75023" lon="1.22614">
        <ele>94.83</ele>
        <time>2011-01-23T12:46:29Z</time>
      </trkpt>
      <trkpt lat="46.75036" lon="1.22619">
        <ele>94.83</ele>
        <time>2011-01-23T12:46:42Z</time>
      </trkpt>
      <trkpt lat="46.75046" lon="1.22621">
        <ele>93.87</ele>
        <time>2011-01-23T12:46:54Z</time>
      </trkpt>
      <trkpt lat="46.75058" lon="1.22623">
        <ele>93.39</ele>
        <time>2011-01-23T12:47:07Z</time>
      </trkpt>
      <trkpt lat="46.75066" lon="1.22621">
        <ele>93.87</ele>
        <time>2011-01-23T12:47:17Z</time>
      </trkpt>
      <trkpt lat="46.75074" lon="1.22615">
        <ele>91.46</ele>
        <time>2011-01-23T12:47:28Z</time>
      </trkpt>
      <trkpt lat="46.7508" lon="1.2261">
        <ele>90.5</ele>
        <time>2011-01-23T12:47:35Z</time>
      </trkpt>
      <trkpt lat="46.75081" lon="1.22608">
        <ele>93.39</ele>
        <time>2011-01-23T12:47:37Z</time>
      </trkpt>
      <trkpt lat="46.75082" lon="1.22608">
        <ele>93.39</ele>
        <time>2011-01-23T12:47:38Z</time>
      </trkpt>
      <trkpt lat="46.75091" lon="1.22599">
        <ele>92.9</ele>
        <time>2011-01-23T12:47:49Z</time>
      </trkpt>
      <trkpt lat="46.75101" lon="1.2259">
        <ele>93.39</ele>
        <time>2011-01-23T12:48:00Z</time>
      </trkpt>
      <trkpt lat="46.75111" lon="1.22584">
        <ele>92.9</ele>
        <time>2011-01-23T12:48:12Z</time>
      </trkpt>
      <trkpt lat="46.75115" lon="1.22582">
        <ele>91.46</ele>
        <time>2011-01-23T12:48:20Z</time>
      </trkpt>
      <trkpt lat="46.75121" lon="1.22579">
        <ele>91.94</ele>
        <time>2011-01-23T12:48:26Z</time>
      </trkpt>
      <trkpt lat="46.75129" lon="1.22574">
        <ele>91.46</ele>
        <time>2011-01-23T12:48:37Z</time>
      </trkpt>
      <trkpt lat="46.75138" lon="1.22571">
        <ele>91.94</ele>
        <time>2011-01-23T12:48:46Z</time>
      </trkpt>
      <trkpt lat="46.75143" lon="1.22572">
        <ele>91.46</ele>
        <time>2011-01-23T12:48:57Z</time>
      </trkpt>
      <trkpt lat="46.75148" lon="1.22573">
        <ele>91.46</ele>
        <time>2011-01-23T12:49:17Z</time>
      </trkpt>
      <trkpt lat="46.7516" lon="1.22578">
        <ele>91.94</ele>
        <time>2011-01-23T12:49:29Z</time>
      </trkpt>
      <trkpt lat="46.75171" lon="1.22584">
        <ele>91.46</ele>
        <time>2011-01-23T12:49:42Z</time>
      </trkpt>
      <trkpt lat="46.75183" lon="1.2259">
        <ele>90.98</ele>
        <time>2011-01-23T12:49:53Z</time>
      </trkpt>
      <trkpt lat="46.75188" lon="1.22595">
        <ele>90.5</ele>
        <time>2011-01-23T12:49:58Z</time>
      </trkpt>
      <trkpt lat="46.75197" lon="1.22596">
        <ele>89.54</ele>
        <time>2011-01-23T12:50:06Z</time>
      </trkpt>
      <trkpt lat="46.75209" lon="1.226">
        <ele>89.54</ele>
        <time>2011-01-23T12:50:19Z</time>
      </trkpt>
      <trkpt lat="46.75222" lon="1.22605">
        <ele>90.02</ele>
        <time>2011-01-23T12:50:34Z</time>
      </trkpt>
      <trkpt lat="46.75234" lon="1.22601">
        <ele>90.5</ele>
        <time>2011-01-23T12:50:46Z</time>
      </trkpt>
      <trkpt lat="46.75234" lon="1.22601">
        <ele>90.5</ele>
        <time>2011-01-23T12:50:47Z</time>
      </trkpt>
      <trkpt lat="46.75243" lon="1.22592">
        <ele>90.5</ele>
        <time>2011-01-23T12:51:00Z</time>
      </trkpt>
      <trkpt lat="46.75253" lon="1.2258">
        <ele>90.5</ele>
        <time>2011-01-23T12:51:12Z</time>
      </trkpt>
      <trkpt lat="46.75266" lon="1.22568">
        <ele>90.5</ele>
        <time>2011-01-23T12:51:24Z</time>
      </trkpt>
      <trkpt lat="46.75275" lon="1.22558">
        <ele>90.02</ele>
        <time>2011-01-23T12:51:36Z</time>
      </trkpt>
      <trkpt lat="46.75278" lon="1.22554">
        <ele>90.5</ele>
        <time>2011-01-23T12:51:40Z</time>
      </trkpt>
      <trkpt lat="46.75287" lon="1.22545">
        <ele>90.02</ele>
        <time>2011-01-23T12:51:53Z</time>
      </trkpt>
      <trkpt lat="46.75294" lon="1.22534">
        <ele>89.54</ele>
        <time>2011-01-23T12:52:03Z</time>
      </trkpt>
      <trkpt lat="46.75306" lon="1.22525">
        <ele>90.5</ele>
        <time>2011-01-23T12:52:16Z</time>
      </trkpt>
      <trkpt lat="46.75314" lon="1.22513">
        <ele>90.02</ele>
        <time>2011-01-23T12:52:28Z</time>
      </trkpt>
      <trkpt lat="46.75325" lon="1.22504">
        <ele>90.5</ele>
        <time>2011-01-23T12:52:40Z</time>
      </trkpt>
      <trkpt lat="46.7534" lon="1.22494">
        <ele>90.02</ele>
        <time>2011-01-23T12:52:54Z</time>
      </trkpt>
      <trkpt lat="46.75354" lon="1.22482">
        <ele>90.5</ele>
        <time>2011-01-23T12:53:08Z</time>
      </trkpt>
      <trkpt lat="46.75363" lon="1.22475">
        <ele>90.02</ele>
        <time>2011-01-23T12:53:18Z</time>
      </trkpt>
      <trkpt lat="46.75374" lon="1.2247">
        <ele>90.02</ele>
        <time>2011-01-23T12:53:30Z</time>
      </trkpt>
      <trkpt lat="46.75385" lon="1.22461">
        <ele>90.5</ele>
        <time>2011-01-23T12:53:43Z</time>
      </trkpt>
      <trkpt lat="46.75399" lon="1.22456">
        <ele>90.98</ele>
        <time>2011-01-23T12:53:56Z</time>
      </trkpt>
      <trkpt lat="46.75412" lon="1.22448">
        <ele>90.98</ele>
        <time>2011-01-23T12:54:10Z</time>
      </trkpt>
      <trkpt lat="46.75423" lon="1.22441">
        <ele>90.98</ele>
        <time>2011-01-23T12:54:22Z</time>
      </trkpt>
      <trkpt lat="46.75436" lon="1.22435">
        <ele>90.98</ele>
        <time>2011-01-23T12:54:34Z</time>
      </trkpt>
      <trkpt lat="46.75448" lon="1.22428">
        <ele>91.94</ele>
        <time>2011-01-23T12:54:47Z</time>
      </trkpt>
      <trkpt lat="46.7546" lon="1.22424">
        <ele>91.46</ele>
        <time>2011-01-23T12:54:58Z</time>
      </trkpt>
      <trkpt lat="46.75469" lon="1.22419">
        <ele>91.94</ele>
        <time>2011-01-23T12:55:09Z</time>
      </trkpt>
      <trkpt lat="46.75479" lon="1.22414">
        <ele>91.94</ele>
        <time>2011-01-23T12:55:21Z</time>
      </trkpt>
      <trkpt lat="46.7549" lon="1.2241">
        <ele>91.94</ele>
        <time>2011-01-23T12:55:33Z</time>
      </trkpt>
      <trkpt lat="46.75498" lon="1.22409">
        <ele>91.94</ele>
        <time>2011-01-23T12:55:44Z</time>
      </trkpt>
      <trkpt lat="46.75504" lon="1.22409">
        <ele>91.46</ele>
        <time>2011-01-23T12:55:53Z</time>
      </trkpt>
      <trkpt lat="46.75514" lon="1.22407">
        <ele>91.46</ele>
        <time>2011-01-23T12:56:04Z</time>
      </trkpt>
      <trkpt lat="46.75525" lon="1.22407">
        <ele>91.94</ele>
        <time>2011-01-23T12:56:18Z</time>
      </trkpt>
      <trkpt lat="46.75531" lon="1.224">
        <ele>92.42</ele>
        <time>2011-01-23T12:56:28Z</time>
      </trkpt>
      <trkpt lat="46.75538" lon="1.2238">
        <ele>91.94</ele>
        <time>2011-01-23T12:56:42Z</time>
      </trkpt>
      <trkpt lat="46.75539" lon="1.22378">
        <ele>91.46</ele>
        <time>2011-01-23T12:56:44Z</time>
      </trkpt>
      <trkpt lat="46.75547" lon="1.22362">
        <ele>91.46</ele>
        <time>2011-01-23T12:56:57Z</time>
      </trkpt>
      <trkpt lat="46.75551" lon="1.22356">
        <ele>92.42</ele>
        <time>2011-01-23T12:57:09Z</time>
      </trkpt>
      <trkpt lat="46.75551" lon="1.22356">
        <ele>90.98</ele>
        <time>2011-01-23T12:57:33Z</time>
      </trkpt>
      <trkpt lat="46.75553" lon="1.22353">
        <ele>91.46</ele>
        <time>2011-01-23T12:57:47Z</time>
      </trkpt>
      <trkpt lat="46.75557" lon="1.22343">
        <ele>91.46</ele>
        <time>2011-01-23T12:57:55Z</time>
      </trkpt>
      <trkpt lat="46.75564" lon="1.22326">
        <ele>90.98</ele>
        <time>2011-01-23T12:58:08Z</time>
      </trkpt>
      <trkpt lat="46.75565" lon="1.22324">
        <ele>90.5</ele>
        <time>2011-01-23T12:58:09Z</time>
      </trkpt>
      <trkpt lat="46.75571" lon="1.2231">
        <ele>91.94</ele>
        <time>2011-01-23T12:58:21Z</time>
      </trkpt>
      <trkpt lat="46.75581" lon="1.22294">
        <ele>91.46</ele>
        <time>2011-01-23T12:58:34Z</time>
      </trkpt>
      <trkpt lat="46.75588" lon="1.2228">
        <ele>90.5</ele>
        <time>2011-01-23T12:58:45Z</time>
      </trkpt>
      <trkpt lat="46.75597" lon="1.22266">
        <ele>90.5</ele>
        <time>2011-01-23T12:58:57Z</time>
      </trkpt>
      <trkpt lat="46.75604" lon="1.22251">
        <ele>90.5</ele>
        <time>2011-01-23T12:59:10Z</time>
      </trkpt>
      <trkpt lat="46.75612" lon="1.22233">
        <ele>90.98</ele>
        <time>2011-01-23T12:59:22Z</time>
      </trkpt>
      <trkpt lat="46.75618" lon="1.22222">
        <ele>90.98</ele>
        <time>2011-01-23T12:59:32Z</time>
      </trkpt>
      <trkpt lat="46.75622" lon="1.22211">
        <ele>90.5</ele>
        <time>2011-01-23T12:59:41Z</time>
      </trkpt>
      <trkpt lat="46.75627" lon="1.22208">
        <ele>90.5</ele>
        <time>2011-01-23T12:59:48Z</time>
      </trkpt>
      <trkpt lat="46.75637" lon="1.22206">
        <ele>92.42</ele>
        <time>2011-01-23T12:59:59Z</time>
      </trkpt>
      <trkpt lat="46.75639" lon="1.22208">
        <ele>93.39</ele>
        <time>2011-01-23T13:00:03Z</time>
      </trkpt>
      <trkpt lat="46.75641" lon="1.2221">
        <ele>90.98</ele>
        <time>2011-01-23T13:00:06Z</time>
      </trkpt>
      <trkpt lat="46.75643" lon="1.22213">
        <ele>94.35</ele>
        <time>2011-01-23T13:00:11Z</time>
      </trkpt>
      <trkpt lat="46.75643" lon="1.22213">
        <ele>94.35</ele>
        <time>2011-01-23T13:00:12Z</time>
      </trkpt>
      <trkpt lat="46.75643" lon="1.22213">
        <ele>93.87</ele>
        <time>2011-01-23T13:00:25Z</time>
      </trkpt>
      <trkpt lat="46.75639" lon="1.22207">
        <ele>92.42</ele>
        <time>2011-01-23T13:00:35Z</time>
      </trkpt>
      <trkpt lat="46.75638" lon="1.22206">
        <ele>91.46</ele>
        <time>2011-01-23T13:00:36Z</time>
      </trkpt>
      <trkpt lat="46.75639" lon="1.22194">
        <ele>90.98</ele>
        <time>2011-01-23T13:00:46Z</time>
      </trkpt>
      <trkpt lat="46.75643" lon="1.2219">
        <ele>91.46</ele>
        <time>2011-01-23T13:00:51Z</time>
      </trkpt>
      <trkpt lat="46.75652" lon="1.22178">
        <ele>90.98</ele>
        <time>2011-01-23T13:01:02Z</time>
      </trkpt>
      <trkpt lat="46.7566" lon="1.22163">
        <ele>90.98</ele>
        <time>2011-01-23T13:01:14Z</time>
      </trkpt>
      <trkpt lat="46.75662" lon="1.2216">
        <ele>90.98</ele>
        <time>2011-01-23T13:01:16Z</time>
      </trkpt>
      <trkpt lat="46.75672" lon="1.22147">
        <ele>90.98</ele>
        <time>2011-01-23T13:01:28Z</time>
      </trkpt>
      <trkpt lat="46.75676" lon="1.22137">
        <ele>91.46</ele>
        <time>2011-01-23T13:01:35Z</time>
      </trkpt>
      <trkpt lat="46.75678" lon="1.22135">
        <ele>91.46</ele>
        <time>2011-01-23T13:01:37Z</time>
      </trkpt>
      <trkpt lat="46.75684" lon="1.2212">
        <ele>91.94</ele>
        <time>2011-01-23T13:01:49Z</time>
      </trkpt>
      <trkpt lat="46.75693" lon="1.22109">
        <ele>91.94</ele>
        <time>2011-01-23T13:02:01Z</time>
      </trkpt>
      <trkpt lat="46.75694" lon="1.22106">
        <ele>91.94</ele>
        <time>2011-01-23T13:02:04Z</time>
      </trkpt>
      <trkpt lat="46.75699" lon="1.22096">
        <ele>91.94</ele>
        <time>2011-01-23T13:02:14Z</time>
      </trkpt>
      <trkpt lat="46.75703" lon="1.22088">
        <ele>92.42</ele>
        <time>2011-01-23T13:02:20Z</time>
      </trkpt>
      <trkpt lat="46.75705" lon="1.22075">
        <ele>91.94</ele>
        <time>2011-01-23T13:02:31Z</time>
      </trkpt>
      <trkpt lat="46.75708" lon="1.22071">
        <ele>91.94</ele>
        <time>2011-01-23T13:02:38Z</time>
      </trkpt>
      <trkpt lat="46.7571" lon="1.22069">
        <ele>91.46</ele>
        <time>2011-01-23T13:02:40Z</time>
      </trkpt>
      <trkpt lat="46.75713" lon="1.22067">
        <ele>92.42</ele>
        <time>2011-01-23T13:02:44Z</time>
      </trkpt>
      <trkpt lat="46.75726" lon="1.22059">
        <ele>92.42</ele>
        <time>2011-01-23T13:02:55Z</time>
      </trkpt>
      <trkpt lat="46.75727" lon="1.22059">
        <ele>91.94</ele>
        <time>2011-01-23T13:02:56Z</time>
      </trkpt>
      <trkpt lat="46.75741" lon="1.22054">
        <ele>91.94</ele>
        <time>2011-01-23T13:03:08Z</time>
      </trkpt>
      <trkpt lat="46.75753" lon="1.2205">
        <ele>92.42</ele>
        <time>2011-01-23T13:03:21Z</time>
      </trkpt>
      <trkpt lat="46.75766" lon="1.22041">
        <ele>92.9</ele>
        <time>2011-01-23T13:03:34Z</time>
      </trkpt>
      <trkpt lat="46.75768" lon="1.22041">
        <ele>92.42</ele>
        <time>2011-01-23T13:03:36Z</time>
      </trkpt>
      <trkpt lat="46.7577" lon="1.22042">
        <ele>92.42</ele>
        <time>2011-01-23T13:03:41Z</time>
      </trkpt>
      <trkpt lat="46.75773" lon="1.22039">
        <ele>92.9</ele>
        <time>2011-01-23T13:03:44Z</time>
      </trkpt>
      <trkpt lat="46.75779" lon="1.22037">
        <ele>93.39</ele>
        <time>2011-01-23T13:03:49Z</time>
      </trkpt>
      <trkpt lat="46.7579" lon="1.22026">
        <ele>93.39</ele>
        <time>2011-01-23T13:04:01Z</time>
      </trkpt>
      <trkpt lat="46.75798" lon="1.22018">
        <ele>93.39</ele>
        <time>2011-01-23T13:04:11Z</time>
      </trkpt>
      <trkpt lat="46.75802" lon="1.22019">
        <ele>93.87</ele>
        <time>2011-01-23T13:04:22Z</time>
      </trkpt>
      <trkpt lat="46.75803" lon="1.22017">
        <ele>93.87</ele>
        <time>2011-01-23T13:04:24Z</time>
      </trkpt>
      <trkpt lat="46.75816" lon="1.22006">
        <ele>93.87</ele>
        <time>2011-01-23T13:04:38Z</time>
      </trkpt>
      <trkpt lat="46.75827" lon="1.21997">
        <ele>93.87</ele>
        <time>2011-01-23T13:04:50Z</time>
      </trkpt>
      <trkpt lat="46.75837" lon="1.21989">
        <ele>94.83</ele>
        <time>2011-01-23T13:05:01Z</time>
      </trkpt>
      <trkpt lat="46.75842" lon="1.21985">
        <ele>94.35</ele>
        <time>2011-01-23T13:05:11Z</time>
      </trkpt>
      <trkpt lat="46.75844" lon="1.21983">
        <ele>94.83</ele>
        <time>2011-01-23T13:05:13Z</time>
      </trkpt>
      <trkpt lat="46.75856" lon="1.21974">
        <ele>95.31</ele>
        <time>2011-01-23T13:05:26Z</time>
      </trkpt>
      <trkpt lat="46.75858" lon="1.21973">
        <ele>95.79</ele>
        <time>2011-01-23T13:05:27Z</time>
      </trkpt>
      <trkpt lat="46.75868" lon="1.21964">
        <ele>95.31</ele>
        <time>2011-01-23T13:05:39Z</time>
      </trkpt>
      <trkpt lat="46.75878" lon="1.21956">
        <ele>96.27</ele>
        <time>2011-01-23T13:05:50Z</time>
      </trkpt>
      <trkpt lat="46.75887" lon="1.2195">
        <ele>96.27</ele>
        <time>2011-01-23T13:06:00Z</time>
      </trkpt>
      <trkpt lat="46.75889" lon="1.21947">
        <ele>96.27</ele>
        <time>2011-01-23T13:06:10Z</time>
      </trkpt>
      <trkpt lat="46.759" lon="1.21939">
        <ele>96.27</ele>
        <time>2011-01-23T13:06:21Z</time>
      </trkpt>
      <trkpt lat="46.75905" lon="1.21935">
        <ele>96.27</ele>
        <time>2011-01-23T13:06:31Z</time>
      </trkpt>
      <trkpt lat="46.75905" lon="1.21934">
        <ele>97.23</ele>
        <time>2011-01-23T13:06:44Z</time>
      </trkpt>
      <trkpt lat="46.75911" lon="1.21926">
        <ele>97.71</ele>
        <time>2011-01-23T13:06:52Z</time>
      </trkpt>
      <trkpt lat="46.75924" lon="1.21918">
        <ele>97.71</ele>
        <time>2011-01-23T13:07:05Z</time>
      </trkpt>
      <trkpt lat="46.75925" lon="1.21917">
        <ele>97.71</ele>
        <time>2011-01-23T13:07:07Z</time>
      </trkpt>
      <trkpt lat="46.75927" lon="1.21916">
        <ele>97.71</ele>
        <time>2011-01-23T13:07:09Z</time>
      </trkpt>
      <trkpt lat="46.75937" lon="1.21911">
        <ele>97.71</ele>
        <time>2011-01-23T13:07:18Z</time>
      </trkpt>
      <trkpt lat="46.75942" lon="1.21912">
        <ele>97.71</ele>
        <time>2011-01-23T13:07:26Z</time>
      </trkpt>
      <trkpt lat="46.75944" lon="1.21912">
        <ele>98.19</ele>
        <time>2011-01-23T13:07:32Z</time>
      </trkpt>
      <trkpt lat="46.75949" lon="1.21913">
        <ele>98.67</ele>
        <time>2011-01-23T13:07:41Z</time>
      </trkpt>
      <trkpt lat="46.75955" lon="1.21911">
        <ele>98.19</ele>
        <time>2011-01-23T13:07:47Z</time>
      </trkpt>
      <trkpt lat="46.75968" lon="1.21908">
        <ele>97.23</ele>
        <time>2011-01-23T13:07:59Z</time>
      </trkpt>
      <trkpt lat="46.75982" lon="1.21904">
        <ele>98.19</ele>
        <time>2011-01-23T13:08:12Z</time>
      </trkpt>
      <trkpt lat="46.75987" lon="1.21903">
        <ele>98.19</ele>
        <time>2011-01-23T13:08:20Z</time>
      </trkpt>
      <trkpt lat="46.75989" lon="1.21902">
        <ele>97.71</ele>
        <time>2011-01-23T13:08:22Z</time>
      </trkpt>
      <trkpt lat="46.76005" lon="1.21897">
        <ele>98.19</ele>
        <time>2011-01-23T13:08:37Z</time>
      </trkpt>
      <trkpt lat="46.76022" lon="1.21893">
        <ele>97.23</ele>
        <time>2011-01-23T13:08:53Z</time>
      </trkpt>
      <trkpt lat="46.76036" lon="1.21886">
        <ele>97.23</ele>
        <time>2011-01-23T13:09:06Z</time>
      </trkpt>
      <trkpt lat="46.76046" lon="1.21879">
        <ele>96.27</ele>
        <time>2011-01-23T13:09:17Z</time>
      </trkpt>
      <trkpt lat="46.76057" lon="1.21871">
        <ele>96.75</ele>
        <time>2011-01-23T13:09:28Z</time>
      </trkpt>
      <trkpt lat="46.76059" lon="1.2187">
        <ele>97.23</ele>
        <time>2011-01-23T13:09:37Z</time>
      </trkpt>
      <trkpt lat="46.7606" lon="1.2187">
        <ele>96.75</ele>
        <time>2011-01-23T13:09:45Z</time>
      </trkpt>
      <trkpt lat="46.76061" lon="1.21867">
        <ele>97.23</ele>
        <time>2011-01-23T13:09:47Z</time>
      </trkpt>
      <trkpt lat="46.7607" lon="1.21853">
        <ele>96.75</ele>
        <time>2011-01-23T13:09:58Z</time>
      </trkpt>
      <trkpt lat="46.76076" lon="1.21844">
        <ele>96.27</ele>
        <time>2011-01-23T13:10:05Z</time>
      </trkpt>
      <trkpt lat="46.76085" lon="1.21831">
        <ele>96.27</ele>
        <time>2011-01-23T13:10:17Z</time>
      </trkpt>
      <trkpt lat="46.76092" lon="1.2182">
        <ele>95.79</ele>
        <time>2011-01-23T13:10:27Z</time>
      </trkpt>
      <trkpt lat="46.76098" lon="1.2181">
        <ele>95.31</ele>
        <time>2011-01-23T13:10:36Z</time>
      </trkpt>
      <trkpt lat="46.76105" lon="1.21797">
        <ele>95.31</ele>
        <time>2011-01-23T13:10:47Z</time>
      </trkpt>
      <trkpt lat="46.76111" lon="1.21785">
        <ele>94.35</ele>
        <time>2011-01-23T13:10:56Z</time>
      </trkpt>
      <trkpt lat="46.76114" lon="1.21777">
        <ele>94.35</ele>
        <time>2011-01-23T13:11:02Z</time>
      </trkpt>
      <trkpt lat="46.76124" lon="1.2176">
        <ele>94.35</ele>
        <time>2011-01-23T13:11:16Z</time>
      </trkpt>
      <trkpt lat="46.76133" lon="1.21746">
        <ele>94.35</ele>
        <time>2011-01-23T13:11:28Z</time>
      </trkpt>
      <trkpt lat="46.76137" lon="1.21737">
        <ele>93.87</ele>
        <time>2011-01-23T13:11:35Z</time>
      </trkpt>
      <trkpt lat="46.7614" lon="1.21732">
        <ele>93.87</ele>
        <time>2011-01-23T13:11:39Z</time>
      </trkpt>
      <trkpt lat="46.76147" lon="1.21717">
        <ele>94.35</ele>
        <time>2011-01-23T13:11:51Z</time>
      </trkpt>
      <trkpt lat="46.76154" lon="1.21703">
        <ele>93.87</ele>
        <time>2011-01-23T13:12:02Z</time>
      </trkpt>
      <trkpt lat="46.76161" lon="1.21691">
        <ele>93.39</ele>
        <time>2011-01-23T13:12:15Z</time>
      </trkpt>
      <trkpt lat="46.76161" lon="1.21691">
        <ele>94.35</ele>
        <time>2011-01-23T13:12:26Z</time>
      </trkpt>
      <trkpt lat="46.76162" lon="1.21691">
        <ele>93.39</ele>
        <time>2011-01-23T13:12:50Z</time>
      </trkpt>
      <trkpt lat="46.76162" lon="1.2169">
        <ele>93.39</ele>
        <time>2011-01-23T13:12:51Z</time>
      </trkpt>
      <trkpt lat="46.76172" lon="1.21675">
        <ele>93.39</ele>
        <time>2011-01-23T13:13:04Z</time>
      </trkpt>
      <trkpt lat="46.76181" lon="1.21661">
        <ele>92.9</ele>
        <time>2011-01-23T13:13:16Z</time>
      </trkpt>
      <trkpt lat="46.76188" lon="1.21651">
        <ele>94.35</ele>
        <time>2011-01-23T13:13:25Z</time>
      </trkpt>
      <trkpt lat="46.76198" lon="1.2164">
        <ele>93.87</ele>
        <time>2011-01-23T13:13:37Z</time>
      </trkpt>
      <trkpt lat="46.7621" lon="1.21631">
        <ele>93.87</ele>
        <time>2011-01-23T13:13:49Z</time>
      </trkpt>
      <trkpt lat="46.7622" lon="1.21623">
        <ele>93.87</ele>
        <time>2011-01-23T13:14:00Z</time>
      </trkpt>
      <trkpt lat="46.76233" lon="1.21615">
        <ele>93.87</ele>
        <time>2011-01-23T13:14:13Z</time>
      </trkpt>
      <trkpt lat="46.76242" lon="1.21604">
        <ele>94.35</ele>
        <time>2011-01-23T13:14:24Z</time>
      </trkpt>
      <trkpt lat="46.76255" lon="1.21595">
        <ele>94.35</ele>
        <time>2011-01-23T13:14:37Z</time>
      </trkpt>
      <trkpt lat="46.76268" lon="1.21587">
        <ele>94.35</ele>
        <time>2011-01-23T13:14:50Z</time>
      </trkpt>
      <trkpt lat="46.76279" lon="1.21579">
        <ele>94.35</ele>
        <time>2011-01-23T13:15:01Z</time>
      </trkpt>
      <trkpt lat="46.76279" lon="1.21578">
        <ele>93.87</ele>
        <time>2011-01-23T13:15:02Z</time>
      </trkpt>
      <trkpt lat="46.76282" lon="1.21575">
        <ele>93.87</ele>
        <time>2011-01-23T13:15:06Z</time>
      </trkpt>
      <trkpt lat="46.76289" lon="1.21569">
        <ele>93.39</ele>
        <time>2011-01-23T13:15:13Z</time>
      </trkpt>
      <trkpt lat="46.76296" lon="1.21557">
        <ele>92.9</ele>
        <time>2011-01-23T13:15:25Z</time>
      </trkpt>
      <trkpt lat="46.76298" lon="1.21557">
        <ele>92.9</ele>
        <time>2011-01-23T13:15:28Z</time>
      </trkpt>
      <trkpt lat="46.76302" lon="1.21559">
        <ele>92.42</ele>
        <time>2011-01-23T13:15:31Z</time>
      </trkpt>
      <trkpt lat="46.76318" lon="1.2156">
        <ele>91.94</ele>
        <time>2011-01-23T13:15:46Z</time>
      </trkpt>
      <trkpt lat="46.76321" lon="1.2156">
        <ele>91.94</ele>
        <time>2011-01-23T13:15:55Z</time>
      </trkpt>
      <trkpt lat="46.76318" lon="1.2156">
        <ele>91.94</ele>
        <time>2011-01-23T13:15:58Z</time>
      </trkpt>
      <trkpt lat="46.76302" lon="1.21562">
        <ele>92.9</ele>
        <time>2011-01-23T13:16:11Z</time>
      </trkpt>
      <trkpt lat="46.763" lon="1.21561">
        <ele>92.9</ele>
        <time>2011-01-23T13:16:13Z</time>
      </trkpt>
      <trkpt lat="46.76299" lon="1.21556">
        <ele>92.9</ele>
        <time>2011-01-23T13:16:18Z</time>
      </trkpt>
      <trkpt lat="46.76305" lon="1.21541">
        <ele>92.9</ele>
        <time>2011-01-23T13:16:31Z</time>
      </trkpt>
      <trkpt lat="46.76308" lon="1.21538">
        <ele>92.9</ele>
        <time>2011-01-23T13:16:35Z</time>
      </trkpt>
      <trkpt lat="46.76313" lon="1.21529">
        <ele>92.42</ele>
        <time>2011-01-23T13:16:45Z</time>
      </trkpt>
      <trkpt lat="46.76315" lon="1.21528">
        <ele>95.79</ele>
        <time>2011-01-23T13:16:54Z</time>
      </trkpt>
      <trkpt lat="46.76315" lon="1.21528">
        <ele>91.94</ele>
        <time>2011-01-23T13:16:55Z</time>
      </trkpt>
      <trkpt lat="46.76317" lon="1.21525">
        <ele>92.9</ele>
        <time>2011-01-23T13:17:09Z</time>
      </trkpt>
      <trkpt lat="46.76317" lon="1.21525">
        <ele>94.35</ele>
        <time>2011-01-23T13:17:14Z</time>
      </trkpt>
      <trkpt lat="46.76317" lon="1.21525">
        <ele>91.46</ele>
        <time>2011-01-23T13:17:15Z</time>
      </trkpt>
      <trkpt lat="46.76317" lon="1.21525">
        <ele>92.9</ele>
        <time>2011-01-23T13:17:16Z</time>
      </trkpt>
      <trkpt lat="46.76321" lon="1.21525">
        <ele>91.46</ele>
        <time>2011-01-23T13:17:29Z</time>
      </trkpt>
      <trkpt lat="46.76321" lon="1.21525">
        <ele>91.94</ele>
        <time>2011-01-23T13:17:58Z</time>
      </trkpt>
      <trkpt lat="46.76321" lon="1.21525">
        <ele>92.42</ele>
        <time>2011-01-23T13:18:07Z</time>
      </trkpt>
      <trkpt lat="46.76323" lon="1.21524">
        <ele>92.9</ele>
        <time>2011-01-23T13:18:28Z</time>
      </trkpt>
      <trkpt lat="46.76328" lon="1.2152">
        <ele>92.42</ele>
        <time>2011-01-23T13:18:41Z</time>
      </trkpt>
      <trkpt lat="46.76329" lon="1.21519">
        <ele>92.42</ele>
        <time>2011-01-23T13:18:43Z</time>
      </trkpt>
      <trkpt lat="46.76341" lon="1.21512">
        <ele>90.98</ele>
        <time>2011-01-23T13:18:57Z</time>
      </trkpt>
      <trkpt lat="46.76341" lon="1.21512">
        <ele>90.98</ele>
        <time>2011-01-23T13:18:58Z</time>
      </trkpt>
      <trkpt lat="46.76343" lon="1.2151">
        <ele>91.46</ele>
        <time>2011-01-23T13:19:05Z</time>
      </trkpt>
      <trkpt lat="46.76355" lon="1.21504">
        <ele>94.83</ele>
        <time>2011-01-23T13:19:19Z</time>
      </trkpt>
      <trkpt lat="46.76356" lon="1.21503">
        <ele>91.46</ele>
        <time>2011-01-23T13:19:20Z</time>
      </trkpt>
      <trkpt lat="46.76357" lon="1.21503">
        <ele>91.46</ele>
        <time>2011-01-23T13:19:21Z</time>
      </trkpt>
      <trkpt lat="46.76367" lon="1.215">
        <ele>90.98</ele>
        <time>2011-01-23T13:19:35Z</time>
      </trkpt>
      <trkpt lat="46.76368" lon="1.215">
        <ele>91.94</ele>
        <time>2011-01-23T13:19:43Z</time>
      </trkpt>
      <trkpt lat="46.76373" lon="1.21494">
        <ele>93.39</ele>
        <time>2011-01-23T13:19:49Z</time>
      </trkpt>
      <trkpt lat="46.76376" lon="1.21492">
        <ele>92.9</ele>
        <time>2011-01-23T13:19:54Z</time>
      </trkpt>
      <trkpt lat="46.76384" lon="1.21484">
        <ele>87.14</ele>
        <time>2011-01-23T13:20:05Z</time>
      </trkpt>
      <trkpt lat="46.76385" lon="1.21484">
        <ele>95.79</ele>
        <time>2011-01-23T13:20:06Z</time>
      </trkpt>
      <trkpt lat="46.76386" lon="1.21484">
        <ele>91.46</ele>
        <time>2011-01-23T13:20:07Z</time>
      </trkpt>
      <trkpt lat="46.76387" lon="1.21483">
        <ele>89.54</ele>
        <time>2011-01-23T13:20:09Z</time>
      </trkpt>
      <trkpt lat="46.76389" lon="1.21481">
        <ele>91.94</ele>
        <time>2011-01-23T13:20:11Z</time>
      </trkpt>
      <trkpt lat="46.76395" lon="1.21466">
        <ele>90.98</ele>
        <time>2011-01-23T13:20:24Z</time>
      </trkpt>
      <trkpt lat="46.76397" lon="1.21451">
        <ele>92.42</ele>
        <time>2011-01-23T13:20:38Z</time>
      </trkpt>
      <trkpt lat="46.76399" lon="1.21449">
        <ele>91.46</ele>
        <time>2011-01-23T13:20:40Z</time>
      </trkpt>
      <trkpt lat="46.76402" lon="1.21444">
        <ele>91.94</ele>
        <time>2011-01-23T13:20:45Z</time>
      </trkpt>
      <trkpt lat="46.76403" lon="1.21443">
        <ele>91.94</ele>
        <time>2011-01-23T13:20:46Z</time>
      </trkpt>
      <trkpt lat="46.76413" lon="1.21433">
        <ele>92.9</ele>
        <time>2011-01-23T13:21:01Z</time>
      </trkpt>
      <trkpt lat="46.76418" lon="1.21427">
        <ele>93.39</ele>
        <time>2011-01-23T13:21:11Z</time>
      </trkpt>
      <trkpt lat="46.76422" lon="1.21425">
        <ele>91.94</ele>
        <time>2011-01-23T13:21:25Z</time>
      </trkpt>
      <trkpt lat="46.76427" lon="1.21423">
        <ele>93.39</ele>
        <time>2011-01-23T13:21:39Z</time>
      </trkpt>
      <trkpt lat="46.76429" lon="1.21422">
        <ele>92.42</ele>
        <time>2011-01-23T13:21:42Z</time>
      </trkpt>
      <trkpt lat="46.76432" lon="1.2142">
        <ele>92.9</ele>
        <time>2011-01-23T13:21:45Z</time>
      </trkpt>
      <trkpt lat="46.76437" lon="1.21422">
        <ele>91.94</ele>
        <time>2011-01-23T13:21:56Z</time>
      </trkpt>
      <trkpt lat="46.76439" lon="1.21426">
        <ele>84.73</ele>
        <time>2011-01-23T13:21:59Z</time>
      </trkpt>
      <trkpt lat="46.76441" lon="1.21427">
        <ele>101.56</ele>
        <time>2011-01-23T13:22:00Z</time>
      </trkpt>
      <trkpt lat="46.76442" lon="1.21428">
        <ele>91.46</ele>
        <time>2011-01-23T13:22:01Z</time>
      </trkpt>
      <trkpt lat="46.76452" lon="1.2144">
        <ele>91.46</ele>
        <time>2011-01-23T13:22:12Z</time>
      </trkpt>
      <trkpt lat="46.76461" lon="1.21446">
        <ele>91.46</ele>
        <time>2011-01-23T13:22:22Z</time>
      </trkpt>
      <trkpt lat="46.76469" lon="1.21449">
        <ele>91.46</ele>
        <time>2011-01-23T13:22:31Z</time>
      </trkpt>
      <trkpt lat="46.76479" lon="1.21453">
        <ele>91.46</ele>
        <time>2011-01-23T13:22:41Z</time>
      </trkpt>
      <trkpt lat="46.76487" lon="1.21452">
        <ele>91.46</ele>
        <time>2011-01-23T13:22:50Z</time>
      </trkpt>
      <trkpt lat="46.76498" lon="1.21451">
        <ele>91.94</ele>
        <time>2011-01-23T13:22:59Z</time>
      </trkpt>
      <trkpt lat="46.76508" lon="1.21448">
        <ele>91.94</ele>
        <time>2011-01-23T13:23:08Z</time>
      </trkpt>
      <trkpt lat="46.76515" lon="1.21449">
        <ele>91.94</ele>
        <time>2011-01-23T13:23:13Z</time>
      </trkpt>
      <trkpt lat="46.76519" lon="1.21448">
        <ele>92.9</ele>
        <time>2011-01-23T13:23:17Z</time>
      </trkpt>
      <trkpt lat="46.76527" lon="1.21449">
        <ele>92.42</ele>
        <time>2011-01-23T13:23:28Z</time>
      </trkpt>
      <trkpt lat="46.76541" lon="1.21452">
        <ele>93.87</ele>
        <time>2011-01-23T13:23:40Z</time>
      </trkpt>
      <trkpt lat="46.76543" lon="1.21451">
        <ele>88.58</ele>
        <time>2011-01-23T13:23:42Z</time>
      </trkpt>
      <trkpt lat="46.76545" lon="1.21451">
        <ele>92.9</ele>
        <time>2011-01-23T13:23:43Z</time>
      </trkpt>
      <trkpt lat="46.76546" lon="1.21452">
        <ele>79.93</ele>
        <time>2011-01-23T13:23:44Z</time>
      </trkpt>
      <trkpt lat="46.76548" lon="1.21452">
        <ele>103</ele>
        <time>2011-01-23T13:23:46Z</time>
      </trkpt>
      <trkpt lat="46.7655" lon="1.21452">
        <ele>91.94</ele>
        <time>2011-01-23T13:23:47Z</time>
      </trkpt>
      <trkpt lat="46.76551" lon="1.21452">
        <ele>95.31</ele>
        <time>2011-01-23T13:23:48Z</time>
      </trkpt>
      <trkpt lat="46.76554" lon="1.21452">
        <ele>91.94</ele>
        <time>2011-01-23T13:23:51Z</time>
      </trkpt>
      <trkpt lat="46.76564" lon="1.21453">
        <ele>93.39</ele>
        <time>2011-01-23T13:24:01Z</time>
      </trkpt>
      <trkpt lat="46.76573" lon="1.21454">
        <ele>94.35</ele>
        <time>2011-01-23T13:24:10Z</time>
      </trkpt>
      <trkpt lat="46.76586" lon="1.21455">
        <ele>93.87</ele>
        <time>2011-01-23T13:24:20Z</time>
      </trkpt>
      <trkpt lat="46.76597" lon="1.21457">
        <ele>93.39</ele>
        <time>2011-01-23T13:24:29Z</time>
      </trkpt>
      <trkpt lat="46.76601" lon="1.21457">
        <ele>79.93</ele>
        <time>2011-01-23T13:24:32Z</time>
      </trkpt>
      <trkpt lat="46.76602" lon="1.21457">
        <ele>103</ele>
        <time>2011-01-23T13:24:33Z</time>
      </trkpt>
      <trkpt lat="46.76603" lon="1.21458">
        <ele>98.19</ele>
        <time>2011-01-23T13:24:34Z</time>
      </trkpt>
      <trkpt lat="46.76605" lon="1.21458">
        <ele>95.31</ele>
        <time>2011-01-23T13:24:35Z</time>
      </trkpt>
      <trkpt lat="46.76605" lon="1.21459">
        <ele>96.75</ele>
        <time>2011-01-23T13:24:36Z</time>
      </trkpt>
      <trkpt lat="46.76608" lon="1.2146">
        <ele>92.9</ele>
        <time>2011-01-23T13:24:40Z</time>
      </trkpt>
      <trkpt lat="46.76607" lon="1.21459">
        <ele>93.39</ele>
        <time>2011-01-23T13:24:41Z</time>
      </trkpt>
      <trkpt lat="46.76614" lon="1.21461">
        <ele>96.27</ele>
        <time>2011-01-23T13:24:50Z</time>
      </trkpt>
      <trkpt lat="46.76617" lon="1.21462">
        <ele>84.73</ele>
        <time>2011-01-23T13:24:52Z</time>
      </trkpt>
      <trkpt lat="46.76618" lon="1.21462">
        <ele>97.23</ele>
        <time>2011-01-23T13:24:53Z</time>
      </trkpt>
      <trkpt lat="46.76619" lon="1.21462">
        <ele>92.9</ele>
        <time>2011-01-23T13:24:54Z</time>
      </trkpt>
      <trkpt lat="46.76621" lon="1.21464">
        <ele>97.23</ele>
        <time>2011-01-23T13:24:56Z</time>
      </trkpt>
      <trkpt lat="46.76622" lon="1.21464">
        <ele>96.75</ele>
        <time>2011-01-23T13:24:57Z</time>
      </trkpt>
      <trkpt lat="46.76624" lon="1.21465">
        <ele>101.56</ele>
        <time>2011-01-23T13:24:59Z</time>
      </trkpt>
      <trkpt lat="46.76625" lon="1.21466">
        <ele>97.23</ele>
        <time>2011-01-23T13:25:00Z</time>
      </trkpt>
      <trkpt lat="46.76627" lon="1.21467">
        <ele>92.9</ele>
        <time>2011-01-23T13:25:02Z</time>
      </trkpt>
      <trkpt lat="46.76628" lon="1.21467">
        <ele>97.71</ele>
        <time>2011-01-23T13:25:03Z</time>
      </trkpt>
      <trkpt lat="46.76629" lon="1.21467">
        <ele>97.71</ele>
        <time>2011-01-23T13:25:04Z</time>
      </trkpt>
      <trkpt lat="46.76633" lon="1.21468">
        <ele>94.35</ele>
        <time>2011-01-23T13:25:08Z</time>
      </trkpt>
      <trkpt lat="46.76635" lon="1.21469">
        <ele>90.5</ele>
        <time>2011-01-23T13:25:10Z</time>
      </trkpt>
      <trkpt lat="46.76637" lon="1.2147">
        <ele>96.27</ele>
        <time>2011-01-23T13:25:11Z</time>
      </trkpt>
      <trkpt lat="46.76646" lon="1.21476">
        <ele>96.27</ele>
        <time>2011-01-23T13:25:21Z</time>
      </trkpt>
      <trkpt lat="46.76659" lon="1.21484">
        <ele>83.29</ele>
        <time>2011-01-23T13:25:33Z</time>
      </trkpt>
      <trkpt lat="46.76661" lon="1.21485">
        <ele>109.25</ele>
        <time>2011-01-23T13:25:34Z</time>
      </trkpt>
      <trkpt lat="46.76662" lon="1.21485">
        <ele>95.31</ele>
        <time>2011-01-23T13:25:35Z</time>
      </trkpt>
      <trkpt lat="46.76664" lon="1.21487">
        <ele>95.31</ele>
        <time>2011-01-23T13:25:38Z</time>
      </trkpt>
      <trkpt lat="46.76675" lon="1.21498">
        <ele>97.71</ele>
        <time>2011-01-23T13:25:49Z</time>
      </trkpt>
      <trkpt lat="46.7668" lon="1.21502">
        <ele>95.79</ele>
        <time>2011-01-23T13:25:58Z</time>
      </trkpt>
      <trkpt lat="46.76687" lon="1.21508">
        <ele>96.27</ele>
        <time>2011-01-23T13:26:08Z</time>
      </trkpt>
      <trkpt lat="46.76697" lon="1.2152">
        <ele>95.79</ele>
        <time>2011-01-23T13:26:19Z</time>
      </trkpt>
      <trkpt lat="46.76705" lon="1.21531">
        <ele>97.23</ele>
        <time>2011-01-23T13:26:28Z</time>
      </trkpt>
      <trkpt lat="46.76712" lon="1.21543">
        <ele>96.27</ele>
        <time>2011-01-23T13:26:38Z</time>
      </trkpt>
      <trkpt lat="46.7672" lon="1.21552">
        <ele>96.27</ele>
        <time>2011-01-23T13:26:47Z</time>
      </trkpt>
      <trkpt lat="46.76724" lon="1.21558">
        <ele>95.79</ele>
        <time>2011-01-23T13:26:52Z</time>
      </trkpt>
      <trkpt lat="46.76733" lon="1.21573">
        <ele>95.31</ele>
        <time>2011-01-23T13:27:03Z</time>
      </trkpt>
      <trkpt lat="46.76742" lon="1.21583">
        <ele>95.79</ele>
        <time>2011-01-23T13:27:13Z</time>
      </trkpt>
      <trkpt lat="46.76753" lon="1.21601">
        <ele>94.83</ele>
        <time>2011-01-23T13:27:27Z</time>
      </trkpt>
      <trkpt lat="46.76758" lon="1.2161">
        <ele>99.15</ele>
        <time>2011-01-23T13:27:34Z</time>
      </trkpt>
      <trkpt lat="46.76759" lon="1.21611">
        <ele>96.27</ele>
        <time>2011-01-23T13:27:35Z</time>
      </trkpt>
      <trkpt lat="46.76769" lon="1.21624">
        <ele>94.83</ele>
        <time>2011-01-23T13:27:46Z</time>
      </trkpt>
      <trkpt lat="46.76779" lon="1.21638">
        <ele>93.87</ele>
        <time>2011-01-23T13:27:59Z</time>
      </trkpt>
      <trkpt lat="46.76788" lon="1.21651">
        <ele>93.87</ele>
        <time>2011-01-23T13:28:10Z</time>
      </trkpt>
      <trkpt lat="46.76796" lon="1.21662">
        <ele>93.39</ele>
        <time>2011-01-23T13:28:20Z</time>
      </trkpt>
      <trkpt lat="46.76805" lon="1.21674">
        <ele>92.9</ele>
        <time>2011-01-23T13:28:31Z</time>
      </trkpt>
      <trkpt lat="46.7681" lon="1.21681">
        <ele>92.42</ele>
        <time>2011-01-23T13:28:41Z</time>
      </trkpt>
      <trkpt lat="46.76815" lon="1.21688">
        <ele>92.9</ele>
        <time>2011-01-23T13:28:53Z</time>
      </trkpt>
      <trkpt lat="46.76825" lon="1.21699">
        <ele>92.9</ele>
        <time>2011-01-23T13:29:04Z</time>
      </trkpt>
      <trkpt lat="46.76836" lon="1.21709">
        <ele>92.9</ele>
        <time>2011-01-23T13:29:16Z</time>
      </trkpt>
      <trkpt lat="46.76849" lon="1.21716">
        <ele>92.42</ele>
        <time>2011-01-23T13:29:28Z</time>
      </trkpt>
      <trkpt lat="46.76861" lon="1.21721">
        <ele>92.9</ele>
        <time>2011-01-23T13:29:39Z</time>
      </trkpt>
      <trkpt lat="46.76877" lon="1.21722">
        <ele>92.9</ele>
        <time>2011-01-23T13:29:53Z</time>
      </trkpt>
      <trkpt lat="46.76892" lon="1.21723">
        <ele>92.42</ele>
        <time>2011-01-23T13:30:06Z</time>
      </trkpt>
      <trkpt lat="46.76905" lon="1.21721">
        <ele>93.87</ele>
        <time>2011-01-23T13:30:19Z</time>
      </trkpt>
      <trkpt lat="46.76917" lon="1.2172">
        <ele>89.54</ele>
        <time>2011-01-23T13:30:30Z</time>
      </trkpt>
      <trkpt lat="46.76918" lon="1.21719">
        <ele>90.5</ele>
        <time>2011-01-23T13:30:31Z</time>
      </trkpt>
      <trkpt lat="46.76919" lon="1.21719">
        <ele>94.83</ele>
        <time>2011-01-23T13:30:32Z</time>
      </trkpt>
      <trkpt lat="46.76921" lon="1.21719">
        <ele>93.39</ele>
        <time>2011-01-23T13:30:33Z</time>
      </trkpt>
      <trkpt lat="46.76936" lon="1.21717">
        <ele>93.39</ele>
        <time>2011-01-23T13:30:48Z</time>
      </trkpt>
      <trkpt lat="46.7695" lon="1.21715">
        <ele>93.39</ele>
        <time>2011-01-23T13:31:02Z</time>
      </trkpt>
      <trkpt lat="46.76951" lon="1.21714">
        <ele>93.39</ele>
        <time>2011-01-23T13:31:16Z</time>
      </trkpt>
      <trkpt lat="46.76951" lon="1.21714">
        <ele>92.9</ele>
        <time>2011-01-23T13:31:36Z</time>
      </trkpt>
      <trkpt lat="46.76951" lon="1.21714">
        <ele>93.87</ele>
        <time>2011-01-23T13:32:01Z</time>
      </trkpt>
      <trkpt lat="46.76951" lon="1.21714">
        <ele>95.79</ele>
        <time>2011-01-23T13:32:16Z</time>
      </trkpt>
      <trkpt lat="46.76951" lon="1.21714">
        <ele>91.46</ele>
        <time>2011-01-23T13:32:17Z</time>
      </trkpt>
      <trkpt lat="46.76951" lon="1.21714">
        <ele>92.9</ele>
        <time>2011-01-23T13:32:18Z</time>
      </trkpt>
      <trkpt lat="46.76951" lon="1.21714">
        <ele>94.35</ele>
        <time>2011-01-23T13:32:20Z</time>
      </trkpt>
      <trkpt lat="46.76951" lon="1.21714">
        <ele>93.87</ele>
        <time>2011-01-23T13:32:25Z</time>
      </trkpt>
      <trkpt lat="46.76951" lon="1.21714">
        <ele>94.83</ele>
        <time>2011-01-23T13:32:27Z</time>
      </trkpt>
      <trkpt lat="46.76951" lon="1.21714">
        <ele>93.87</ele>
        <time>2011-01-23T13:32:29Z</time>
      </trkpt>
      <trkpt lat="46.76953" lon="1.21711">
        <ele>93.87</ele>
        <time>2011-01-23T13:32:50Z</time>
      </trkpt>
      <trkpt lat="46.76953" lon="1.2171">
        <ele>93.87</ele>
        <time>2011-01-23T13:32:51Z</time>
      </trkpt>
      <trkpt lat="46.76954" lon="1.21706">
        <ele>83.77</ele>
        <time>2011-01-23T13:32:54Z</time>
      </trkpt>
      <trkpt lat="46.76955" lon="1.21705">
        <ele>90.02</ele>
        <time>2011-01-23T13:32:55Z</time>
      </trkpt>
      <trkpt lat="46.76955" lon="1.21703">
        <ele>97.23</ele>
        <time>2011-01-23T13:32:56Z</time>
      </trkpt>
      <trkpt lat="46.76956" lon="1.21703">
        <ele>95.31</ele>
        <time>2011-01-23T13:32:57Z</time>
      </trkpt>
      <trkpt lat="46.76957" lon="1.21701">
        <ele>93.39</ele>
        <time>2011-01-23T13:32:59Z</time>
      </trkpt>
      <trkpt lat="46.76963" lon="1.2169">
        <ele>92.9</ele>
        <time>2011-01-23T13:33:10Z</time>
      </trkpt>
      <trkpt lat="46.76964" lon="1.21689">
        <ele>93.39</ele>
        <time>2011-01-23T13:33:11Z</time>
      </trkpt>
      <trkpt lat="46.76967" lon="1.21684">
        <ele>93.39</ele>
        <time>2011-01-23T13:33:15Z</time>
      </trkpt>
      <trkpt lat="46.76971" lon="1.21671">
        <ele>92.9</ele>
        <time>2011-01-23T13:33:25Z</time>
      </trkpt>
      <trkpt lat="46.76975" lon="1.21665">
        <ele>93.39</ele>
        <time>2011-01-23T13:33:29Z</time>
      </trkpt>
      <trkpt lat="46.76976" lon="1.21663">
        <ele>80.89</ele>
        <time>2011-01-23T13:33:31Z</time>
      </trkpt>
      <trkpt lat="46.76977" lon="1.21662">
        <ele>95.79</ele>
        <time>2011-01-23T13:33:32Z</time>
      </trkpt>
      <trkpt lat="46.76978" lon="1.21662">
        <ele>90.98</ele>
        <time>2011-01-23T13:33:33Z</time>
      </trkpt>
      <trkpt lat="46.76978" lon="1.21662">
        <ele>94.35</ele>
        <time>2011-01-23T13:33:34Z</time>
      </trkpt>
      <trkpt lat="46.76978" lon="1.21662">
        <ele>93.39</ele>
        <time>2011-01-23T13:33:44Z</time>
      </trkpt>
      <trkpt lat="46.76979" lon="1.21658">
        <ele>92.9</ele>
        <time>2011-01-23T13:34:07Z</time>
      </trkpt>
      <trkpt lat="46.76985" lon="1.21649">
        <ele>93.39</ele>
        <time>2011-01-23T13:34:16Z</time>
      </trkpt>
      <trkpt lat="46.76993" lon="1.21633">
        <ele>92.9</ele>
        <time>2011-01-23T13:34:26Z</time>
      </trkpt>
      <trkpt lat="46.76994" lon="1.21629">
        <ele>92.9</ele>
        <time>2011-01-23T13:34:29Z</time>
      </trkpt>
      <trkpt lat="46.77" lon="1.21617">
        <ele>93.39</ele>
        <time>2011-01-23T13:34:40Z</time>
      </trkpt>
      <trkpt lat="46.77007" lon="1.21607">
        <ele>93.39</ele>
        <time>2011-01-23T13:34:48Z</time>
      </trkpt>
      <trkpt lat="46.77013" lon="1.21595">
        <ele>93.39</ele>
        <time>2011-01-23T13:34:58Z</time>
      </trkpt>
      <trkpt lat="46.77016" lon="1.21589">
        <ele>80.89</ele>
        <time>2011-01-23T13:35:03Z</time>
      </trkpt>
      <trkpt lat="46.77017" lon="1.21587">
        <ele>101.56</ele>
        <time>2011-01-23T13:35:04Z</time>
      </trkpt>
      <trkpt lat="46.77018" lon="1.21586">
        <ele>93.87</ele>
        <time>2011-01-23T13:35:05Z</time>
      </trkpt>
      <trkpt lat="46.77021" lon="1.21579">
        <ele>93.39</ele>
        <time>2011-01-23T13:35:14Z</time>
      </trkpt>
      <trkpt lat="46.77026" lon="1.21571">
        <ele>93.87</ele>
        <time>2011-01-23T13:35:20Z</time>
      </trkpt>
      <trkpt lat="46.77031" lon="1.21561">
        <ele>94.35</ele>
        <time>2011-01-23T13:35:31Z</time>
      </trkpt>
      <trkpt lat="46.77038" lon="1.21547">
        <ele>94.35</ele>
        <time>2011-01-23T13:35:43Z</time>
      </trkpt>
      <trkpt lat="46.77045" lon="1.21536">
        <ele>94.35</ele>
        <time>2011-01-23T13:35:52Z</time>
      </trkpt>
      <trkpt lat="46.77049" lon="1.21526">
        <ele>94.83</ele>
        <time>2011-01-23T13:36:01Z</time>
      </trkpt>
      <trkpt lat="46.77057" lon="1.21515">
        <ele>94.35</ele>
        <time>2011-01-23T13:36:12Z</time>
      </trkpt>
      <trkpt lat="46.77062" lon="1.21503">
        <ele>93.39</ele>
        <time>2011-01-23T13:36:23Z</time>
      </trkpt>
      <trkpt lat="46.77064" lon="1.21502">
        <ele>94.35</ele>
        <time>2011-01-23T13:36:26Z</time>
      </trkpt>
      <trkpt lat="46.77067" lon="1.215">
        <ele>94.35</ele>
        <time>2011-01-23T13:36:37Z</time>
      </trkpt>
      <trkpt lat="46.77066" lon="1.215">
        <ele>94.83</ele>
        <time>2011-01-23T13:36:47Z</time>
      </trkpt>
      <trkpt lat="46.77065" lon="1.21497">
        <ele>94.83</ele>
        <time>2011-01-23T13:36:49Z</time>
      </trkpt>
      <trkpt lat="46.7706" lon="1.21491">
        <ele>94.35</ele>
        <time>2011-01-23T13:36:59Z</time>
      </trkpt>
      <trkpt lat="46.77056" lon="1.21478">
        <ele>95.31</ele>
        <time>2011-01-23T13:37:07Z</time>
      </trkpt>
      <trkpt lat="46.7705" lon="1.2147">
        <ele>95.31</ele>
        <time>2011-01-23T13:37:15Z</time>
      </trkpt>
      <trkpt lat="46.77045" lon="1.21459">
        <ele>95.31</ele>
        <time>2011-01-23T13:37:23Z</time>
      </trkpt>
      <trkpt lat="46.77044" lon="1.21455">
        <ele>94.83</ele>
        <time>2011-01-23T13:37:25Z</time>
      </trkpt>
      <trkpt lat="46.77039" lon="1.21451">
        <ele>94.83</ele>
        <time>2011-01-23T13:37:32Z</time>
      </trkpt>
      <trkpt lat="46.77033" lon="1.21439">
        <ele>95.31</ele>
        <time>2011-01-23T13:37:42Z</time>
      </trkpt>
      <trkpt lat="46.77029" lon="1.21431">
        <ele>95.31</ele>
        <time>2011-01-23T13:37:47Z</time>
      </trkpt>
      <trkpt lat="46.77025" lon="1.21427">
        <ele>94.83</ele>
        <time>2011-01-23T13:37:53Z</time>
      </trkpt>
      <trkpt lat="46.77021" lon="1.21412">
        <ele>95.31</ele>
        <time>2011-01-23T13:38:02Z</time>
      </trkpt>
      <trkpt lat="46.77018" lon="1.21396">
        <ele>94.83</ele>
        <time>2011-01-23T13:38:12Z</time>
      </trkpt>
      <trkpt lat="46.77018" lon="1.21391">
        <ele>94.83</ele>
        <time>2011-01-23T13:38:16Z</time>
      </trkpt>
      <trkpt lat="46.77019" lon="1.21382">
        <ele>94.83</ele>
        <time>2011-01-23T13:38:22Z</time>
      </trkpt>
      <trkpt lat="46.77019" lon="1.21376">
        <ele>94.83</ele>
        <time>2011-01-23T13:38:26Z</time>
      </trkpt>
      <trkpt lat="46.77019" lon="1.21361">
        <ele>94.83</ele>
        <time>2011-01-23T13:38:36Z</time>
      </trkpt>
      <trkpt lat="46.77021" lon="1.21344">
        <ele>94.83</ele>
        <time>2011-01-23T13:38:46Z</time>
      </trkpt>
      <trkpt lat="46.7702" lon="1.21335">
        <ele>93.87</ele>
        <time>2011-01-23T13:38:52Z</time>
      </trkpt>
      <trkpt lat="46.77021" lon="1.21332">
        <ele>97.71</ele>
        <time>2011-01-23T13:38:54Z</time>
      </trkpt>
      <trkpt lat="46.77022" lon="1.2133">
        <ele>91.94</ele>
        <time>2011-01-23T13:38:55Z</time>
      </trkpt>
      <trkpt lat="46.77023" lon="1.21329">
        <ele>96.27</ele>
        <time>2011-01-23T13:38:56Z</time>
      </trkpt>
      <trkpt lat="46.77021" lon="1.21321">
        <ele>95.79</ele>
        <time>2011-01-23T13:39:03Z</time>
      </trkpt>
      <trkpt lat="46.77021" lon="1.21318">
        <ele>94.83</ele>
        <time>2011-01-23T13:39:05Z</time>
      </trkpt>
      <trkpt lat="46.77022" lon="1.21302">
        <ele>94.83</ele>
        <time>2011-01-23T13:39:16Z</time>
      </trkpt>
      <trkpt lat="46.77022" lon="1.21295">
        <ele>93.39</ele>
        <time>2011-01-23T13:39:22Z</time>
      </trkpt>
      <trkpt lat="46.77022" lon="1.21285">
        <ele>94.35</ele>
        <time>2011-01-23T13:39:29Z</time>
      </trkpt>
      <trkpt lat="46.77025" lon="1.21273">
        <ele>94.35</ele>
        <time>2011-01-23T13:39:38Z</time>
      </trkpt>
      <trkpt lat="46.77025" lon="1.21267">
        <ele>94.83</ele>
        <time>2011-01-23T13:39:44Z</time>
      </trkpt>
      <trkpt lat="46.77025" lon="1.21257">
        <ele>95.31</ele>
        <time>2011-01-23T13:39:49Z</time>
      </trkpt>
      <trkpt lat="46.77026" lon="1.21239">
        <ele>97.23</ele>
        <time>2011-01-23T13:40:02Z</time>
      </trkpt>
      <trkpt lat="46.77027" lon="1.21233">
        <ele>97.71</ele>
        <time>2011-01-23T13:40:07Z</time>
      </trkpt>
      <trkpt lat="46.77027" lon="1.21232">
        <ele>92.9</ele>
        <time>2011-01-23T13:40:08Z</time>
      </trkpt>
      <trkpt lat="46.77028" lon="1.21227">
        <ele>96.27</ele>
        <time>2011-01-23T13:40:11Z</time>
      </trkpt>
      <trkpt lat="46.77028" lon="1.21226">
        <ele>95.79</ele>
        <time>2011-01-23T13:40:12Z</time>
      </trkpt>
      <trkpt lat="46.77028" lon="1.21224">
        <ele>92.42</ele>
        <time>2011-01-23T13:40:13Z</time>
      </trkpt>
      <trkpt lat="46.77028" lon="1.21223">
        <ele>96.75</ele>
        <time>2011-01-23T13:40:14Z</time>
      </trkpt>
      <trkpt lat="46.7703" lon="1.21206">
        <ele>96.75</ele>
        <time>2011-01-23T13:40:26Z</time>
      </trkpt>
      <trkpt lat="46.7703" lon="1.21199">
        <ele>93.39</ele>
        <time>2011-01-23T13:40:31Z</time>
      </trkpt>
      <trkpt lat="46.7703" lon="1.21197">
        <ele>97.23</ele>
        <time>2011-01-23T13:40:32Z</time>
      </trkpt>
      <trkpt lat="46.7703" lon="1.21196">
        <ele>95.79</ele>
        <time>2011-01-23T13:40:33Z</time>
      </trkpt>
      <trkpt lat="46.77031" lon="1.21181">
        <ele>95.79</ele>
        <time>2011-01-23T13:40:45Z</time>
      </trkpt>
      <trkpt lat="46.77031" lon="1.21175">
        <ele>95.79</ele>
        <time>2011-01-23T13:40:49Z</time>
      </trkpt>
      <trkpt lat="46.77031" lon="1.21171">
        <ele>95.79</ele>
        <time>2011-01-23T13:40:52Z</time>
      </trkpt>
      <trkpt lat="46.77031" lon="1.21161">
        <ele>94.83</ele>
        <time>2011-01-23T13:40:58Z</time>
      </trkpt>
      <trkpt lat="46.77032" lon="1.21147">
        <ele>95.31</ele>
        <time>2011-01-23T13:41:08Z</time>
      </trkpt>
      <trkpt lat="46.77034" lon="1.21129">
        <ele>95.79</ele>
        <time>2011-01-23T13:41:18Z</time>
      </trkpt>
      <trkpt lat="46.77036" lon="1.21119">
        <ele>95.79</ele>
        <time>2011-01-23T13:41:26Z</time>
      </trkpt>
      <trkpt lat="46.77034" lon="1.21108">
        <ele>95.79</ele>
        <time>2011-01-23T13:41:35Z</time>
      </trkpt>
      <trkpt lat="46.77036" lon="1.21091">
        <ele>95.79</ele>
        <time>2011-01-23T13:41:47Z</time>
      </trkpt>
      <trkpt lat="46.77037" lon="1.21082">
        <ele>96.27</ele>
        <time>2011-01-23T13:41:53Z</time>
      </trkpt>
      <trkpt lat="46.77037" lon="1.21078">
        <ele>96.27</ele>
        <time>2011-01-23T13:41:55Z</time>
      </trkpt>
      <trkpt lat="46.77038" lon="1.21061">
        <ele>96.75</ele>
        <time>2011-01-23T13:42:06Z</time>
      </trkpt>
      <trkpt lat="46.77038" lon="1.21057">
        <ele>97.23</ele>
        <time>2011-01-23T13:42:18Z</time>
      </trkpt>
      <trkpt lat="46.77038" lon="1.21057">
        <ele>96.27</ele>
        <time>2011-01-23T13:42:46Z</time>
      </trkpt>
      <trkpt lat="46.77038" lon="1.21057">
        <ele>96.27</ele>
        <time>2011-01-23T13:43:14Z</time>
      </trkpt>
      <trkpt lat="46.77038" lon="1.21058">
        <ele>96.75</ele>
        <time>2011-01-23T13:43:43Z</time>
      </trkpt>
      <trkpt lat="46.77038" lon="1.21058">
        <ele>96.27</ele>
        <time>2011-01-23T13:44:06Z</time>
      </trkpt>
      <trkpt lat="46.77038" lon="1.2104">
        <ele>97.23</ele>
        <time>2011-01-23T13:44:17Z</time>
      </trkpt>
      <trkpt lat="46.77039" lon="1.21025">
        <ele>96.75</ele>
        <time>2011-01-23T13:44:28Z</time>
      </trkpt>
      <trkpt lat="46.7704" lon="1.21021">
        <ele>97.71</ele>
        <time>2011-01-23T13:44:44Z</time>
      </trkpt>
      <trkpt lat="46.77041" lon="1.2101">
        <ele>94.35</ele>
        <time>2011-01-23T13:44:52Z</time>
      </trkpt>
      <trkpt lat="46.77041" lon="1.21008">
        <ele>98.67</ele>
        <time>2011-01-23T13:44:53Z</time>
      </trkpt>
      <trkpt lat="46.77042" lon="1.20987">
        <ele>97.71</ele>
        <time>2011-01-23T13:45:07Z</time>
      </trkpt>
      <trkpt lat="46.77044" lon="1.20971">
        <ele>97.71</ele>
        <time>2011-01-23T13:45:18Z</time>
      </trkpt>
      <trkpt lat="46.77044" lon="1.20964">
        <ele>98.19</ele>
        <time>2011-01-23T13:45:28Z</time>
      </trkpt>
      <trkpt lat="46.77044" lon="1.20964">
        <ele>97.71</ele>
        <time>2011-01-23T13:45:55Z</time>
      </trkpt>
      <trkpt lat="46.77044" lon="1.20965">
        <ele>99.15</ele>
        <time>2011-01-23T13:46:07Z</time>
      </trkpt>
      <trkpt lat="46.77044" lon="1.20962">
        <ele>95.31</ele>
        <time>2011-01-23T13:46:24Z</time>
      </trkpt>
      <trkpt lat="46.77044" lon="1.20961">
        <ele>98.19</ele>
        <time>2011-01-23T13:46:25Z</time>
      </trkpt>
      <trkpt lat="46.77044" lon="1.20948">
        <ele>102.04</ele>
        <time>2011-01-23T13:46:33Z</time>
      </trkpt>
      <trkpt lat="46.77044" lon="1.20947">
        <ele>98.19</ele>
        <time>2011-01-23T13:46:34Z</time>
      </trkpt>
      <trkpt lat="46.77047" lon="1.2093">
        <ele>97.23</ele>
        <time>2011-01-23T13:46:45Z</time>
      </trkpt>
      <trkpt lat="46.77047" lon="1.2092">
        <ele>98.19</ele>
        <time>2011-01-23T13:46:52Z</time>
      </trkpt>
      <trkpt lat="46.77046" lon="1.20913">
        <ele>97.23</ele>
        <time>2011-01-23T13:46:57Z</time>
      </trkpt>
      <trkpt lat="46.77047" lon="1.20893">
        <ele>96.75</ele>
        <time>2011-01-23T13:47:10Z</time>
      </trkpt>
      <trkpt lat="46.77048" lon="1.20891">
        <ele>97.23</ele>
        <time>2011-01-23T13:47:11Z</time>
      </trkpt>
      <trkpt lat="46.77047" lon="1.20875">
        <ele>97.23</ele>
        <time>2011-01-23T13:47:21Z</time>
      </trkpt>
      <trkpt lat="46.77045" lon="1.20868">
        <ele>97.23</ele>
        <time>2011-01-23T13:47:38Z</time>
      </trkpt>
      <trkpt lat="46.77045" lon="1.20864">
        <ele>97.71</ele>
        <time>2011-01-23T13:47:59Z</time>
      </trkpt>
      <trkpt lat="46.77045" lon="1.20862">
        <ele>97.71</ele>
        <time>2011-01-23T13:48:04Z</time>
      </trkpt>
      <trkpt lat="46.77044" lon="1.20845">
        <ele>96.27</ele>
        <time>2011-01-23T13:48:16Z</time>
      </trkpt>
      <trkpt lat="46.77043" lon="1.2083">
        <ele>99.15</ele>
        <time>2011-01-23T13:48:26Z</time>
      </trkpt>
      <trkpt lat="46.77042" lon="1.20829">
        <ele>97.71</ele>
        <time>2011-01-23T13:48:27Z</time>
      </trkpt>
      <trkpt lat="46.77039" lon="1.2081">
        <ele>97.71</ele>
        <time>2011-01-23T13:48:39Z</time>
      </trkpt>
      <trkpt lat="46.77035" lon="1.2079">
        <ele>97.71</ele>
        <time>2011-01-23T13:48:52Z</time>
      </trkpt>
      <trkpt lat="46.77034" lon="1.20776">
        <ele>94.83</ele>
        <time>2011-01-23T13:49:02Z</time>
      </trkpt>
      <trkpt lat="46.77034" lon="1.20774">
        <ele>97.71</ele>
        <time>2011-01-23T13:49:03Z</time>
      </trkpt>
      <trkpt lat="46.77032" lon="1.20762">
        <ele>95.79</ele>
        <time>2011-01-23T13:49:13Z</time>
      </trkpt>
      <trkpt lat="46.77029" lon="1.20745">
        <ele>95.79</ele>
        <time>2011-01-23T13:49:24Z</time>
      </trkpt>
      <trkpt lat="46.77029" lon="1.20742">
        <ele>95.79</ele>
        <time>2011-01-23T13:49:26Z</time>
      </trkpt>
      <trkpt lat="46.77028" lon="1.20732">
        <ele>95.79</ele>
        <time>2011-01-23T13:49:32Z</time>
      </trkpt>
      <trkpt lat="46.77026" lon="1.20726">
        <ele>96.27</ele>
        <time>2011-01-23T13:49:36Z</time>
      </trkpt>
      <trkpt lat="46.77025" lon="1.2072">
        <ele>97.71</ele>
        <time>2011-01-23T13:49:39Z</time>
      </trkpt>
      <trkpt lat="46.77024" lon="1.20714">
        <ele>95.79</ele>
        <time>2011-01-23T13:49:51Z</time>
      </trkpt>
      <trkpt lat="46.77024" lon="1.20713">
        <ele>96.27</ele>
        <time>2011-01-23T13:50:07Z</time>
      </trkpt>
      <trkpt lat="46.77023" lon="1.20709">
        <ele>95.79</ele>
        <time>2011-01-23T13:50:18Z</time>
      </trkpt>
      <trkpt lat="46.77022" lon="1.20691">
        <ele>95.79</ele>
        <time>2011-01-23T13:50:29Z</time>
      </trkpt>
      <trkpt lat="46.77021" lon="1.20675">
        <ele>96.27</ele>
        <time>2011-01-23T13:50:39Z</time>
      </trkpt>
      <trkpt lat="46.77019" lon="1.20659">
        <ele>96.27</ele>
        <time>2011-01-23T13:50:48Z</time>
      </trkpt>
      <trkpt lat="46.77018" lon="1.20654">
        <ele>95.79</ele>
        <time>2011-01-23T13:50:54Z</time>
      </trkpt>
      <trkpt lat="46.77015" lon="1.20646">
        <ele>96.27</ele>
        <time>2011-01-23T13:51:01Z</time>
      </trkpt>
      <trkpt lat="46.77013" lon="1.20638">
        <ele>95.79</ele>
        <time>2011-01-23T13:51:06Z</time>
      </trkpt>
      <trkpt lat="46.77013" lon="1.20624">
        <ele>95.31</ele>
        <time>2011-01-23T13:51:16Z</time>
      </trkpt>
      <trkpt lat="46.77012" lon="1.20619">
        <ele>95.79</ele>
        <time>2011-01-23T13:51:19Z</time>
      </trkpt>
      <trkpt lat="46.7701" lon="1.20603">
        <ele>96.27</ele>
        <time>2011-01-23T13:51:30Z</time>
      </trkpt>
      <trkpt lat="46.77009" lon="1.20598">
        <ele>95.79</ele>
        <time>2011-01-23T13:51:33Z</time>
      </trkpt>
      <trkpt lat="46.77007" lon="1.20582">
        <ele>95.79</ele>
        <time>2011-01-23T13:51:43Z</time>
      </trkpt>
      <trkpt lat="46.77006" lon="1.20577">
        <ele>95.79</ele>
        <time>2011-01-23T13:51:47Z</time>
      </trkpt>
      <trkpt lat="46.77005" lon="1.20574">
        <ele>95.79</ele>
        <time>2011-01-23T13:51:50Z</time>
      </trkpt>
      <trkpt lat="46.77004" lon="1.20562">
        <ele>95.31</ele>
        <time>2011-01-23T13:51:56Z</time>
      </trkpt>
      <trkpt lat="46.77004" lon="1.20555">
        <ele>95.31</ele>
        <time>2011-01-23T13:52:00Z</time>
      </trkpt>
      <trkpt lat="46.77001" lon="1.20538">
        <ele>95.79</ele>
        <time>2011-01-23T13:52:11Z</time>
      </trkpt>
      <trkpt lat="46.77" lon="1.20533">
        <ele>95.31</ele>
        <time>2011-01-23T13:52:15Z</time>
      </trkpt>
      <trkpt lat="46.77" lon="1.20527">
        <ele>95.31</ele>
        <time>2011-01-23T13:52:28Z</time>
      </trkpt>
      <trkpt lat="46.77001" lon="1.20527">
        <ele>95.79</ele>
        <time>2011-01-23T13:52:42Z</time>
      </trkpt>
      <trkpt lat="46.76996" lon="1.20526">
        <ele>95.79</ele>
        <time>2011-01-23T13:52:51Z</time>
      </trkpt>
      <trkpt lat="46.76997" lon="1.20527">
        <ele>96.75</ele>
        <time>2011-01-23T13:53:07Z</time>
      </trkpt>
      <trkpt lat="46.76999" lon="1.20527">
        <ele>95.31</ele>
        <time>2011-01-23T13:53:09Z</time>
      </trkpt>
      <trkpt lat="46.77008" lon="1.20523">
        <ele>94.83</ele>
        <time>2011-01-23T13:53:21Z</time>
      </trkpt>
      <trkpt lat="46.77019" lon="1.20521">
        <ele>95.79</ele>
        <time>2011-01-23T13:53:32Z</time>
      </trkpt>
      <trkpt lat="46.77033" lon="1.20514">
        <ele>96.27</ele>
        <time>2011-01-23T13:53:46Z</time>
      </trkpt>
      <trkpt lat="46.77044" lon="1.2051">
        <ele>95.79</ele>
        <time>2011-01-23T13:53:57Z</time>
      </trkpt>
      <trkpt lat="46.77056" lon="1.20507">
        <ele>95.31</ele>
        <time>2011-01-23T13:54:10Z</time>
      </trkpt>
      <trkpt lat="46.77066" lon="1.20505">
        <ele>96.27</ele>
        <time>2011-01-23T13:54:21Z</time>
      </trkpt>
      <trkpt lat="46.77079" lon="1.205">
        <ele>96.27</ele>
        <time>2011-01-23T13:54:34Z</time>
      </trkpt>
      <trkpt lat="46.77091" lon="1.20498">
        <ele>96.75</ele>
        <time>2011-01-23T13:54:46Z</time>
      </trkpt>
      <trkpt lat="46.77102" lon="1.20498">
        <ele>96.27</ele>
        <time>2011-01-23T13:54:58Z</time>
      </trkpt>
      <trkpt lat="46.77112" lon="1.20496">
        <ele>96.27</ele>
        <time>2011-01-23T13:55:08Z</time>
      </trkpt>
      <trkpt lat="46.77126" lon="1.2049">
        <ele>96.27</ele>
        <time>2011-01-23T13:55:21Z</time>
      </trkpt>
      <trkpt lat="46.77131" lon="1.20488">
        <ele>95.79</ele>
        <time>2011-01-23T13:55:28Z</time>
      </trkpt>
      <trkpt lat="46.77146" lon="1.20481">
        <ele>95.79</ele>
        <time>2011-01-23T13:55:41Z</time>
      </trkpt>
      <trkpt lat="46.77156" lon="1.20476">
        <ele>95.31</ele>
        <time>2011-01-23T13:55:53Z</time>
      </trkpt>
      <trkpt lat="46.77172" lon="1.20471">
        <ele>94.35</ele>
        <time>2011-01-23T13:56:06Z</time>
      </trkpt>
      <trkpt lat="46.77188" lon="1.20467">
        <ele>94.35</ele>
        <time>2011-01-23T13:56:18Z</time>
      </trkpt>
      <trkpt lat="46.77195" lon="1.20464">
        <ele>95.31</ele>
        <time>2011-01-23T13:56:24Z</time>
      </trkpt>
      <trkpt lat="46.77206" lon="1.20458">
        <ele>94.83</ele>
        <time>2011-01-23T13:56:35Z</time>
      </trkpt>
      <trkpt lat="46.7721" lon="1.20457">
        <ele>93.87</ele>
        <time>2011-01-23T13:56:39Z</time>
      </trkpt>
      <trkpt lat="46.77222" lon="1.20455">
        <ele>93.87</ele>
        <time>2011-01-23T13:56:51Z</time>
      </trkpt>
      <trkpt lat="46.77224" lon="1.20454">
        <ele>93.87</ele>
        <time>2011-01-23T13:56:52Z</time>
      </trkpt>
      <trkpt lat="46.77238" lon="1.20446">
        <ele>94.35</ele>
        <time>2011-01-23T13:57:04Z</time>
      </trkpt>
      <trkpt lat="46.77247" lon="1.2044">
        <ele>93.39</ele>
        <time>2011-01-23T13:57:14Z</time>
      </trkpt>
      <trkpt lat="46.77259" lon="1.20433">
        <ele>94.35</ele>
        <time>2011-01-23T13:57:24Z</time>
      </trkpt>
      <trkpt lat="46.77265" lon="1.2043">
        <ele>91.46</ele>
        <time>2011-01-23T13:57:29Z</time>
      </trkpt>
      <trkpt lat="46.77266" lon="1.2043">
        <ele>94.35</ele>
        <time>2011-01-23T13:57:30Z</time>
      </trkpt>
      <trkpt lat="46.77268" lon="1.20429">
        <ele>94.35</ele>
        <time>2011-01-23T13:57:31Z</time>
      </trkpt>
      <trkpt lat="46.77275" lon="1.20429">
        <ele>92.42</ele>
        <time>2011-01-23T13:57:41Z</time>
      </trkpt>
      <trkpt lat="46.77285" lon="1.20425">
        <ele>93.39</ele>
        <time>2011-01-23T13:57:52Z</time>
      </trkpt>
      <trkpt lat="46.77298" lon="1.20425">
        <ele>92.9</ele>
        <time>2011-01-23T13:58:04Z</time>
      </trkpt>
      <trkpt lat="46.773" lon="1.20425">
        <ele>91.94</ele>
        <time>2011-01-23T13:58:05Z</time>
      </trkpt>
      <trkpt lat="46.77302" lon="1.20425">
        <ele>95.79</ele>
        <time>2011-01-23T13:58:07Z</time>
      </trkpt>
      <trkpt lat="46.77309" lon="1.20424">
        <ele>93.87</ele>
        <time>2011-01-23T13:58:13Z</time>
      </trkpt>
      <trkpt lat="46.77322" lon="1.2042">
        <ele>92.42</ele>
        <time>2011-01-23T13:58:25Z</time>
      </trkpt>
      <trkpt lat="46.77332" lon="1.20416">
        <ele>92.42</ele>
        <time>2011-01-23T13:58:36Z</time>
      </trkpt>
      <trkpt lat="46.77343" lon="1.20408">
        <ele>91.94</ele>
        <time>2011-01-23T13:58:48Z</time>
      </trkpt>
      <trkpt lat="46.77348" lon="1.20406">
        <ele>92.9</ele>
        <time>2011-01-23T13:58:53Z</time>
      </trkpt>
      <trkpt lat="46.7735" lon="1.20405">
        <ele>93.39</ele>
        <time>2011-01-23T13:58:55Z</time>
      </trkpt>
      <trkpt lat="46.77357" lon="1.20403">
        <ele>92.9</ele>
        <time>2011-01-23T13:59:02Z</time>
      </trkpt>
      <trkpt lat="46.77368" lon="1.20399">
        <ele>92.9</ele>
        <time>2011-01-23T13:59:15Z</time>
      </trkpt>
      <trkpt lat="46.77379" lon="1.20395">
        <ele>91.94</ele>
        <time>2011-01-23T13:59:26Z</time>
      </trkpt>
      <trkpt lat="46.77392" lon="1.20393">
        <ele>92.42</ele>
        <time>2011-01-23T13:59:39Z</time>
      </trkpt>
      <trkpt lat="46.77395" lon="1.20392">
        <ele>91.94</ele>
        <time>2011-01-23T13:59:48Z</time>
      </trkpt>
      <trkpt lat="46.77395" lon="1.20392">
        <ele>87.14</ele>
        <time>2011-01-23T14:00:24Z</time>
      </trkpt>
      <trkpt lat="46.77402" lon="1.2039">
        <ele>92.42</ele>
        <time>2011-01-23T14:00:35Z</time>
      </trkpt>
      <trkpt lat="46.77404" lon="1.20388">
        <ele>91.94</ele>
        <time>2011-01-23T14:00:44Z</time>
      </trkpt>
      <trkpt lat="46.77418" lon="1.20387">
        <ele>91.94</ele>
        <time>2011-01-23T14:00:56Z</time>
      </trkpt>
      <trkpt lat="46.77428" lon="1.20386">
        <ele>92.42</ele>
        <time>2011-01-23T14:01:06Z</time>
      </trkpt>
      <trkpt lat="46.7744" lon="1.20383">
        <ele>92.42</ele>
        <time>2011-01-23T14:01:16Z</time>
      </trkpt>
      <trkpt lat="46.7745" lon="1.2038">
        <ele>91.94</ele>
        <time>2011-01-23T14:01:27Z</time>
      </trkpt>
      <trkpt lat="46.77454" lon="1.20379">
        <ele>91.94</ele>
        <time>2011-01-23T14:01:36Z</time>
      </trkpt>
      <trkpt lat="46.77462" lon="1.20377">
        <ele>92.42</ele>
        <time>2011-01-23T14:01:50Z</time>
      </trkpt>
      <trkpt lat="46.77469" lon="1.20376">
        <ele>91.46</ele>
        <time>2011-01-23T14:01:56Z</time>
      </trkpt>
      <trkpt lat="46.77483" lon="1.20379">
        <ele>92.9</ele>
        <time>2011-01-23T14:02:06Z</time>
      </trkpt>
      <trkpt lat="46.77493" lon="1.20382">
        <ele>93.39</ele>
        <time>2011-01-23T14:02:17Z</time>
      </trkpt>
      <trkpt lat="46.77503" lon="1.20388">
        <ele>92.42</ele>
        <time>2011-01-23T14:02:27Z</time>
      </trkpt>
      <trkpt lat="46.77517" lon="1.20393">
        <ele>90.98</ele>
        <time>2011-01-23T14:02:39Z</time>
      </trkpt>
      <trkpt lat="46.7752" lon="1.20396">
        <ele>92.42</ele>
        <time>2011-01-23T14:02:48Z</time>
      </trkpt>
      <trkpt lat="46.77521" lon="1.20395">
        <ele>91.94</ele>
        <time>2011-01-23T14:02:50Z</time>
      </trkpt>
      <trkpt lat="46.77528" lon="1.20389">
        <ele>91.94</ele>
        <time>2011-01-23T14:03:00Z</time>
      </trkpt>
      <trkpt lat="46.77536" lon="1.2038">
        <ele>92.9</ele>
        <time>2011-01-23T14:03:09Z</time>
      </trkpt>
      <trkpt lat="46.77538" lon="1.20378">
        <ele>90.98</ele>
        <time>2011-01-23T14:03:11Z</time>
      </trkpt>
      <trkpt lat="46.77545" lon="1.20368">
        <ele>91.94</ele>
        <time>2011-01-23T14:03:21Z</time>
      </trkpt>
      <trkpt lat="46.77555" lon="1.20352">
        <ele>92.9</ele>
        <time>2011-01-23T14:03:34Z</time>
      </trkpt>
      <trkpt lat="46.77561" lon="1.20335">
        <ele>92.42</ele>
        <time>2011-01-23T14:03:47Z</time>
      </trkpt>
      <trkpt lat="46.77565" lon="1.20313">
        <ele>92.42</ele>
        <time>2011-01-23T14:04:01Z</time>
      </trkpt>
      <trkpt lat="46.77572" lon="1.20292">
        <ele>92.42</ele>
        <time>2011-01-23T14:04:15Z</time>
      </trkpt>
      <trkpt lat="46.77578" lon="1.2028">
        <ele>91.94</ele>
        <time>2011-01-23T14:04:25Z</time>
      </trkpt>
      <trkpt lat="46.77583" lon="1.20263">
        <ele>91.94</ele>
        <time>2011-01-23T14:04:36Z</time>
      </trkpt>
      <trkpt lat="46.77588" lon="1.20246">
        <ele>92.42</ele>
        <time>2011-01-23T14:04:49Z</time>
      </trkpt>
      <trkpt lat="46.77594" lon="1.20233">
        <ele>91.46</ele>
        <time>2011-01-23T14:05:02Z</time>
      </trkpt>
      <trkpt lat="46.77594" lon="1.20231">
        <ele>91.94</ele>
        <time>2011-01-23T14:05:03Z</time>
      </trkpt>
      <trkpt lat="46.77599" lon="1.20215">
        <ele>92.9</ele>
        <time>2011-01-23T14:05:15Z</time>
      </trkpt>
      <trkpt lat="46.77604" lon="1.20198">
        <ele>92.42</ele>
        <time>2011-01-23T14:05:27Z</time>
      </trkpt>
      <trkpt lat="46.77606" lon="1.20191">
        <ele>91.94</ele>
        <time>2011-01-23T14:05:40Z</time>
      </trkpt>
      <trkpt lat="46.77611" lon="1.2018">
        <ele>90.98</ele>
        <time>2011-01-23T14:05:49Z</time>
      </trkpt>
      <trkpt lat="46.77612" lon="1.20174">
        <ele>92.42</ele>
        <time>2011-01-23T14:05:54Z</time>
      </trkpt>
      <trkpt lat="46.77616" lon="1.20164">
        <ele>92.9</ele>
        <time>2011-01-23T14:06:01Z</time>
      </trkpt>
      <trkpt lat="46.7762" lon="1.20155">
        <ele>91.46</ele>
        <time>2011-01-23T14:06:12Z</time>
      </trkpt>
      <trkpt lat="46.77625" lon="1.20142">
        <ele>91.46</ele>
        <time>2011-01-23T14:06:24Z</time>
      </trkpt>
      <trkpt lat="46.77631" lon="1.20126">
        <ele>92.42</ele>
        <time>2011-01-23T14:06:36Z</time>
      </trkpt>
      <trkpt lat="46.77636" lon="1.20112">
        <ele>91.46</ele>
        <time>2011-01-23T14:06:47Z</time>
      </trkpt>
      <trkpt lat="46.77639" lon="1.20103">
        <ele>89.06</ele>
        <time>2011-01-23T14:07:01Z</time>
      </trkpt>
      <trkpt lat="46.77639" lon="1.20103">
        <ele>92.9</ele>
        <time>2011-01-23T14:07:02Z</time>
      </trkpt>
      <trkpt lat="46.77639" lon="1.20103">
        <ele>90.98</ele>
        <time>2011-01-23T14:07:05Z</time>
      </trkpt>
      <trkpt lat="46.7764" lon="1.20102">
        <ele>91.46</ele>
        <time>2011-01-23T14:07:28Z</time>
      </trkpt>
      <trkpt lat="46.77644" lon="1.20087">
        <ele>92.42</ele>
        <time>2011-01-23T14:07:40Z</time>
      </trkpt>
      <trkpt lat="46.7765" lon="1.20068">
        <ele>91.94</ele>
        <time>2011-01-23T14:07:53Z</time>
      </trkpt>
      <trkpt lat="46.77654" lon="1.20054">
        <ele>92.42</ele>
        <time>2011-01-23T14:08:06Z</time>
      </trkpt>
      <trkpt lat="46.77658" lon="1.20043">
        <ele>91.94</ele>
        <time>2011-01-23T14:08:16Z</time>
      </trkpt>
      <trkpt lat="46.77659" lon="1.2004">
        <ele>92.9</ele>
        <time>2011-01-23T14:08:28Z</time>
      </trkpt>
      <trkpt lat="46.77659" lon="1.2004">
        <ele>92.42</ele>
        <time>2011-01-23T14:08:50Z</time>
      </trkpt>
      <trkpt lat="46.77659" lon="1.20039">
        <ele>91.46</ele>
        <time>2011-01-23T14:09:00Z</time>
      </trkpt>
      <trkpt lat="46.77659" lon="1.20039">
        <ele>91.94</ele>
        <time>2011-01-23T14:09:13Z</time>
      </trkpt>
      <trkpt lat="46.77659" lon="1.20039">
        <ele>91.46</ele>
        <time>2011-01-23T14:09:34Z</time>
      </trkpt>
      <trkpt lat="46.77659" lon="1.20039">
        <ele>91.94</ele>
        <time>2011-01-23T14:09:48Z</time>
      </trkpt>
      <trkpt lat="46.77659" lon="1.20039">
        <ele>90.98</ele>
        <time>2011-01-23T14:10:09Z</time>
      </trkpt>
      <trkpt lat="46.7766" lon="1.20038">
        <ele>90.98</ele>
        <time>2011-01-23T14:10:32Z</time>
      </trkpt>
      <trkpt lat="46.77661" lon="1.20037">
        <ele>90.02</ele>
        <time>2011-01-23T14:10:34Z</time>
      </trkpt>
      <trkpt lat="46.7767" lon="1.20042">
        <ele>92.42</ele>
        <time>2011-01-23T14:10:45Z</time>
      </trkpt>
      <trkpt lat="46.77671" lon="1.20043">
        <ele>91.94</ele>
        <time>2011-01-23T14:10:46Z</time>
      </trkpt>
      <trkpt lat="46.77683" lon="1.20049">
        <ele>90.5</ele>
        <time>2011-01-23T14:11:00Z</time>
      </trkpt>
      <trkpt lat="46.777" lon="1.20057">
        <ele>91.94</ele>
        <time>2011-01-23T14:11:16Z</time>
      </trkpt>
      <trkpt lat="46.77709" lon="1.20059">
        <ele>90.02</ele>
        <time>2011-01-23T14:11:27Z</time>
      </trkpt>
      <trkpt lat="46.77718" lon="1.20065">
        <ele>90.02</ele>
        <time>2011-01-23T14:11:35Z</time>
      </trkpt>
      <trkpt lat="46.77726" lon="1.2007">
        <ele>90.5</ele>
        <time>2011-01-23T14:11:43Z</time>
      </trkpt>
      <trkpt lat="46.77736" lon="1.20076">
        <ele>91.46</ele>
        <time>2011-01-23T14:11:51Z</time>
      </trkpt>
      <trkpt lat="46.77749" lon="1.20079">
        <ele>88.58</ele>
        <time>2011-01-23T14:12:03Z</time>
      </trkpt>
      <trkpt lat="46.7775" lon="1.2008">
        <ele>89.06</ele>
        <time>2011-01-23T14:12:04Z</time>
      </trkpt>
      <trkpt lat="46.7776" lon="1.20083">
        <ele>88.58</ele>
        <time>2011-01-23T14:12:16Z</time>
      </trkpt>
      <trkpt lat="46.77772" lon="1.20086">
        <ele>89.54</ele>
        <time>2011-01-23T14:12:27Z</time>
      </trkpt>
      <trkpt lat="46.77782" lon="1.2009">
        <ele>89.06</ele>
        <time>2011-01-23T14:12:39Z</time>
      </trkpt>
      <trkpt lat="46.77794" lon="1.20094">
        <ele>90.02</ele>
        <time>2011-01-23T14:12:51Z</time>
      </trkpt>
      <trkpt lat="46.77807" lon="1.20096">
        <ele>90.98</ele>
        <time>2011-01-23T14:13:04Z</time>
      </trkpt>
      <trkpt lat="46.7782" lon="1.20098">
        <ele>89.54</ele>
        <time>2011-01-23T14:13:17Z</time>
      </trkpt>
      <trkpt lat="46.77823" lon="1.20098">
        <ele>89.54</ele>
        <time>2011-01-23T14:13:19Z</time>
      </trkpt>
      <trkpt lat="46.77826" lon="1.20097">
        <ele>90.02</ele>
        <time>2011-01-23T14:13:32Z</time>
      </trkpt>
      <trkpt lat="46.77832" lon="1.201">
        <ele>90.02</ele>
        <time>2011-01-23T14:13:39Z</time>
      </trkpt>
      <trkpt lat="46.77836" lon="1.20101">
        <ele>89.06</ele>
        <time>2011-01-23T14:13:43Z</time>
      </trkpt>
      <trkpt lat="46.7785" lon="1.20102">
        <ele>89.54</ele>
        <time>2011-01-23T14:13:56Z</time>
      </trkpt>
      <trkpt lat="46.77856" lon="1.20101">
        <ele>90.02</ele>
        <time>2011-01-23T14:14:07Z</time>
      </trkpt>
      <trkpt lat="46.77856" lon="1.20101">
        <ele>89.54</ele>
        <time>2011-01-23T14:14:32Z</time>
      </trkpt>
      <trkpt lat="46.77856" lon="1.20101">
        <ele>90.5</ele>
        <time>2011-01-23T14:14:53Z</time>
      </trkpt>
      <trkpt lat="46.77856" lon="1.20101">
        <ele>90.02</ele>
        <time>2011-01-23T14:15:20Z</time>
      </trkpt>
      <trkpt lat="46.77856" lon="1.20101">
        <ele>90.02</ele>
        <time>2011-01-23T14:15:45Z</time>
      </trkpt>
      <trkpt lat="46.77856" lon="1.20101">
        <ele>90.02</ele>
        <time>2011-01-23T14:16:13Z</time>
      </trkpt>
      <trkpt lat="46.77856" lon="1.20099">
        <ele>89.54</ele>
        <time>2011-01-23T14:16:22Z</time>
      </trkpt>
      <trkpt lat="46.7786" lon="1.20094">
        <ele>89.54</ele>
        <time>2011-01-23T14:16:28Z</time>
      </trkpt>
      <trkpt lat="46.77869" lon="1.20077">
        <ele>89.54</ele>
        <time>2011-01-23T14:16:40Z</time>
      </trkpt>
      <trkpt lat="46.77877" lon="1.20062">
        <ele>90.02</ele>
        <time>2011-01-23T14:16:51Z</time>
      </trkpt>
      <trkpt lat="46.77887" lon="1.20043">
        <ele>90.98</ele>
        <time>2011-01-23T14:17:06Z</time>
      </trkpt>
      <trkpt lat="46.77893" lon="1.2003">
        <ele>90.98</ele>
        <time>2011-01-23T14:17:16Z</time>
      </trkpt>
      <trkpt lat="46.77902" lon="1.20012">
        <ele>89.54</ele>
        <time>2011-01-23T14:17:30Z</time>
      </trkpt>
      <trkpt lat="46.7791" lon="1.19996">
        <ele>89.54</ele>
        <time>2011-01-23T14:17:42Z</time>
      </trkpt>
      <trkpt lat="46.77914" lon="1.19989">
        <ele>90.02</ele>
        <time>2011-01-23T14:17:47Z</time>
      </trkpt>
      <trkpt lat="46.77922" lon="1.19976">
        <ele>89.54</ele>
        <time>2011-01-23T14:17:59Z</time>
      </trkpt>
      <trkpt lat="46.77926" lon="1.19965">
        <ele>89.54</ele>
        <time>2011-01-23T14:18:07Z</time>
      </trkpt>
      <trkpt lat="46.77929" lon="1.19956">
        <ele>89.54</ele>
        <time>2011-01-23T14:18:13Z</time>
      </trkpt>
      <trkpt lat="46.77937" lon="1.19939">
        <ele>90.02</ele>
        <time>2011-01-23T14:18:25Z</time>
      </trkpt>
      <trkpt lat="46.77938" lon="1.19943">
        <ele>90.02</ele>
        <time>2011-01-23T14:18:33Z</time>
      </trkpt>
      <trkpt lat="46.77938" lon="1.19943">
        <ele>89.54</ele>
        <time>2011-01-23T14:18:50Z</time>
      </trkpt>
      <trkpt lat="46.77938" lon="1.19943">
        <ele>90.02</ele>
        <time>2011-01-23T14:19:06Z</time>
      </trkpt>
      <trkpt lat="46.77937" lon="1.19943">
        <ele>90.98</ele>
        <time>2011-01-23T14:19:18Z</time>
      </trkpt>
      <trkpt lat="46.77937" lon="1.19943">
        <ele>88.58</ele>
        <time>2011-01-23T14:19:38Z</time>
      </trkpt>
      <trkpt lat="46.77937" lon="1.19943">
        <ele>90.02</ele>
        <time>2011-01-23T14:19:40Z</time>
      </trkpt>
      <trkpt lat="46.77939" lon="1.19938">
        <ele>89.54</ele>
        <time>2011-01-23T14:20:04Z</time>
      </trkpt>
      <trkpt lat="46.77941" lon="1.19932">
        <ele>90.5</ele>
        <time>2011-01-23T14:20:07Z</time>
      </trkpt>
      <trkpt lat="46.77945" lon="1.19925">
        <ele>87.62</ele>
        <time>2011-01-23T14:20:13Z</time>
      </trkpt>
      <trkpt lat="46.77947" lon="1.19921">
        <ele>91.46</ele>
        <time>2011-01-23T14:20:16Z</time>
      </trkpt>
      <trkpt lat="46.77957" lon="1.19902">
        <ele>88.1</ele>
        <time>2011-01-23T14:20:31Z</time>
      </trkpt>
      <trkpt lat="46.77965" lon="1.19888">
        <ele>90.02</ele>
        <time>2011-01-23T14:20:42Z</time>
      </trkpt>
      <trkpt lat="46.77971" lon="1.19874">
        <ele>90.02</ele>
        <time>2011-01-23T14:20:53Z</time>
      </trkpt>
      <trkpt lat="46.77977" lon="1.1986">
        <ele>88.58</ele>
        <time>2011-01-23T14:21:04Z</time>
      </trkpt>
      <trkpt lat="46.77985" lon="1.19847">
        <ele>90.02</ele>
        <time>2011-01-23T14:21:14Z</time>
      </trkpt>
      <trkpt lat="46.77991" lon="1.19834">
        <ele>90.02</ele>
        <time>2011-01-23T14:21:24Z</time>
      </trkpt>
      <trkpt lat="46.77994" lon="1.19825">
        <ele>89.54</ele>
        <time>2011-01-23T14:21:31Z</time>
      </trkpt>
      <trkpt lat="46.78001" lon="1.19809">
        <ele>89.54</ele>
        <time>2011-01-23T14:21:44Z</time>
      </trkpt>
      <trkpt lat="46.78004" lon="1.19804">
        <ele>90.5</ele>
        <time>2011-01-23T14:21:48Z</time>
      </trkpt>
      <trkpt lat="46.78015" lon="1.19785">
        <ele>90.5</ele>
        <time>2011-01-23T14:22:01Z</time>
      </trkpt>
      <trkpt lat="46.78021" lon="1.19776">
        <ele>90.5</ele>
        <time>2011-01-23T14:22:08Z</time>
      </trkpt>
      <trkpt lat="46.78028" lon="1.19758">
        <ele>90.02</ele>
        <time>2011-01-23T14:22:21Z</time>
      </trkpt>
      <trkpt lat="46.78035" lon="1.1974">
        <ele>90.02</ele>
        <time>2011-01-23T14:22:33Z</time>
      </trkpt>
      <trkpt lat="46.7804" lon="1.19732">
        <ele>90.02</ele>
        <time>2011-01-23T14:22:39Z</time>
      </trkpt>
      <trkpt lat="46.78046" lon="1.19721">
        <ele>90.02</ele>
        <time>2011-01-23T14:22:47Z</time>
      </trkpt>
      <trkpt lat="46.78055" lon="1.19704">
        <ele>89.54</ele>
        <time>2011-01-23T14:22:59Z</time>
      </trkpt>
      <trkpt lat="46.78057" lon="1.19698">
        <ele>89.54</ele>
        <time>2011-01-23T14:23:09Z</time>
      </trkpt>
      <trkpt lat="46.78056" lon="1.19698">
        <ele>89.54</ele>
        <time>2011-01-23T14:23:22Z</time>
      </trkpt>
      <trkpt lat="46.78062" lon="1.19689">
        <ele>90.98</ele>
        <time>2011-01-23T14:23:34Z</time>
      </trkpt>
      <trkpt lat="46.78066" lon="1.19681">
        <ele>88.1</ele>
        <time>2011-01-23T14:23:41Z</time>
      </trkpt>
      <trkpt lat="46.78072" lon="1.19668">
        <ele>90.02</ele>
        <time>2011-01-23T14:23:51Z</time>
      </trkpt>
      <trkpt lat="46.7808" lon="1.19649">
        <ele>90.02</ele>
        <time>2011-01-23T14:24:05Z</time>
      </trkpt>
      <trkpt lat="46.78081" lon="1.19648">
        <ele>90.02</ele>
        <time>2011-01-23T14:24:06Z</time>
      </trkpt>
      <trkpt lat="46.78086" lon="1.19638">
        <ele>90.02</ele>
        <time>2011-01-23T14:24:18Z</time>
      </trkpt>
      <trkpt lat="46.78091" lon="1.1963">
        <ele>89.54</ele>
        <time>2011-01-23T14:24:32Z</time>
      </trkpt>
      <trkpt lat="46.78098" lon="1.19615">
        <ele>90.98</ele>
        <time>2011-01-23T14:24:43Z</time>
      </trkpt>
      <trkpt lat="46.78105" lon="1.19601">
        <ele>90.98</ele>
        <time>2011-01-23T14:24:54Z</time>
      </trkpt>
      <trkpt lat="46.78112" lon="1.19587">
        <ele>89.54</ele>
        <time>2011-01-23T14:25:07Z</time>
      </trkpt>
      <trkpt lat="46.78114" lon="1.19584">
        <ele>90.5</ele>
        <time>2011-01-23T14:25:15Z</time>
      </trkpt>
      <trkpt lat="46.78122" lon="1.19566">
        <ele>89.06</ele>
        <time>2011-01-23T14:25:27Z</time>
      </trkpt>
      <trkpt lat="46.78128" lon="1.19555">
        <ele>89.06</ele>
        <time>2011-01-23T14:25:38Z</time>
      </trkpt>
      <trkpt lat="46.78132" lon="1.19546">
        <ele>89.06</ele>
        <time>2011-01-23T14:25:45Z</time>
      </trkpt>
      <trkpt lat="46.78132" lon="1.19545">
        <ele>86.18</ele>
        <time>2011-01-23T14:25:50Z</time>
      </trkpt>
      <trkpt lat="46.78132" lon="1.19545">
        <ele>89.54</ele>
        <time>2011-01-23T14:25:51Z</time>
      </trkpt>
      <trkpt lat="46.78127" lon="1.19537">
        <ele>89.54</ele>
        <time>2011-01-23T14:26:01Z</time>
      </trkpt>
      <trkpt lat="46.78125" lon="1.19535">
        <ele>89.06</ele>
        <time>2011-01-23T14:26:03Z</time>
      </trkpt>
      <trkpt lat="46.78116" lon="1.19526">
        <ele>90.02</ele>
        <time>2011-01-23T14:26:13Z</time>
      </trkpt>
      <trkpt lat="46.78111" lon="1.19519">
        <ele>89.06</ele>
        <time>2011-01-23T14:26:21Z</time>
      </trkpt>
      <trkpt lat="46.78099" lon="1.19511">
        <ele>89.06</ele>
        <time>2011-01-23T14:26:32Z</time>
      </trkpt>
      <trkpt lat="46.78091" lon="1.19504">
        <ele>90.98</ele>
        <time>2011-01-23T14:26:41Z</time>
      </trkpt>
      <trkpt lat="46.78087" lon="1.19501">
        <ele>89.54</ele>
        <time>2011-01-23T14:26:44Z</time>
      </trkpt>
      <trkpt lat="46.78081" lon="1.19497">
        <ele>90.5</ele>
        <time>2011-01-23T14:26:50Z</time>
      </trkpt>
      <trkpt lat="46.78082" lon="1.19496">
        <ele>87.62</ele>
        <time>2011-01-23T14:26:59Z</time>
      </trkpt>
      <trkpt lat="46.78082" lon="1.19495">
        <ele>87.62</ele>
        <time>2011-01-23T14:27:16Z</time>
      </trkpt>
      <trkpt lat="46.78082" lon="1.19495">
        <ele>90.98</ele>
        <time>2011-01-23T14:27:17Z</time>
      </trkpt>
      <trkpt lat="46.78082" lon="1.19495">
        <ele>87.62</ele>
        <time>2011-01-23T14:27:21Z</time>
      </trkpt>
      <trkpt lat="46.78082" lon="1.19495">
        <ele>91.46</ele>
        <time>2011-01-23T14:27:22Z</time>
      </trkpt>
      <trkpt lat="46.78082" lon="1.19495">
        <ele>89.06</ele>
        <time>2011-01-23T14:27:25Z</time>
      </trkpt>
      <trkpt lat="46.78081" lon="1.19495">
        <ele>89.54</ele>
        <time>2011-01-23T14:27:37Z</time>
      </trkpt>
      <trkpt lat="46.7808" lon="1.19494">
        <ele>88.58</ele>
        <time>2011-01-23T14:27:49Z</time>
      </trkpt>
      <trkpt lat="46.78079" lon="1.19494">
        <ele>89.06</ele>
        <time>2011-01-23T14:27:51Z</time>
      </trkpt>
      <trkpt lat="46.78069" lon="1.19485">
        <ele>89.06</ele>
        <time>2011-01-23T14:28:02Z</time>
      </trkpt>
      <trkpt lat="46.78062" lon="1.19479">
        <ele>89.54</ele>
        <time>2011-01-23T14:28:09Z</time>
      </trkpt>
      <trkpt lat="46.78052" lon="1.19472">
        <ele>89.54</ele>
        <time>2011-01-23T14:28:19Z</time>
      </trkpt>
      <trkpt lat="46.78047" lon="1.19468">
        <ele>89.06</ele>
        <time>2011-01-23T14:28:24Z</time>
      </trkpt>
      <trkpt lat="46.78037" lon="1.19458">
        <ele>89.54</ele>
        <time>2011-01-23T14:28:34Z</time>
      </trkpt>
      <trkpt lat="46.78032" lon="1.19452">
        <ele>90.5</ele>
        <time>2011-01-23T14:28:46Z</time>
      </trkpt>
      <trkpt lat="46.78029" lon="1.1945">
        <ele>89.54</ele>
        <time>2011-01-23T14:28:54Z</time>
      </trkpt>
      <trkpt lat="46.7802" lon="1.19442">
        <ele>90.02</ele>
        <time>2011-01-23T14:29:05Z</time>
      </trkpt>
      <trkpt lat="46.78014" lon="1.19436">
        <ele>90.5</ele>
        <time>2011-01-23T14:29:15Z</time>
      </trkpt>
      <trkpt lat="46.78009" lon="1.19431">
        <ele>90.02</ele>
        <time>2011-01-23T14:29:27Z</time>
      </trkpt>
      <trkpt lat="46.78009" lon="1.1943">
        <ele>89.54</ele>
        <time>2011-01-23T14:29:29Z</time>
      </trkpt>
      <trkpt lat="46.77998" lon="1.19421">
        <ele>89.54</ele>
        <time>2011-01-23T14:29:40Z</time>
      </trkpt>
      <trkpt lat="46.77994" lon="1.19412">
        <ele>89.06</ele>
        <time>2011-01-23T14:29:48Z</time>
      </trkpt>
      <trkpt lat="46.77992" lon="1.1941">
        <ele>89.54</ele>
        <time>2011-01-23T14:29:50Z</time>
      </trkpt>
      <trkpt lat="46.77989" lon="1.19406">
        <ele>89.54</ele>
        <time>2011-01-23T14:29:53Z</time>
      </trkpt>
      <trkpt lat="46.77983" lon="1.19402">
        <ele>90.02</ele>
        <time>2011-01-23T14:30:00Z</time>
      </trkpt>
      <trkpt lat="46.77977" lon="1.19399">
        <ele>89.54</ele>
        <time>2011-01-23T14:30:06Z</time>
      </trkpt>
      <trkpt lat="46.77972" lon="1.19395">
        <ele>90.02</ele>
        <time>2011-01-23T14:30:11Z</time>
      </trkpt>
      <trkpt lat="46.7797" lon="1.19393">
        <ele>90.02</ele>
        <time>2011-01-23T14:30:13Z</time>
      </trkpt>
      <trkpt lat="46.77968" lon="1.1939">
        <ele>90.02</ele>
        <time>2011-01-23T14:30:16Z</time>
      </trkpt>
      <trkpt lat="46.77965" lon="1.19383">
        <ele>89.54</ele>
        <time>2011-01-23T14:30:21Z</time>
      </trkpt>
      <trkpt lat="46.77963" lon="1.19381">
        <ele>90.5</ele>
        <time>2011-01-23T14:30:25Z</time>
      </trkpt>
      <trkpt lat="46.77957" lon="1.19374">
        <ele>90.02</ele>
        <time>2011-01-23T14:30:32Z</time>
      </trkpt>
      <trkpt lat="46.77951" lon="1.19362">
        <ele>89.06</ele>
        <time>2011-01-23T14:30:41Z</time>
      </trkpt>
      <trkpt lat="46.7795" lon="1.19359">
        <ele>90.5</ele>
        <time>2011-01-23T14:30:43Z</time>
      </trkpt>
      <trkpt lat="46.7795" lon="1.19358">
        <ele>76.08</ele>
        <time>2011-01-23T14:30:44Z</time>
      </trkpt>
      <trkpt lat="46.77949" lon="1.19356">
        <ele>93.87</ele>
        <time>2011-01-23T14:30:45Z</time>
      </trkpt>
      <trkpt lat="46.77948" lon="1.19354">
        <ele>87.62</ele>
        <time>2011-01-23T14:30:48Z</time>
      </trkpt>
      <trkpt lat="46.77947" lon="1.1935">
        <ele>90.02</ele>
        <time>2011-01-23T14:30:51Z</time>
      </trkpt>
      <trkpt lat="46.77937" lon="1.19339">
        <ele>90.02</ele>
        <time>2011-01-23T14:31:00Z</time>
      </trkpt>
      <trkpt lat="46.77927" lon="1.19322">
        <ele>90.02</ele>
        <time>2011-01-23T14:31:12Z</time>
      </trkpt>
      <trkpt lat="46.77916" lon="1.193">
        <ele>90.02</ele>
        <time>2011-01-23T14:31:28Z</time>
      </trkpt>
      <trkpt lat="46.77907" lon="1.19283">
        <ele>90.02</ele>
        <time>2011-01-23T14:31:42Z</time>
      </trkpt>
      <trkpt lat="46.77896" lon="1.19269">
        <ele>89.54</ele>
        <time>2011-01-23T14:31:55Z</time>
      </trkpt>
      <trkpt lat="46.77885" lon="1.19254">
        <ele>90.98</ele>
        <time>2011-01-23T14:32:08Z</time>
      </trkpt>
      <trkpt lat="46.77876" lon="1.1924">
        <ele>90.5</ele>
        <time>2011-01-23T14:32:20Z</time>
      </trkpt>
      <trkpt lat="46.77866" lon="1.19224">
        <ele>90.5</ele>
        <time>2011-01-23T14:32:34Z</time>
      </trkpt>
      <trkpt lat="46.77855" lon="1.19209">
        <ele>90.02</ele>
        <time>2011-01-23T14:32:49Z</time>
      </trkpt>
      <trkpt lat="46.77847" lon="1.19198">
        <ele>90.5</ele>
        <time>2011-01-23T14:33:00Z</time>
      </trkpt>
      <trkpt lat="46.7784" lon="1.19191">
        <ele>90.98</ele>
        <time>2011-01-23T14:33:10Z</time>
      </trkpt>
      <trkpt lat="46.77829" lon="1.19177">
        <ele>90.5</ele>
        <time>2011-01-23T14:33:23Z</time>
      </trkpt>
      <trkpt lat="46.77818" lon="1.19164">
        <ele>90.5</ele>
        <time>2011-01-23T14:33:37Z</time>
      </trkpt>
      <trkpt lat="46.77807" lon="1.19153">
        <ele>90.5</ele>
        <time>2011-01-23T14:33:51Z</time>
      </trkpt>
      <trkpt lat="46.77801" lon="1.19141">
        <ele>90.5</ele>
        <time>2011-01-23T14:34:02Z</time>
      </trkpt>
      <trkpt lat="46.77792" lon="1.19129">
        <ele>90.5</ele>
        <time>2011-01-23T14:34:15Z</time>
      </trkpt>
      <trkpt lat="46.77792" lon="1.19129">
        <ele>89.54</ele>
        <time>2011-01-23T14:34:17Z</time>
      </trkpt>
      <trkpt lat="46.77791" lon="1.19129">
        <ele>91.46</ele>
        <time>2011-01-23T14:34:24Z</time>
      </trkpt>
      <trkpt lat="46.77787" lon="1.19123">
        <ele>87.14</ele>
        <time>2011-01-23T14:34:29Z</time>
      </trkpt>
      <trkpt lat="46.77786" lon="1.19122">
        <ele>97.71</ele>
        <time>2011-01-23T14:34:30Z</time>
      </trkpt>
      <trkpt lat="46.77785" lon="1.1912">
        <ele>92.9</ele>
        <time>2011-01-23T14:34:32Z</time>
      </trkpt>
      <trkpt lat="46.77774" lon="1.19107">
        <ele>90.98</ele>
        <time>2011-01-23T14:34:46Z</time>
      </trkpt>
      <trkpt lat="46.77768" lon="1.19102">
        <ele>88.1</ele>
        <time>2011-01-23T14:34:52Z</time>
      </trkpt>
      <trkpt lat="46.77767" lon="1.19101">
        <ele>89.06</ele>
        <time>2011-01-23T14:34:53Z</time>
      </trkpt>
      <trkpt lat="46.77767" lon="1.191">
        <ele>94.83</ele>
        <time>2011-01-23T14:34:54Z</time>
      </trkpt>
      <trkpt lat="46.77766" lon="1.19099">
        <ele>91.94</ele>
        <time>2011-01-23T14:34:55Z</time>
      </trkpt>
      <trkpt lat="46.77765" lon="1.19098">
        <ele>89.06</ele>
        <time>2011-01-23T14:34:56Z</time>
      </trkpt>
      <trkpt lat="46.77765" lon="1.19097">
        <ele>89.06</ele>
        <time>2011-01-23T14:34:57Z</time>
      </trkpt>
      <trkpt lat="46.77763" lon="1.19095">
        <ele>98.19</ele>
        <time>2011-01-23T14:34:59Z</time>
      </trkpt>
      <trkpt lat="46.77762" lon="1.19094">
        <ele>90.98</ele>
        <time>2011-01-23T14:35:00Z</time>
      </trkpt>
      <trkpt lat="46.77755" lon="1.19084">
        <ele>90.5</ele>
        <time>2011-01-23T14:35:10Z</time>
      </trkpt>
      <trkpt lat="46.77749" lon="1.19078">
        <ele>90.5</ele>
        <time>2011-01-23T14:35:20Z</time>
      </trkpt>
      <trkpt lat="46.77741" lon="1.19067">
        <ele>89.54</ele>
        <time>2011-01-23T14:35:30Z</time>
      </trkpt>
      <trkpt lat="46.77736" lon="1.19062">
        <ele>90.5</ele>
        <time>2011-01-23T14:35:35Z</time>
      </trkpt>
      <trkpt lat="46.77729" lon="1.19054">
        <ele>90.02</ele>
        <time>2011-01-23T14:35:44Z</time>
      </trkpt>
      <trkpt lat="46.77724" lon="1.19048">
        <ele>90.02</ele>
        <time>2011-01-23T14:35:52Z</time>
      </trkpt>
      <trkpt lat="46.77716" lon="1.19038">
        <ele>90.5</ele>
        <time>2011-01-23T14:36:03Z</time>
      </trkpt>
      <trkpt lat="46.77708" lon="1.19026">
        <ele>90.5</ele>
        <time>2011-01-23T14:36:14Z</time>
      </trkpt>
      <trkpt lat="46.77701" lon="1.19017">
        <ele>89.54</ele>
        <time>2011-01-23T14:36:23Z</time>
      </trkpt>
      <trkpt lat="46.77693" lon="1.19009">
        <ele>90.5</ele>
        <time>2011-01-23T14:36:32Z</time>
      </trkpt>
      <trkpt lat="46.77686" lon="1.19002">
        <ele>90.5</ele>
        <time>2011-01-23T14:36:41Z</time>
      </trkpt>
      <trkpt lat="46.7768" lon="1.18994">
        <ele>90.02</ele>
        <time>2011-01-23T14:36:50Z</time>
      </trkpt>
      <trkpt lat="46.77675" lon="1.18988">
        <ele>90.98</ele>
        <time>2011-01-23T14:37:00Z</time>
      </trkpt>
      <trkpt lat="46.77668" lon="1.18979">
        <ele>90.5</ele>
        <time>2011-01-23T14:37:09Z</time>
      </trkpt>
      <trkpt lat="46.77666" lon="1.18976">
        <ele>90.98</ele>
        <time>2011-01-23T14:37:12Z</time>
      </trkpt>
      <trkpt lat="46.7766" lon="1.18971">
        <ele>90.5</ele>
        <time>2011-01-23T14:37:18Z</time>
      </trkpt>
      <trkpt lat="46.77654" lon="1.18962">
        <ele>90.5</ele>
        <time>2011-01-23T14:37:27Z</time>
      </trkpt>
      <trkpt lat="46.77647" lon="1.18952">
        <ele>90.5</ele>
        <time>2011-01-23T14:37:36Z</time>
      </trkpt>
      <trkpt lat="46.7764" lon="1.18941">
        <ele>90.98</ele>
        <time>2011-01-23T14:37:45Z</time>
      </trkpt>
      <trkpt lat="46.77628" lon="1.18927">
        <ele>90.98</ele>
        <time>2011-01-23T14:38:01Z</time>
      </trkpt>
      <trkpt lat="46.77615" lon="1.18911">
        <ele>91.94</ele>
        <time>2011-01-23T14:38:16Z</time>
      </trkpt>
      <trkpt lat="46.77613" lon="1.18908">
        <ele>90.5</ele>
        <time>2011-01-23T14:38:19Z</time>
      </trkpt>
      <trkpt lat="46.77602" lon="1.18893">
        <ele>91.94</ele>
        <time>2011-01-23T14:38:34Z</time>
      </trkpt>
      <trkpt lat="46.77595" lon="1.18886">
        <ele>90.98</ele>
        <time>2011-01-23T14:38:43Z</time>
      </trkpt>
      <trkpt lat="46.7759" lon="1.18877">
        <ele>90.98</ele>
        <time>2011-01-23T14:38:50Z</time>
      </trkpt>
      <trkpt lat="46.77581" lon="1.1887">
        <ele>90.98</ele>
        <time>2011-01-23T14:39:01Z</time>
      </trkpt>
      <trkpt lat="46.77576" lon="1.18866">
        <ele>90.5</ele>
        <time>2011-01-23T14:39:06Z</time>
      </trkpt>
      <trkpt lat="46.77565" lon="1.18851">
        <ele>90.98</ele>
        <time>2011-01-23T14:39:20Z</time>
      </trkpt>
      <trkpt lat="46.77555" lon="1.1884">
        <ele>92.9</ele>
        <time>2011-01-23T14:39:33Z</time>
      </trkpt>
      <trkpt lat="46.7755" lon="1.18836">
        <ele>91.46</ele>
        <time>2011-01-23T14:39:44Z</time>
      </trkpt>
      <trkpt lat="46.77545" lon="1.18827">
        <ele>90.98</ele>
        <time>2011-01-23T14:39:51Z</time>
      </trkpt>
      <trkpt lat="46.77539" lon="1.18814">
        <ele>91.94</ele>
        <time>2011-01-23T14:40:00Z</time>
      </trkpt>
      <trkpt lat="46.77539" lon="1.18809">
        <ele>92.42</ele>
        <time>2011-01-23T14:40:04Z</time>
      </trkpt>
      <trkpt lat="46.77544" lon="1.18789">
        <ele>91.46</ele>
        <time>2011-01-23T14:40:18Z</time>
      </trkpt>
      <trkpt lat="46.77546" lon="1.18777">
        <ele>92.42</ele>
        <time>2011-01-23T14:40:27Z</time>
      </trkpt>
      <trkpt lat="46.77547" lon="1.18774">
        <ele>92.42</ele>
        <time>2011-01-23T14:40:30Z</time>
      </trkpt>
      <trkpt lat="46.77552" lon="1.18759">
        <ele>90.98</ele>
        <time>2011-01-23T14:40:40Z</time>
      </trkpt>
      <trkpt lat="46.77553" lon="1.18747">
        <ele>91.94</ele>
        <time>2011-01-23T14:40:47Z</time>
      </trkpt>
      <trkpt lat="46.77552" lon="1.18741">
        <ele>90.5</ele>
        <time>2011-01-23T14:40:51Z</time>
      </trkpt>
      <trkpt lat="46.7755" lon="1.18735">
        <ele>90.98</ele>
        <time>2011-01-23T14:40:56Z</time>
      </trkpt>
      <trkpt lat="46.77538" lon="1.18727">
        <ele>91.94</ele>
        <time>2011-01-23T14:41:10Z</time>
      </trkpt>
      <trkpt lat="46.77536" lon="1.18726">
        <ele>91.94</ele>
        <time>2011-01-23T14:41:12Z</time>
      </trkpt>
      <trkpt lat="46.77524" lon="1.18718">
        <ele>92.42</ele>
        <time>2011-01-23T14:41:23Z</time>
      </trkpt>
      <trkpt lat="46.77512" lon="1.18712">
        <ele>92.9</ele>
        <time>2011-01-23T14:41:38Z</time>
      </trkpt>
      <trkpt lat="46.77512" lon="1.18712">
        <ele>91.94</ele>
        <time>2011-01-23T14:41:40Z</time>
      </trkpt>
      <trkpt lat="46.77502" lon="1.1871">
        <ele>92.42</ele>
        <time>2011-01-23T14:41:49Z</time>
      </trkpt>
      <trkpt lat="46.77494" lon="1.18704">
        <ele>93.39</ele>
        <time>2011-01-23T14:41:59Z</time>
      </trkpt>
      <trkpt lat="46.77487" lon="1.18701">
        <ele>92.9</ele>
        <time>2011-01-23T14:42:09Z</time>
      </trkpt>
      <trkpt lat="46.77476" lon="1.18699">
        <ele>92.9</ele>
        <time>2011-01-23T14:42:20Z</time>
      </trkpt>
      <trkpt lat="46.77465" lon="1.18694">
        <ele>93.87</ele>
        <time>2011-01-23T14:42:32Z</time>
      </trkpt>
      <trkpt lat="46.7745" lon="1.18687">
        <ele>92.42</ele>
        <time>2011-01-23T14:42:45Z</time>
      </trkpt>
      <trkpt lat="46.77438" lon="1.18678">
        <ele>92.42</ele>
        <time>2011-01-23T14:42:58Z</time>
      </trkpt>
      <trkpt lat="46.77426" lon="1.1867">
        <ele>93.39</ele>
        <time>2011-01-23T14:43:10Z</time>
      </trkpt>
      <trkpt lat="46.77414" lon="1.18658">
        <ele>93.87</ele>
        <time>2011-01-23T14:43:23Z</time>
      </trkpt>
      <trkpt lat="46.77402" lon="1.18646">
        <ele>93.87</ele>
        <time>2011-01-23T14:43:36Z</time>
      </trkpt>
      <trkpt lat="46.77395" lon="1.18638">
        <ele>93.87</ele>
        <time>2011-01-23T14:43:48Z</time>
      </trkpt>
      <trkpt lat="46.77388" lon="1.18633">
        <ele>94.35</ele>
        <time>2011-01-23T14:43:54Z</time>
      </trkpt>
      <trkpt lat="46.77383" lon="1.18631">
        <ele>94.83</ele>
        <time>2011-01-23T14:43:57Z</time>
      </trkpt>
      <trkpt lat="46.77371" lon="1.18623">
        <ele>93.87</ele>
        <time>2011-01-23T14:44:09Z</time>
      </trkpt>
      <trkpt lat="46.77365" lon="1.18617">
        <ele>94.83</ele>
        <time>2011-01-23T14:44:18Z</time>
      </trkpt>
      <trkpt lat="46.77348" lon="1.18604">
        <ele>94.35</ele>
        <time>2011-01-23T14:44:31Z</time>
      </trkpt>
      <trkpt lat="46.77336" lon="1.18598">
        <ele>93.39</ele>
        <time>2011-01-23T14:44:42Z</time>
      </trkpt>
      <trkpt lat="46.77329" lon="1.18594">
        <ele>94.83</ele>
        <time>2011-01-23T14:44:48Z</time>
      </trkpt>
      <trkpt lat="46.77318" lon="1.18587">
        <ele>94.83</ele>
        <time>2011-01-23T14:44:59Z</time>
      </trkpt>
      <trkpt lat="46.7731" lon="1.18584">
        <ele>94.83</ele>
        <time>2011-01-23T14:45:07Z</time>
      </trkpt>
      <trkpt lat="46.77308" lon="1.18582">
        <ele>94.35</ele>
        <time>2011-01-23T14:45:09Z</time>
      </trkpt>
      <trkpt lat="46.77296" lon="1.1858">
        <ele>94.35</ele>
        <time>2011-01-23T14:45:21Z</time>
      </trkpt>
      <trkpt lat="46.77285" lon="1.18571">
        <ele>97.23</ele>
        <time>2011-01-23T14:45:34Z</time>
      </trkpt>
      <trkpt lat="46.77284" lon="1.18571">
        <ele>94.35</ele>
        <time>2011-01-23T14:45:35Z</time>
      </trkpt>
      <trkpt lat="46.77274" lon="1.18564">
        <ele>93.87</ele>
        <time>2011-01-23T14:45:48Z</time>
      </trkpt>
      <trkpt lat="46.77259" lon="1.18557">
        <ele>94.35</ele>
        <time>2011-01-23T14:46:01Z</time>
      </trkpt>
      <trkpt lat="46.77246" lon="1.18544">
        <ele>94.83</ele>
        <time>2011-01-23T14:46:13Z</time>
      </trkpt>
      <trkpt lat="46.77238" lon="1.18534">
        <ele>94.83</ele>
        <time>2011-01-23T14:46:23Z</time>
      </trkpt>
      <trkpt lat="46.77237" lon="1.18532">
        <ele>94.35</ele>
        <time>2011-01-23T14:46:34Z</time>
      </trkpt>
      <trkpt lat="46.77237" lon="1.18532">
        <ele>93.39</ele>
        <time>2011-01-23T14:46:50Z</time>
      </trkpt>
      <trkpt lat="46.77237" lon="1.18531">
        <ele>93.39</ele>
        <time>2011-01-23T14:47:14Z</time>
      </trkpt>
      <trkpt lat="46.77237" lon="1.18531">
        <ele>93.87</ele>
        <time>2011-01-23T14:47:37Z</time>
      </trkpt>
      <trkpt lat="46.77237" lon="1.18531">
        <ele>93.87</ele>
        <time>2011-01-23T14:48:03Z</time>
      </trkpt>
      <trkpt lat="46.77237" lon="1.18531">
        <ele>93.87</ele>
        <time>2011-01-23T14:48:33Z</time>
      </trkpt>
      <trkpt lat="46.77237" lon="1.18531">
        <ele>93.87</ele>
        <time>2011-01-23T14:48:55Z</time>
      </trkpt>
      <trkpt lat="46.77237" lon="1.18531">
        <ele>100.11</ele>
        <time>2011-01-23T14:49:00Z</time>
      </trkpt>
      <trkpt lat="46.77237" lon="1.18531">
        <ele>94.35</ele>
        <time>2011-01-23T14:49:01Z</time>
      </trkpt>
      <trkpt lat="46.77237" lon="1.18531">
        <ele>93.87</ele>
        <time>2011-01-23T14:49:07Z</time>
      </trkpt>
      <trkpt lat="46.77237" lon="1.18531">
        <ele>95.31</ele>
        <time>2011-01-23T14:49:31Z</time>
      </trkpt>
      <trkpt lat="46.77236" lon="1.18532">
        <ele>94.83</ele>
        <time>2011-01-23T14:49:56Z</time>
      </trkpt>
      <trkpt lat="46.77236" lon="1.18532">
        <ele>92.9</ele>
        <time>2011-01-23T14:50:18Z</time>
      </trkpt>
      <trkpt lat="46.77236" lon="1.18532">
        <ele>94.83</ele>
        <time>2011-01-23T14:50:21Z</time>
      </trkpt>
      <trkpt lat="46.77235" lon="1.18533">
        <ele>94.83</ele>
        <time>2011-01-23T14:50:39Z</time>
      </trkpt>
      <trkpt lat="46.77235" lon="1.18533">
        <ele>94.83</ele>
        <time>2011-01-23T14:51:04Z</time>
      </trkpt>
      <trkpt lat="46.77235" lon="1.18534">
        <ele>91.94</ele>
        <time>2011-01-23T14:51:19Z</time>
      </trkpt>
      <trkpt lat="46.77235" lon="1.18534">
        <ele>95.31</ele>
        <time>2011-01-23T14:51:20Z</time>
      </trkpt>
      <trkpt lat="46.77235" lon="1.18534">
        <ele>95.31</ele>
        <time>2011-01-23T14:51:21Z</time>
      </trkpt>
      <trkpt lat="46.77235" lon="1.18532">
        <ele>94.83</ele>
        <time>2011-01-23T14:51:31Z</time>
      </trkpt>
      <trkpt lat="46.77233" lon="1.1853">
        <ele>95.79</ele>
        <time>2011-01-23T14:51:38Z</time>
      </trkpt>
      <trkpt lat="46.77225" lon="1.18529">
        <ele>93.87</ele>
        <time>2011-01-23T14:51:46Z</time>
      </trkpt>
      <trkpt lat="46.77212" lon="1.18535">
        <ele>95.31</ele>
        <time>2011-01-23T14:52:00Z</time>
      </trkpt>
      <trkpt lat="46.772" lon="1.18544">
        <ele>95.79</ele>
        <time>2011-01-23T14:52:11Z</time>
      </trkpt>
      <trkpt lat="46.77195" lon="1.18548">
        <ele>94.83</ele>
        <time>2011-01-23T14:52:17Z</time>
      </trkpt>
      <trkpt lat="46.7719" lon="1.18549">
        <ele>95.31</ele>
        <time>2011-01-23T14:52:22Z</time>
      </trkpt>
      <trkpt lat="46.77179" lon="1.18555">
        <ele>95.31</ele>
        <time>2011-01-23T14:52:32Z</time>
      </trkpt>
      <trkpt lat="46.77172" lon="1.18562">
        <ele>95.31</ele>
        <time>2011-01-23T14:52:42Z</time>
      </trkpt>
      <trkpt lat="46.7717" lon="1.18564">
        <ele>95.79</ele>
        <time>2011-01-23T14:52:44Z</time>
      </trkpt>
      <trkpt lat="46.77167" lon="1.18566">
        <ele>95.79</ele>
        <time>2011-01-23T14:52:47Z</time>
      </trkpt>
      <trkpt lat="46.77157" lon="1.18574">
        <ele>94.83</ele>
        <time>2011-01-23T14:52:58Z</time>
      </trkpt>
      <trkpt lat="46.77148" lon="1.18583">
        <ele>96.27</ele>
        <time>2011-01-23T14:53:09Z</time>
      </trkpt>
      <trkpt lat="46.7714" lon="1.18592">
        <ele>95.31</ele>
        <time>2011-01-23T14:53:19Z</time>
      </trkpt>
      <trkpt lat="46.77129" lon="1.18602">
        <ele>96.27</ele>
        <time>2011-01-23T14:53:32Z</time>
      </trkpt>
      <trkpt lat="46.77121" lon="1.18609">
        <ele>96.27</ele>
        <time>2011-01-23T14:53:41Z</time>
      </trkpt>
      <trkpt lat="46.77117" lon="1.18618">
        <ele>96.27</ele>
        <time>2011-01-23T14:53:50Z</time>
      </trkpt>
      <trkpt lat="46.77116" lon="1.18626">
        <ele>97.23</ele>
        <time>2011-01-23T14:54:00Z</time>
      </trkpt>
      <trkpt lat="46.77115" lon="1.18629">
        <ele>95.79</ele>
        <time>2011-01-23T14:54:12Z</time>
      </trkpt>
      <trkpt lat="46.77115" lon="1.18635">
        <ele>95.79</ele>
        <time>2011-01-23T14:54:25Z</time>
      </trkpt>
      <trkpt lat="46.77111" lon="1.18642">
        <ele>95.31</ele>
        <time>2011-01-23T14:54:35Z</time>
      </trkpt>
      <trkpt lat="46.77108" lon="1.18647">
        <ele>95.31</ele>
        <time>2011-01-23T14:54:40Z</time>
      </trkpt>
      <trkpt lat="46.77102" lon="1.18664">
        <ele>95.31</ele>
        <time>2011-01-23T14:54:52Z</time>
      </trkpt>
      <trkpt lat="46.77097" lon="1.18673">
        <ele>96.27</ele>
        <time>2011-01-23T14:55:00Z</time>
      </trkpt>
      <trkpt lat="46.77092" lon="1.18682">
        <ele>95.79</ele>
        <time>2011-01-23T14:55:07Z</time>
      </trkpt>
      <trkpt lat="46.77083" lon="1.18697">
        <ele>89.54</ele>
        <time>2011-01-23T14:55:16Z</time>
      </trkpt>
      <trkpt lat="46.77082" lon="1.18699">
        <ele>92.42</ele>
        <time>2011-01-23T14:55:17Z</time>
      </trkpt>
      <trkpt lat="46.77082" lon="1.18701">
        <ele>105.4</ele>
        <time>2011-01-23T14:55:18Z</time>
      </trkpt>
      <trkpt lat="46.77082" lon="1.18703">
        <ele>90.5</ele>
        <time>2011-01-23T14:55:19Z</time>
      </trkpt>
      <trkpt lat="46.77081" lon="1.18704">
        <ele>100.6</ele>
        <time>2011-01-23T14:55:20Z</time>
      </trkpt>
      <trkpt lat="46.7708" lon="1.18709">
        <ele>95.31</ele>
        <time>2011-01-23T14:55:23Z</time>
      </trkpt>
      <trkpt lat="46.7708" lon="1.1871">
        <ele>95.79</ele>
        <time>2011-01-23T14:55:24Z</time>
      </trkpt>
      <trkpt lat="46.77074" lon="1.18724">
        <ele>96.27</ele>
        <time>2011-01-23T14:55:34Z</time>
      </trkpt>
      <trkpt lat="46.77069" lon="1.18736">
        <ele>96.27</ele>
        <time>2011-01-23T14:55:44Z</time>
      </trkpt>
      <trkpt lat="46.77068" lon="1.18737">
        <ele>90.5</ele>
        <time>2011-01-23T14:55:45Z</time>
      </trkpt>
      <trkpt lat="46.77068" lon="1.18739">
        <ele>90.5</ele>
        <time>2011-01-23T14:55:46Z</time>
      </trkpt>
      <trkpt lat="46.77067" lon="1.18741">
        <ele>98.19</ele>
        <time>2011-01-23T14:55:47Z</time>
      </trkpt>
      <trkpt lat="46.77066" lon="1.18742">
        <ele>93.39</ele>
        <time>2011-01-23T14:55:48Z</time>
      </trkpt>
      <trkpt lat="46.77066" lon="1.18743">
        <ele>96.75</ele>
        <time>2011-01-23T14:55:49Z</time>
      </trkpt>
      <trkpt lat="46.77064" lon="1.18753">
        <ele>91.46</ele>
        <time>2011-01-23T14:55:55Z</time>
      </trkpt>
      <trkpt lat="46.77064" lon="1.18754">
        <ele>106.36</ele>
        <time>2011-01-23T14:55:56Z</time>
      </trkpt>
      <trkpt lat="46.77064" lon="1.18756">
        <ele>95.31</ele>
        <time>2011-01-23T14:55:57Z</time>
      </trkpt>
      <trkpt lat="46.77063" lon="1.18757">
        <ele>98.67</ele>
        <time>2011-01-23T14:55:58Z</time>
      </trkpt>
      <trkpt lat="46.77063" lon="1.18758">
        <ele>94.83</ele>
        <time>2011-01-23T14:55:59Z</time>
      </trkpt>
      <trkpt lat="46.77062" lon="1.18767">
        <ele>98.67</ele>
        <time>2011-01-23T14:56:04Z</time>
      </trkpt>
      <trkpt lat="46.77061" lon="1.18769">
        <ele>95.31</ele>
        <time>2011-01-23T14:56:05Z</time>
      </trkpt>
      <trkpt lat="46.7706" lon="1.18771">
        <ele>95.79</ele>
        <time>2011-01-23T14:56:06Z</time>
      </trkpt>
      <trkpt lat="46.7706" lon="1.18775">
        <ele>95.31</ele>
        <time>2011-01-23T14:56:10Z</time>
      </trkpt>
      <trkpt lat="46.77059" lon="1.18785">
        <ele>95.79</ele>
        <time>2011-01-23T14:56:17Z</time>
      </trkpt>
      <trkpt lat="46.77055" lon="1.18802">
        <ele>95.79</ele>
        <time>2011-01-23T14:56:28Z</time>
      </trkpt>
      <trkpt lat="46.77054" lon="1.18803">
        <ele>95.79</ele>
        <time>2011-01-23T14:56:29Z</time>
      </trkpt>
      <trkpt lat="46.77052" lon="1.18821">
        <ele>96.27</ele>
        <time>2011-01-23T14:56:39Z</time>
      </trkpt>
      <trkpt lat="46.77052" lon="1.18822">
        <ele>95.79</ele>
        <time>2011-01-23T14:56:40Z</time>
      </trkpt>
      <trkpt lat="46.77052" lon="1.18832">
        <ele>95.79</ele>
        <time>2011-01-23T14:56:46Z</time>
      </trkpt>
      <trkpt lat="46.77051" lon="1.18846">
        <ele>96.75</ele>
        <time>2011-01-23T14:56:56Z</time>
      </trkpt>
      <trkpt lat="46.77044" lon="1.18872">
        <ele>96.75</ele>
        <time>2011-01-23T14:57:10Z</time>
      </trkpt>
      <trkpt lat="46.77038" lon="1.18893">
        <ele>95.79</ele>
        <time>2011-01-23T14:57:24Z</time>
      </trkpt>
      <trkpt lat="46.77035" lon="1.18908">
        <ele>96.27</ele>
        <time>2011-01-23T14:57:35Z</time>
      </trkpt>
      <trkpt lat="46.77031" lon="1.18926">
        <ele>95.79</ele>
        <time>2011-01-23T14:57:47Z</time>
      </trkpt>
      <trkpt lat="46.77025" lon="1.18938">
        <ele>95.79</ele>
        <time>2011-01-23T14:57:56Z</time>
      </trkpt>
      <trkpt lat="46.77022" lon="1.18944">
        <ele>95.79</ele>
        <time>2011-01-23T14:58:01Z</time>
      </trkpt>
      <trkpt lat="46.77013" lon="1.18964">
        <ele>96.27</ele>
        <time>2011-01-23T14:58:16Z</time>
      </trkpt>
      <trkpt lat="46.77004" lon="1.18981">
        <ele>95.31</ele>
        <time>2011-01-23T14:58:31Z</time>
      </trkpt>
      <trkpt lat="46.76993" lon="1.18998">
        <ele>94.83</ele>
        <time>2011-01-23T14:58:46Z</time>
      </trkpt>
      <trkpt lat="46.76988" lon="1.19008">
        <ele>95.31</ele>
        <time>2011-01-23T14:58:55Z</time>
      </trkpt>
      <trkpt lat="46.76975" lon="1.19026">
        <ele>96.27</ele>
        <time>2011-01-23T14:59:09Z</time>
      </trkpt>
      <trkpt lat="46.76971" lon="1.19032">
        <ele>94.35</ele>
        <time>2011-01-23T14:59:15Z</time>
      </trkpt>
      <trkpt lat="46.76959" lon="1.1905">
        <ele>96.27</ele>
        <time>2011-01-23T14:59:30Z</time>
      </trkpt>
      <trkpt lat="46.76948" lon="1.19067">
        <ele>96.75</ele>
        <time>2011-01-23T14:59:45Z</time>
      </trkpt>
      <trkpt lat="46.76935" lon="1.19086">
        <ele>94.83</ele>
        <time>2011-01-23T15:00:01Z</time>
      </trkpt>
      <trkpt lat="46.7693" lon="1.19096">
        <ele>93.87</ele>
        <time>2011-01-23T15:00:10Z</time>
      </trkpt>
      <trkpt lat="46.7693" lon="1.19097">
        <ele>94.35</ele>
        <time>2011-01-23T15:00:11Z</time>
      </trkpt>
      <trkpt lat="46.76923" lon="1.19109">
        <ele>95.79</ele>
        <time>2011-01-23T15:00:23Z</time>
      </trkpt>
      <trkpt lat="46.76922" lon="1.19111">
        <ele>95.31</ele>
        <time>2011-01-23T15:00:24Z</time>
      </trkpt>
      <trkpt lat="46.7692" lon="1.19116">
        <ele>94.35</ele>
        <time>2011-01-23T15:00:28Z</time>
      </trkpt>
      <trkpt lat="46.76916" lon="1.19131">
        <ele>94.35</ele>
        <time>2011-01-23T15:00:38Z</time>
      </trkpt>
      <trkpt lat="46.76917" lon="1.19143">
        <ele>93.87</ele>
        <time>2011-01-23T15:00:46Z</time>
      </trkpt>
      <trkpt lat="46.76917" lon="1.1916">
        <ele>93.87</ele>
        <time>2011-01-23T15:00:56Z</time>
      </trkpt>
      <trkpt lat="46.76917" lon="1.19164">
        <ele>93.87</ele>
        <time>2011-01-23T15:01:00Z</time>
      </trkpt>
      <trkpt lat="46.76917" lon="1.19178">
        <ele>94.35</ele>
        <time>2011-01-23T15:01:11Z</time>
      </trkpt>
      <trkpt lat="46.76916" lon="1.19198">
        <ele>93.87</ele>
        <time>2011-01-23T15:01:22Z</time>
      </trkpt>
      <trkpt lat="46.76914" lon="1.19214">
        <ele>94.35</ele>
        <time>2011-01-23T15:01:32Z</time>
      </trkpt>
      <trkpt lat="46.76912" lon="1.19228">
        <ele>93.39</ele>
        <time>2011-01-23T15:01:42Z</time>
      </trkpt>
      <trkpt lat="46.76913" lon="1.19248">
        <ele>93.39</ele>
        <time>2011-01-23T15:01:53Z</time>
      </trkpt>
      <trkpt lat="46.76912" lon="1.19251">
        <ele>93.39</ele>
        <time>2011-01-23T15:01:55Z</time>
      </trkpt>
      <trkpt lat="46.76911" lon="1.19262">
        <ele>92.9</ele>
        <time>2011-01-23T15:02:00Z</time>
      </trkpt>
      <trkpt lat="46.76913" lon="1.1928">
        <ele>93.39</ele>
        <time>2011-01-23T15:02:11Z</time>
      </trkpt>
      <trkpt lat="46.76914" lon="1.19296">
        <ele>93.87</ele>
        <time>2011-01-23T15:02:22Z</time>
      </trkpt>
      <trkpt lat="46.76914" lon="1.19305">
        <ele>93.39</ele>
        <time>2011-01-23T15:02:29Z</time>
      </trkpt>
      <trkpt lat="46.76917" lon="1.19323">
        <ele>93.87</ele>
        <time>2011-01-23T15:02:41Z</time>
      </trkpt>
      <trkpt lat="46.7692" lon="1.19341">
        <ele>93.87</ele>
        <time>2011-01-23T15:02:51Z</time>
      </trkpt>
      <trkpt lat="46.76919" lon="1.19357">
        <ele>93.87</ele>
        <time>2011-01-23T15:03:02Z</time>
      </trkpt>
      <trkpt lat="46.76916" lon="1.19368">
        <ele>94.35</ele>
        <time>2011-01-23T15:03:12Z</time>
      </trkpt>
      <trkpt lat="46.76914" lon="1.19378">
        <ele>93.87</ele>
        <time>2011-01-23T15:03:19Z</time>
      </trkpt>
      <trkpt lat="46.76913" lon="1.19396">
        <ele>94.35</ele>
        <time>2011-01-23T15:03:30Z</time>
      </trkpt>
      <trkpt lat="46.76916" lon="1.1941">
        <ele>93.87</ele>
        <time>2011-01-23T15:03:38Z</time>
      </trkpt>
      <trkpt lat="46.76918" lon="1.19432">
        <ele>93.39</ele>
        <time>2011-01-23T15:03:49Z</time>
      </trkpt>
      <trkpt lat="46.7692" lon="1.19447">
        <ele>93.39</ele>
        <time>2011-01-23T15:03:58Z</time>
      </trkpt>
      <trkpt lat="46.7692" lon="1.19448">
        <ele>93.87</ele>
        <time>2011-01-23T15:03:59Z</time>
      </trkpt>
      <trkpt lat="46.76919" lon="1.1946">
        <ele>93.87</ele>
        <time>2011-01-23T15:04:06Z</time>
      </trkpt>
      <trkpt lat="46.76923" lon="1.19485">
        <ele>93.87</ele>
        <time>2011-01-23T15:04:21Z</time>
      </trkpt>
      <trkpt lat="46.76927" lon="1.19506">
        <ele>93.39</ele>
        <time>2011-01-23T15:04:36Z</time>
      </trkpt>
      <trkpt lat="46.76929" lon="1.19526">
        <ele>92.9</ele>
        <time>2011-01-23T15:04:49Z</time>
      </trkpt>
      <trkpt lat="46.76931" lon="1.19543">
        <ele>91.94</ele>
        <time>2011-01-23T15:05:01Z</time>
      </trkpt>
      <trkpt lat="46.76932" lon="1.19547">
        <ele>91.94</ele>
        <time>2011-01-23T15:05:04Z</time>
      </trkpt>
      <trkpt lat="46.76933" lon="1.19564">
        <ele>92.42</ele>
        <time>2011-01-23T15:05:14Z</time>
      </trkpt>
      <trkpt lat="46.76934" lon="1.19578">
        <ele>92.42</ele>
        <time>2011-01-23T15:05:23Z</time>
      </trkpt>
      <trkpt lat="46.76935" lon="1.19597">
        <ele>93.39</ele>
        <time>2011-01-23T15:05:36Z</time>
      </trkpt>
      <trkpt lat="46.76933" lon="1.19606">
        <ele>93.87</ele>
        <time>2011-01-23T15:05:49Z</time>
      </trkpt>
      <trkpt lat="46.76931" lon="1.19607">
        <ele>92.42</ele>
        <time>2011-01-23T15:06:00Z</time>
      </trkpt>
      <trkpt lat="46.76929" lon="1.1961">
        <ele>94.83</ele>
        <time>2011-01-23T15:06:03Z</time>
      </trkpt>
      <trkpt lat="46.76916" lon="1.19613">
        <ele>92.9</ele>
        <time>2011-01-23T15:06:16Z</time>
      </trkpt>
      <trkpt lat="46.76905" lon="1.19614">
        <ele>92.9</ele>
        <time>2011-01-23T15:06:27Z</time>
      </trkpt>
      <trkpt lat="46.76894" lon="1.19615">
        <ele>92.42</ele>
        <time>2011-01-23T15:06:38Z</time>
      </trkpt>
      <trkpt lat="46.76885" lon="1.19618">
        <ele>92.9</ele>
        <time>2011-01-23T15:06:47Z</time>
      </trkpt>
      <trkpt lat="46.76875" lon="1.19619">
        <ele>91.94</ele>
        <time>2011-01-23T15:06:58Z</time>
      </trkpt>
      <trkpt lat="46.76868" lon="1.19621">
        <ele>92.42</ele>
        <time>2011-01-23T15:07:04Z</time>
      </trkpt>
      <trkpt lat="46.76862" lon="1.19621">
        <ele>92.9</ele>
        <time>2011-01-23T15:07:10Z</time>
      </trkpt>
      <trkpt lat="46.76859" lon="1.19622">
        <ele>92.42</ele>
        <time>2011-01-23T15:07:13Z</time>
      </trkpt>
      <trkpt lat="46.76841" lon="1.19624">
        <ele>92.42</ele>
        <time>2011-01-23T15:07:30Z</time>
      </trkpt>
      <trkpt lat="46.76826" lon="1.19625">
        <ele>92.42</ele>
        <time>2011-01-23T15:07:45Z</time>
      </trkpt>
      <trkpt lat="46.76815" lon="1.19626">
        <ele>92.9</ele>
        <time>2011-01-23T15:07:57Z</time>
      </trkpt>
      <trkpt lat="46.76802" lon="1.19628">
        <ele>92.9</ele>
        <time>2011-01-23T15:08:09Z</time>
      </trkpt>
      <trkpt lat="46.76797" lon="1.19629">
        <ele>91.94</ele>
        <time>2011-01-23T15:08:22Z</time>
      </trkpt>
      <trkpt lat="46.76797" lon="1.19629">
        <ele>93.87</ele>
        <time>2011-01-23T15:08:24Z</time>
      </trkpt>
      <trkpt lat="46.76797" lon="1.19629">
        <ele>91.94</ele>
        <time>2011-01-23T15:08:27Z</time>
      </trkpt>
      <trkpt lat="46.76797" lon="1.19629">
        <ele>88.1</ele>
        <time>2011-01-23T15:08:36Z</time>
      </trkpt>
      <trkpt lat="46.76797" lon="1.19629">
        <ele>92.9</ele>
        <time>2011-01-23T15:08:37Z</time>
      </trkpt>
      <trkpt lat="46.76802" lon="1.19628">
        <ele>92.42</ele>
        <time>2011-01-23T15:08:43Z</time>
      </trkpt>
      <trkpt lat="46.76816" lon="1.19626">
        <ele>92.42</ele>
        <time>2011-01-23T15:08:55Z</time>
      </trkpt>
      <trkpt lat="46.76828" lon="1.19623">
        <ele>92.42</ele>
        <time>2011-01-23T15:09:05Z</time>
      </trkpt>
      <trkpt lat="46.76838" lon="1.19623">
        <ele>92.42</ele>
        <time>2011-01-23T15:09:15Z</time>
      </trkpt>
      <trkpt lat="46.7685" lon="1.19621">
        <ele>92.42</ele>
        <time>2011-01-23T15:09:25Z</time>
      </trkpt>
      <trkpt lat="46.7686" lon="1.19621">
        <ele>93.87</ele>
        <time>2011-01-23T15:09:33Z</time>
      </trkpt>
      <trkpt lat="46.76875" lon="1.19619">
        <ele>92.9</ele>
        <time>2011-01-23T15:09:48Z</time>
      </trkpt>
      <trkpt lat="46.7689" lon="1.19617">
        <ele>92.9</ele>
        <time>2011-01-23T15:10:02Z</time>
      </trkpt>
      <trkpt lat="46.76903" lon="1.19615">
        <ele>87.14</ele>
        <time>2011-01-23T15:10:14Z</time>
      </trkpt>
      <trkpt lat="46.76905" lon="1.19615">
        <ele>94.83</ele>
        <time>2011-01-23T15:10:15Z</time>
      </trkpt>
      <trkpt lat="46.76914" lon="1.19613">
        <ele>92.9</ele>
        <time>2011-01-23T15:10:23Z</time>
      </trkpt>
      <trkpt lat="46.76923" lon="1.19612">
        <ele>92.9</ele>
        <time>2011-01-23T15:10:32Z</time>
      </trkpt>
      <trkpt lat="46.76931" lon="1.19609">
        <ele>92.9</ele>
        <time>2011-01-23T15:10:41Z</time>
      </trkpt>
      <trkpt lat="46.76935" lon="1.1961">
        <ele>92.9</ele>
        <time>2011-01-23T15:10:45Z</time>
      </trkpt>
      <trkpt lat="46.76938" lon="1.19622">
        <ele>93.39</ele>
        <time>2011-01-23T15:10:54Z</time>
      </trkpt>
      <trkpt lat="46.76937" lon="1.19622">
        <ele>93.39</ele>
        <time>2011-01-23T15:11:12Z</time>
      </trkpt>
      <trkpt lat="46.76937" lon="1.19623">
        <ele>93.39</ele>
        <time>2011-01-23T15:11:14Z</time>
      </trkpt>
      <trkpt lat="46.76937" lon="1.1963">
        <ele>92.42</ele>
        <time>2011-01-23T15:11:20Z</time>
      </trkpt>
      <trkpt lat="46.76938" lon="1.19635">
        <ele>90.98</ele>
        <time>2011-01-23T15:11:23Z</time>
      </trkpt>
      <trkpt lat="46.76938" lon="1.1964">
        <ele>93.39</ele>
        <time>2011-01-23T15:11:26Z</time>
      </trkpt>
      <trkpt lat="46.76939" lon="1.19645">
        <ele>92.9</ele>
        <time>2011-01-23T15:11:29Z</time>
      </trkpt>
      <trkpt lat="46.76942" lon="1.19668">
        <ele>93.39</ele>
        <time>2011-01-23T15:11:44Z</time>
      </trkpt>
      <trkpt lat="46.76943" lon="1.19683">
        <ele>93.39</ele>
        <time>2011-01-23T15:11:54Z</time>
      </trkpt>
      <trkpt lat="46.76946" lon="1.19699">
        <ele>92.9</ele>
        <time>2011-01-23T15:12:05Z</time>
      </trkpt>
      <trkpt lat="46.76946" lon="1.19707">
        <ele>92.42</ele>
        <time>2011-01-23T15:12:10Z</time>
      </trkpt>
      <trkpt lat="46.76947" lon="1.19723">
        <ele>92.9</ele>
        <time>2011-01-23T15:12:21Z</time>
      </trkpt>
      <trkpt lat="46.76946" lon="1.19738">
        <ele>93.39</ele>
        <time>2011-01-23T15:12:33Z</time>
      </trkpt>
      <trkpt lat="46.76946" lon="1.19742">
        <ele>93.39</ele>
        <time>2011-01-23T15:12:37Z</time>
      </trkpt>
      <trkpt lat="46.76947" lon="1.19761">
        <ele>93.39</ele>
        <time>2011-01-23T15:12:49Z</time>
      </trkpt>
      <trkpt lat="46.76947" lon="1.19779">
        <ele>93.39</ele>
        <time>2011-01-23T15:13:01Z</time>
      </trkpt>
      <trkpt lat="46.76948" lon="1.19784">
        <ele>93.39</ele>
        <time>2011-01-23T15:13:05Z</time>
      </trkpt>
      <trkpt lat="46.76949" lon="1.19804">
        <ele>94.35</ele>
        <time>2011-01-23T15:13:17Z</time>
      </trkpt>
      <trkpt lat="46.76947" lon="1.1982">
        <ele>92.42</ele>
        <time>2011-01-23T15:13:27Z</time>
      </trkpt>
      <trkpt lat="46.76948" lon="1.19839">
        <ele>93.39</ele>
        <time>2011-01-23T15:13:39Z</time>
      </trkpt>
      <trkpt lat="46.76948" lon="1.19849">
        <ele>93.87</ele>
        <time>2011-01-23T15:13:46Z</time>
      </trkpt>
      <trkpt lat="46.76946" lon="1.19872">
        <ele>93.87</ele>
        <time>2011-01-23T15:13:58Z</time>
      </trkpt>
      <trkpt lat="46.76945" lon="1.19883">
        <ele>93.39</ele>
        <time>2011-01-23T15:14:05Z</time>
      </trkpt>
      <trkpt lat="46.76944" lon="1.19891">
        <ele>93.39</ele>
        <time>2011-01-23T15:14:11Z</time>
      </trkpt>
      <trkpt lat="46.76943" lon="1.19908">
        <ele>92.9</ele>
        <time>2011-01-23T15:14:23Z</time>
      </trkpt>
      <trkpt lat="46.76943" lon="1.19929">
        <ele>93.39</ele>
        <time>2011-01-23T15:14:34Z</time>
      </trkpt>
      <trkpt lat="46.76942" lon="1.19942">
        <ele>89.06</ele>
        <time>2011-01-23T15:14:40Z</time>
      </trkpt>
      <trkpt lat="46.76943" lon="1.19944">
        <ele>92.9</ele>
        <time>2011-01-23T15:14:41Z</time>
      </trkpt>
      <trkpt lat="46.76942" lon="1.19957">
        <ele>92.9</ele>
        <time>2011-01-23T15:14:49Z</time>
      </trkpt>
      <trkpt lat="46.76942" lon="1.19975">
        <ele>92.9</ele>
        <time>2011-01-23T15:15:01Z</time>
      </trkpt>
      <trkpt lat="46.76942" lon="1.19994">
        <ele>93.39</ele>
        <time>2011-01-23T15:15:12Z</time>
      </trkpt>
      <trkpt lat="46.76941" lon="1.20009">
        <ele>93.39</ele>
        <time>2011-01-23T15:15:23Z</time>
      </trkpt>
      <trkpt lat="46.76939" lon="1.20009">
        <ele>94.35</ele>
        <time>2011-01-23T15:15:33Z</time>
      </trkpt>
      <trkpt lat="46.76923" lon="1.20022">
        <ele>92.9</ele>
        <time>2011-01-23T15:15:48Z</time>
      </trkpt>
      <trkpt lat="46.7691" lon="1.20031">
        <ele>92.9</ele>
        <time>2011-01-23T15:16:00Z</time>
      </trkpt>
      <trkpt lat="46.76898" lon="1.20042">
        <ele>92.42</ele>
        <time>2011-01-23T15:16:12Z</time>
      </trkpt>
      <trkpt lat="46.76893" lon="1.20043">
        <ele>93.39</ele>
        <time>2011-01-23T15:16:22Z</time>
      </trkpt>
      <trkpt lat="46.76893" lon="1.20043">
        <ele>92.42</ele>
        <time>2011-01-23T15:16:30Z</time>
      </trkpt>
      <trkpt lat="46.76885" lon="1.20026">
        <ele>92.42</ele>
        <time>2011-01-23T15:16:40Z</time>
      </trkpt>
      <trkpt lat="46.76885" lon="1.20025">
        <ele>92.42</ele>
        <time>2011-01-23T15:16:41Z</time>
      </trkpt>
      <trkpt lat="46.76879" lon="1.20008">
        <ele>92.9</ele>
        <time>2011-01-23T15:16:53Z</time>
      </trkpt>
      <trkpt lat="46.76872" lon="1.19993">
        <ele>91.94</ele>
        <time>2011-01-23T15:17:03Z</time>
      </trkpt>
      <trkpt lat="46.76871" lon="1.19989">
        <ele>91.94</ele>
        <time>2011-01-23T15:17:06Z</time>
      </trkpt>
      <trkpt lat="46.7687" lon="1.19987">
        <ele>92.9</ele>
        <time>2011-01-23T15:17:20Z</time>
      </trkpt>
      <trkpt lat="46.7687" lon="1.19987">
        <ele>91.94</ele>
        <time>2011-01-23T15:17:37Z</time>
      </trkpt>
      <trkpt lat="46.76869" lon="1.19985">
        <ele>92.42</ele>
        <time>2011-01-23T15:17:38Z</time>
      </trkpt>
      <trkpt lat="46.76866" lon="1.19978">
        <ele>92.42</ele>
        <time>2011-01-23T15:17:43Z</time>
      </trkpt>
      <trkpt lat="46.76861" lon="1.19963">
        <ele>91.94</ele>
        <time>2011-01-23T15:17:54Z</time>
      </trkpt>
      <trkpt lat="46.7686" lon="1.19956">
        <ele>91.94</ele>
        <time>2011-01-23T15:17:59Z</time>
      </trkpt>
      <trkpt lat="46.76854" lon="1.19939">
        <ele>92.42</ele>
        <time>2011-01-23T15:18:10Z</time>
      </trkpt>
      <trkpt lat="46.76853" lon="1.19936">
        <ele>95.79</ele>
        <time>2011-01-23T15:18:12Z</time>
      </trkpt>
      <trkpt lat="46.76852" lon="1.19935">
        <ele>91.94</ele>
        <time>2011-01-23T15:18:13Z</time>
      </trkpt>
      <trkpt lat="46.7685" lon="1.19925">
        <ele>91.94</ele>
        <time>2011-01-23T15:18:22Z</time>
      </trkpt>
      <trkpt lat="46.76843" lon="1.19923">
        <ele>91.94</ele>
        <time>2011-01-23T15:18:30Z</time>
      </trkpt>
      <trkpt lat="46.76836" lon="1.19927">
        <ele>91.94</ele>
        <time>2011-01-23T15:18:38Z</time>
      </trkpt>
      <trkpt lat="46.76831" lon="1.19935">
        <ele>92.42</ele>
        <time>2011-01-23T15:18:45Z</time>
      </trkpt>
      <trkpt lat="46.76828" lon="1.19936">
        <ele>91.94</ele>
        <time>2011-01-23T15:18:48Z</time>
      </trkpt>
      <trkpt lat="46.76822" lon="1.19941">
        <ele>91.94</ele>
        <time>2011-01-23T15:18:54Z</time>
      </trkpt>
      <trkpt lat="46.76818" lon="1.19943">
        <ele>92.42</ele>
        <time>2011-01-23T15:18:58Z</time>
      </trkpt>
      <trkpt lat="46.76807" lon="1.19951">
        <ele>91.94</ele>
        <time>2011-01-23T15:19:09Z</time>
      </trkpt>
      <trkpt lat="46.76799" lon="1.19958">
        <ele>92.9</ele>
        <time>2011-01-23T15:19:18Z</time>
      </trkpt>
      <trkpt lat="46.7679" lon="1.19966">
        <ele>92.9</ele>
        <time>2011-01-23T15:19:28Z</time>
      </trkpt>
      <trkpt lat="46.76783" lon="1.19973">
        <ele>93.39</ele>
        <time>2011-01-23T15:19:37Z</time>
      </trkpt>
      <trkpt lat="46.7678" lon="1.19977">
        <ele>93.39</ele>
        <time>2011-01-23T15:19:42Z</time>
      </trkpt>
      <trkpt lat="46.76775" lon="1.19981">
        <ele>93.39</ele>
        <time>2011-01-23T15:19:47Z</time>
      </trkpt>
      <trkpt lat="46.76771" lon="1.19984">
        <ele>92.9</ele>
        <time>2011-01-23T15:19:51Z</time>
      </trkpt>
      <trkpt lat="46.76761" lon="1.19992">
        <ele>93.39</ele>
        <time>2011-01-23T15:20:02Z</time>
      </trkpt>
      <trkpt lat="46.76754" lon="1.19995">
        <ele>93.39</ele>
        <time>2011-01-23T15:20:12Z</time>
      </trkpt>
      <trkpt lat="46.76748" lon="1.19997">
        <ele>92.9</ele>
        <time>2011-01-23T15:20:21Z</time>
      </trkpt>
      <trkpt lat="46.76743" lon="1.20005">
        <ele>92.9</ele>
        <time>2011-01-23T15:20:26Z</time>
      </trkpt>
      <trkpt lat="46.76737" lon="1.20007">
        <ele>92.42</ele>
        <time>2011-01-23T15:20:33Z</time>
      </trkpt>
      <trkpt lat="46.76728" lon="1.20012">
        <ele>92.42</ele>
        <time>2011-01-23T15:20:43Z</time>
      </trkpt>
      <trkpt lat="46.76723" lon="1.20016">
        <ele>91.94</ele>
        <time>2011-01-23T15:20:48Z</time>
      </trkpt>
      <trkpt lat="46.76718" lon="1.20019">
        <ele>92.9</ele>
        <time>2011-01-23T15:21:00Z</time>
      </trkpt>
      <trkpt lat="46.76718" lon="1.2002">
        <ele>92.42</ele>
        <time>2011-01-23T15:21:16Z</time>
      </trkpt>
      <trkpt lat="46.76712" lon="1.20026">
        <ele>91.94</ele>
        <time>2011-01-23T15:21:23Z</time>
      </trkpt>
      <trkpt lat="46.76703" lon="1.20034">
        <ele>92.9</ele>
        <time>2011-01-23T15:21:34Z</time>
      </trkpt>
      <trkpt lat="46.76697" lon="1.2004">
        <ele>91.94</ele>
        <time>2011-01-23T15:21:43Z</time>
      </trkpt>
      <trkpt lat="46.76693" lon="1.20046">
        <ele>92.42</ele>
        <time>2011-01-23T15:21:48Z</time>
      </trkpt>
      <trkpt lat="46.76685" lon="1.20057">
        <ele>92.9</ele>
        <time>2011-01-23T15:21:59Z</time>
      </trkpt>
      <trkpt lat="46.76685" lon="1.20057">
        <ele>92.42</ele>
        <time>2011-01-23T15:22:27Z</time>
      </trkpt>
      <trkpt lat="46.76685" lon="1.20057">
        <ele>92.9</ele>
        <time>2011-01-23T15:22:47Z</time>
      </trkpt>
      <trkpt lat="46.76685" lon="1.20057">
        <ele>91.94</ele>
        <time>2011-01-23T15:23:11Z</time>
      </trkpt>
      <trkpt lat="46.76684" lon="1.20057">
        <ele>92.9</ele>
        <time>2011-01-23T15:23:24Z</time>
      </trkpt>
      <trkpt lat="46.76684" lon="1.20057">
        <ele>92.9</ele>
        <time>2011-01-23T15:23:41Z</time>
      </trkpt>
      <trkpt lat="46.76684" lon="1.20057">
        <ele>92.9</ele>
        <time>2011-01-23T15:23:58Z</time>
      </trkpt>
      <trkpt lat="46.7668" lon="1.20061">
        <ele>93.87</ele>
        <time>2011-01-23T15:24:05Z</time>
      </trkpt>
      <trkpt lat="46.76672" lon="1.2007">
        <ele>92.9</ele>
        <time>2011-01-23T15:24:16Z</time>
      </trkpt>
      <trkpt lat="46.76669" lon="1.20075">
        <ele>92.42</ele>
        <time>2011-01-23T15:24:22Z</time>
      </trkpt>
      <trkpt lat="46.76664" lon="1.20079">
        <ele>92.42</ele>
        <time>2011-01-23T15:24:27Z</time>
      </trkpt>
      <trkpt lat="46.76655" lon="1.20087">
        <ele>92.42</ele>
        <time>2011-01-23T15:24:38Z</time>
      </trkpt>
      <trkpt lat="46.76648" lon="1.20097">
        <ele>91.94</ele>
        <time>2011-01-23T15:24:49Z</time>
      </trkpt>
      <trkpt lat="46.76642" lon="1.20102">
        <ele>92.42</ele>
        <time>2011-01-23T15:24:59Z</time>
      </trkpt>
      <trkpt lat="46.76635" lon="1.20109">
        <ele>89.54</ele>
        <time>2011-01-23T15:25:10Z</time>
      </trkpt>
      <trkpt lat="46.76632" lon="1.20112">
        <ele>92.42</ele>
        <time>2011-01-23T15:25:13Z</time>
      </trkpt>
      <trkpt lat="46.76623" lon="1.20121">
        <ele>91.94</ele>
        <time>2011-01-23T15:25:24Z</time>
      </trkpt>
      <trkpt lat="46.76617" lon="1.20132">
        <ele>91.94</ele>
        <time>2011-01-23T15:25:37Z</time>
      </trkpt>
      <trkpt lat="46.76617" lon="1.20132">
        <ele>92.9</ele>
        <time>2011-01-23T15:26:02Z</time>
      </trkpt>
      <trkpt lat="46.76615" lon="1.20132">
        <ele>91.94</ele>
        <time>2011-01-23T15:26:18Z</time>
      </trkpt>
      <trkpt lat="46.76609" lon="1.20137">
        <ele>91.94</ele>
        <time>2011-01-23T15:26:28Z</time>
      </trkpt>
      <trkpt lat="46.76604" lon="1.20143">
        <ele>91.46</ele>
        <time>2011-01-23T15:26:39Z</time>
      </trkpt>
      <trkpt lat="46.766" lon="1.20148">
        <ele>91.46</ele>
        <time>2011-01-23T15:26:50Z</time>
      </trkpt>
      <trkpt lat="46.76588" lon="1.20159">
        <ele>91.46</ele>
        <time>2011-01-23T15:27:03Z</time>
      </trkpt>
      <trkpt lat="46.76579" lon="1.2017">
        <ele>91.46</ele>
        <time>2011-01-23T15:27:16Z</time>
      </trkpt>
      <trkpt lat="46.76569" lon="1.20182">
        <ele>91.46</ele>
        <time>2011-01-23T15:27:30Z</time>
      </trkpt>
      <trkpt lat="46.76563" lon="1.2019">
        <ele>91.94</ele>
        <time>2011-01-23T15:27:45Z</time>
      </trkpt>
      <trkpt lat="46.76563" lon="1.2019">
        <ele>91.46</ele>
        <time>2011-01-23T15:27:59Z</time>
      </trkpt>
      <trkpt lat="46.76563" lon="1.2019">
        <ele>91.46</ele>
        <time>2011-01-23T15:28:13Z</time>
      </trkpt>
      <trkpt lat="46.76561" lon="1.20192">
        <ele>90.98</ele>
        <time>2011-01-23T15:28:30Z</time>
      </trkpt>
      <trkpt lat="46.7655" lon="1.20201">
        <ele>93.39</ele>
        <time>2011-01-23T15:28:45Z</time>
      </trkpt>
      <trkpt lat="46.76547" lon="1.20204">
        <ele>92.9</ele>
        <time>2011-01-23T15:28:46Z</time>
      </trkpt>
      <trkpt lat="46.76544" lon="1.2021">
        <ele>91.46</ele>
        <time>2011-01-23T15:28:48Z</time>
      </trkpt>
      <trkpt lat="46.76535" lon="1.20226">
        <ele>90.02</ele>
        <time>2011-01-23T15:28:57Z</time>
      </trkpt>
      <trkpt lat="46.76535" lon="1.20228">
        <ele>92.42</ele>
        <time>2011-01-23T15:28:58Z</time>
      </trkpt>
      <trkpt lat="46.76529" lon="1.20243">
        <ele>85.69</ele>
        <time>2011-01-23T15:29:06Z</time>
      </trkpt>
      <trkpt lat="46.76528" lon="1.20244">
        <ele>90.98</ele>
        <time>2011-01-23T15:29:07Z</time>
      </trkpt>
      <trkpt lat="46.76527" lon="1.20245">
        <ele>101.08</ele>
        <time>2011-01-23T15:29:08Z</time>
      </trkpt>
      <trkpt lat="46.76527" lon="1.20247">
        <ele>79.93</ele>
        <time>2011-01-23T15:29:09Z</time>
      </trkpt>
      <trkpt lat="46.76526" lon="1.20249">
        <ele>90.98</ele>
        <time>2011-01-23T15:29:10Z</time>
      </trkpt>
      <trkpt lat="46.76526" lon="1.20251">
        <ele>94.83</ele>
        <time>2011-01-23T15:29:11Z</time>
      </trkpt>
      <trkpt lat="46.76525" lon="1.20252">
        <ele>90.5</ele>
        <time>2011-01-23T15:29:12Z</time>
      </trkpt>
      <trkpt lat="46.76525" lon="1.20255">
        <ele>91.46</ele>
        <time>2011-01-23T15:29:14Z</time>
      </trkpt>
      <trkpt lat="46.76524" lon="1.20269">
        <ele>91.46</ele>
        <time>2011-01-23T15:29:24Z</time>
      </trkpt>
      <trkpt lat="46.76524" lon="1.2028">
        <ele>91.94</ele>
        <time>2011-01-23T15:29:34Z</time>
      </trkpt>
      <trkpt lat="46.76524" lon="1.20281">
        <ele>90.02</ele>
        <time>2011-01-23T15:29:47Z</time>
      </trkpt>
      <trkpt lat="46.76524" lon="1.20281">
        <ele>89.54</ele>
        <time>2011-01-23T15:30:12Z</time>
      </trkpt>
      <trkpt lat="46.76522" lon="1.20282">
        <ele>90.98</ele>
        <time>2011-01-23T15:30:21Z</time>
      </trkpt>
      <trkpt lat="46.76518" lon="1.20297">
        <ele>90.98</ele>
        <time>2011-01-23T15:30:32Z</time>
      </trkpt>
      <trkpt lat="46.76517" lon="1.20314">
        <ele>90.98</ele>
        <time>2011-01-23T15:30:42Z</time>
      </trkpt>
      <trkpt lat="46.76516" lon="1.20328">
        <ele>90.98</ele>
        <time>2011-01-23T15:30:52Z</time>
      </trkpt>
      <trkpt lat="46.76516" lon="1.2033">
        <ele>90.02</ele>
        <time>2011-01-23T15:30:54Z</time>
      </trkpt>
      <trkpt lat="46.76514" lon="1.20338">
        <ele>90.98</ele>
        <time>2011-01-23T15:30:59Z</time>
      </trkpt>
      <trkpt lat="46.76514" lon="1.20343">
        <ele>90.98</ele>
        <time>2011-01-23T15:31:03Z</time>
      </trkpt>
      <trkpt lat="46.76513" lon="1.20348">
        <ele>90.98</ele>
        <time>2011-01-23T15:31:06Z</time>
      </trkpt>
      <trkpt lat="46.76508" lon="1.20362">
        <ele>90.5</ele>
        <time>2011-01-23T15:31:17Z</time>
      </trkpt>
      <trkpt lat="46.76506" lon="1.20366">
        <ele>90.02</ele>
        <time>2011-01-23T15:31:34Z</time>
      </trkpt>
      <trkpt lat="46.76503" lon="1.20371">
        <ele>90.02</ele>
        <time>2011-01-23T15:31:44Z</time>
      </trkpt>
      <trkpt lat="46.76503" lon="1.20371">
        <ele>89.54</ele>
        <time>2011-01-23T15:32:07Z</time>
      </trkpt>
      <trkpt lat="46.76498" lon="1.20376">
        <ele>90.02</ele>
        <time>2011-01-23T15:32:13Z</time>
      </trkpt>
      <trkpt lat="46.7649" lon="1.20386">
        <ele>90.98</ele>
        <time>2011-01-23T15:32:23Z</time>
      </trkpt>
      <trkpt lat="46.76482" lon="1.20395">
        <ele>90.98</ele>
        <time>2011-01-23T15:32:33Z</time>
      </trkpt>
      <trkpt lat="46.76473" lon="1.20404">
        <ele>90.02</ele>
        <time>2011-01-23T15:32:43Z</time>
      </trkpt>
      <trkpt lat="46.76465" lon="1.20413">
        <ele>91.46</ele>
        <time>2011-01-23T15:32:53Z</time>
      </trkpt>
      <trkpt lat="46.76457" lon="1.20423">
        <ele>90.02</ele>
        <time>2011-01-23T15:33:03Z</time>
      </trkpt>
      <trkpt lat="46.76454" lon="1.20426">
        <ele>89.54</ele>
        <time>2011-01-23T15:33:06Z</time>
      </trkpt>
      <trkpt lat="46.76445" lon="1.20437">
        <ele>91.46</ele>
        <time>2011-01-23T15:33:17Z</time>
      </trkpt>
      <trkpt lat="46.76439" lon="1.20442">
        <ele>90.02</ele>
        <time>2011-01-23T15:33:28Z</time>
      </trkpt>
      <trkpt lat="46.76429" lon="1.20452">
        <ele>91.46</ele>
        <time>2011-01-23T15:33:39Z</time>
      </trkpt>
      <trkpt lat="46.7642" lon="1.20462">
        <ele>91.94</ele>
        <time>2011-01-23T15:33:52Z</time>
      </trkpt>
      <trkpt lat="46.76411" lon="1.20471">
        <ele>91.94</ele>
        <time>2011-01-23T15:34:04Z</time>
      </trkpt>
      <trkpt lat="46.76411" lon="1.20471">
        <ele>88.58</ele>
        <time>2011-01-23T15:34:07Z</time>
      </trkpt>
      <trkpt lat="46.76411" lon="1.20471">
        <ele>91.94</ele>
        <time>2011-01-23T15:34:09Z</time>
      </trkpt>
      <trkpt lat="46.76407" lon="1.20475">
        <ele>91.46</ele>
        <time>2011-01-23T15:34:21Z</time>
      </trkpt>
      <trkpt lat="46.76403" lon="1.2048">
        <ele>90.98</ele>
        <time>2011-01-23T15:34:30Z</time>
      </trkpt>
      <trkpt lat="46.76392" lon="1.20491">
        <ele>91.46</ele>
        <time>2011-01-23T15:34:40Z</time>
      </trkpt>
      <trkpt lat="46.76384" lon="1.20498">
        <ele>91.46</ele>
        <time>2011-01-23T15:34:49Z</time>
      </trkpt>
      <trkpt lat="46.76377" lon="1.20508">
        <ele>91.46</ele>
        <time>2011-01-23T15:34:58Z</time>
      </trkpt>
      <trkpt lat="46.76374" lon="1.2052">
        <ele>91.46</ele>
        <time>2011-01-23T15:35:06Z</time>
      </trkpt>
      <trkpt lat="46.76372" lon="1.20536">
        <ele>90.98</ele>
        <time>2011-01-23T15:35:17Z</time>
      </trkpt>
      <trkpt lat="46.76371" lon="1.2055">
        <ele>90.5</ele>
        <time>2011-01-23T15:35:26Z</time>
      </trkpt>
      <trkpt lat="46.7637" lon="1.20562">
        <ele>90.98</ele>
        <time>2011-01-23T15:35:35Z</time>
      </trkpt>
      <trkpt lat="46.76365" lon="1.20575">
        <ele>90.98</ele>
        <time>2011-01-23T15:35:44Z</time>
      </trkpt>
      <trkpt lat="46.76361" lon="1.20587">
        <ele>91.46</ele>
        <time>2011-01-23T15:35:53Z</time>
      </trkpt>
      <trkpt lat="46.76359" lon="1.20592">
        <ele>90.5</ele>
        <time>2011-01-23T15:36:09Z</time>
      </trkpt>
      <trkpt lat="46.76356" lon="1.20596">
        <ele>90.5</ele>
        <time>2011-01-23T15:36:21Z</time>
      </trkpt>
      <trkpt lat="46.76352" lon="1.20598">
        <ele>90.98</ele>
        <time>2011-01-23T15:36:31Z</time>
      </trkpt>
      <trkpt lat="46.76353" lon="1.20597">
        <ele>90.98</ele>
        <time>2011-01-23T15:36:44Z</time>
      </trkpt>
      <trkpt lat="46.76353" lon="1.20602">
        <ele>90.98</ele>
        <time>2011-01-23T15:36:53Z</time>
      </trkpt>
      <trkpt lat="46.76353" lon="1.20602">
        <ele>90.02</ele>
        <time>2011-01-23T15:36:57Z</time>
      </trkpt>
      <trkpt lat="46.76356" lon="1.20591">
        <ele>90.98</ele>
        <time>2011-01-23T15:37:08Z</time>
      </trkpt>
      <trkpt lat="46.76355" lon="1.20597">
        <ele>90.98</ele>
        <time>2011-01-23T15:37:15Z</time>
      </trkpt>
      <trkpt lat="46.76348" lon="1.20608">
        <ele>90.5</ele>
        <time>2011-01-23T15:37:25Z</time>
      </trkpt>
      <trkpt lat="46.76341" lon="1.20618">
        <ele>90.98</ele>
        <time>2011-01-23T15:37:34Z</time>
      </trkpt>
      <trkpt lat="46.76336" lon="1.20621">
        <ele>65.51</ele>
        <time>2011-01-23T15:37:40Z</time>
      </trkpt>
      <trkpt lat="46.76336" lon="1.20621">
        <ele>96.75</ele>
        <time>2011-01-23T15:37:41Z</time>
      </trkpt>
      <trkpt lat="46.76336" lon="1.20621">
        <ele>92.42</ele>
        <time>2011-01-23T15:37:42Z</time>
      </trkpt>
      <trkpt lat="46.76336" lon="1.20621">
        <ele>91.46</ele>
        <time>2011-01-23T15:37:44Z</time>
      </trkpt>
      <trkpt lat="46.76336" lon="1.20621">
        <ele>90.98</ele>
        <time>2011-01-23T15:38:03Z</time>
      </trkpt>
      <trkpt lat="46.76336" lon="1.20621">
        <ele>91.94</ele>
        <time>2011-01-23T15:38:14Z</time>
      </trkpt>
      <trkpt lat="46.76333" lon="1.20623">
        <ele>87.14</ele>
        <time>2011-01-23T15:38:17Z</time>
      </trkpt>
      <trkpt lat="46.76332" lon="1.20623">
        <ele>90.98</ele>
        <time>2011-01-23T15:38:18Z</time>
      </trkpt>
      <trkpt lat="46.7633" lon="1.20624">
        <ele>79.45</ele>
        <time>2011-01-23T15:38:20Z</time>
      </trkpt>
      <trkpt lat="46.76329" lon="1.20624">
        <ele>93.87</ele>
        <time>2011-01-23T15:38:21Z</time>
      </trkpt>
      <trkpt lat="46.76329" lon="1.20625">
        <ele>90.5</ele>
        <time>2011-01-23T15:38:22Z</time>
      </trkpt>
      <trkpt lat="46.7632" lon="1.20627">
        <ele>90.98</ele>
        <time>2011-01-23T15:38:34Z</time>
      </trkpt>
      <trkpt lat="46.7631" lon="1.20627">
        <ele>90.98</ele>
        <time>2011-01-23T15:38:46Z</time>
      </trkpt>
      <trkpt lat="46.76303" lon="1.20628">
        <ele>90.02</ele>
        <time>2011-01-23T15:38:56Z</time>
      </trkpt>
      <trkpt lat="46.76292" lon="1.2063">
        <ele>90.5</ele>
        <time>2011-01-23T15:39:06Z</time>
      </trkpt>
      <trkpt lat="46.76281" lon="1.20631">
        <ele>90.5</ele>
        <time>2011-01-23T15:39:16Z</time>
      </trkpt>
      <trkpt lat="46.7627" lon="1.20637">
        <ele>90.5</ele>
        <time>2011-01-23T15:39:27Z</time>
      </trkpt>
      <trkpt lat="46.76267" lon="1.20642">
        <ele>90.5</ele>
        <time>2011-01-23T15:39:32Z</time>
      </trkpt>
      <trkpt lat="46.76264" lon="1.20647">
        <ele>90.98</ele>
        <time>2011-01-23T15:39:36Z</time>
      </trkpt>
      <trkpt lat="46.7626" lon="1.2066">
        <ele>90.98</ele>
        <time>2011-01-23T15:39:46Z</time>
      </trkpt>
      <trkpt lat="46.76257" lon="1.20665">
        <ele>90.5</ele>
        <time>2011-01-23T15:39:53Z</time>
      </trkpt>
      <trkpt lat="46.76255" lon="1.20671">
        <ele>90.98</ele>
        <time>2011-01-23T15:39:58Z</time>
      </trkpt>
      <trkpt lat="46.76253" lon="1.20677">
        <ele>90.98</ele>
        <time>2011-01-23T15:40:08Z</time>
      </trkpt>
      <trkpt lat="46.76252" lon="1.20681">
        <ele>91.46</ele>
        <time>2011-01-23T15:40:19Z</time>
      </trkpt>
      <trkpt lat="46.76252" lon="1.20675">
        <ele>90.98</ele>
        <time>2011-01-23T15:40:28Z</time>
      </trkpt>
      <trkpt lat="46.76252" lon="1.20675">
        <ele>90.98</ele>
        <time>2011-01-23T15:40:42Z</time>
      </trkpt>
      <trkpt lat="46.76251" lon="1.20674">
        <ele>90.98</ele>
        <time>2011-01-23T15:40:52Z</time>
      </trkpt>
      <trkpt lat="46.76254" lon="1.2068">
        <ele>90.5</ele>
        <time>2011-01-23T15:41:02Z</time>
      </trkpt>
      <trkpt lat="46.76249" lon="1.2069">
        <ele>91.46</ele>
        <time>2011-01-23T15:41:10Z</time>
      </trkpt>
      <trkpt lat="46.76249" lon="1.20692">
        <ele>90.98</ele>
        <time>2011-01-23T15:41:17Z</time>
      </trkpt>
      <trkpt lat="46.76247" lon="1.20694">
        <ele>91.46</ele>
        <time>2011-01-23T15:41:31Z</time>
      </trkpt>
      <trkpt lat="46.76247" lon="1.20694">
        <ele>91.46</ele>
        <time>2011-01-23T15:41:33Z</time>
      </trkpt>
      <trkpt lat="46.76242" lon="1.20702">
        <ele>88.1</ele>
        <time>2011-01-23T15:41:41Z</time>
      </trkpt>
      <trkpt lat="46.76241" lon="1.20704">
        <ele>92.9</ele>
        <time>2011-01-23T15:41:42Z</time>
      </trkpt>
      <trkpt lat="46.76239" lon="1.20707">
        <ele>91.46</ele>
        <time>2011-01-23T15:41:46Z</time>
      </trkpt>
      <trkpt lat="46.76231" lon="1.20717">
        <ele>91.46</ele>
        <time>2011-01-23T15:41:56Z</time>
      </trkpt>
      <trkpt lat="46.76215" lon="1.20732">
        <ele>91.46</ele>
        <time>2011-01-23T15:42:13Z</time>
      </trkpt>
      <trkpt lat="46.76203" lon="1.20741">
        <ele>91.46</ele>
        <time>2011-01-23T15:42:26Z</time>
      </trkpt>
      <trkpt lat="46.76194" lon="1.20748">
        <ele>90.98</ele>
        <time>2011-01-23T15:42:36Z</time>
      </trkpt>
      <trkpt lat="46.76183" lon="1.20755">
        <ele>90.98</ele>
        <time>2011-01-23T15:42:46Z</time>
      </trkpt>
      <trkpt lat="46.76174" lon="1.20762">
        <ele>91.94</ele>
        <time>2011-01-23T15:42:56Z</time>
      </trkpt>
      <trkpt lat="46.76162" lon="1.2077">
        <ele>92.9</ele>
        <time>2011-01-23T15:43:08Z</time>
      </trkpt>
      <trkpt lat="46.76159" lon="1.2077">
        <ele>91.46</ele>
        <time>2011-01-23T15:43:11Z</time>
      </trkpt>
      <trkpt lat="46.76152" lon="1.20775">
        <ele>90.98</ele>
        <time>2011-01-23T15:43:24Z</time>
      </trkpt>
      <trkpt lat="46.7615" lon="1.20775">
        <ele>90.98</ele>
        <time>2011-01-23T15:43:46Z</time>
      </trkpt>
      <trkpt lat="46.76141" lon="1.20777">
        <ele>91.94</ele>
        <time>2011-01-23T15:44:01Z</time>
      </trkpt>
      <trkpt lat="46.76138" lon="1.20779">
        <ele>88.1</ele>
        <time>2011-01-23T15:44:04Z</time>
      </trkpt>
      <trkpt lat="46.76136" lon="1.20779">
        <ele>91.46</ele>
        <time>2011-01-23T15:44:05Z</time>
      </trkpt>
      <trkpt lat="46.76125" lon="1.20781">
        <ele>91.46</ele>
        <time>2011-01-23T15:44:13Z</time>
      </trkpt>
      <trkpt lat="46.76116" lon="1.20782">
        <ele>90.98</ele>
        <time>2011-01-23T15:44:25Z</time>
      </trkpt>
      <trkpt lat="46.76108" lon="1.20779">
        <ele>91.46</ele>
        <time>2011-01-23T15:44:36Z</time>
      </trkpt>
      <trkpt lat="46.76108" lon="1.20779">
        <ele>89.54</ele>
        <time>2011-01-23T15:44:47Z</time>
      </trkpt>
      <trkpt lat="46.76095" lon="1.20773">
        <ele>90.5</ele>
        <time>2011-01-23T15:45:00Z</time>
      </trkpt>
      <trkpt lat="46.76089" lon="1.20771">
        <ele>90.98</ele>
        <time>2011-01-23T15:45:08Z</time>
      </trkpt>
      <trkpt lat="46.76078" lon="1.2077">
        <ele>90.98</ele>
        <time>2011-01-23T15:45:19Z</time>
      </trkpt>
      <trkpt lat="46.76076" lon="1.20772">
        <ele>92.42</ele>
        <time>2011-01-23T15:45:21Z</time>
      </trkpt>
      <trkpt lat="46.76069" lon="1.20776">
        <ele>90.98</ele>
        <time>2011-01-23T15:45:32Z</time>
      </trkpt>
      <trkpt lat="46.76066" lon="1.20779">
        <ele>90.98</ele>
        <time>2011-01-23T15:45:50Z</time>
      </trkpt>
      <trkpt lat="46.76053" lon="1.20786">
        <ele>90.98</ele>
        <time>2011-01-23T15:46:01Z</time>
      </trkpt>
      <trkpt lat="46.76041" lon="1.2079">
        <ele>90.5</ele>
        <time>2011-01-23T15:46:11Z</time>
      </trkpt>
      <trkpt lat="46.76037" lon="1.20792">
        <ele>90.02</ele>
        <time>2011-01-23T15:46:21Z</time>
      </trkpt>
      <trkpt lat="46.76035" lon="1.20793">
        <ele>90.5</ele>
        <time>2011-01-23T15:46:32Z</time>
      </trkpt>
      <trkpt lat="46.76025" lon="1.20788">
        <ele>91.46</ele>
        <time>2011-01-23T15:46:43Z</time>
      </trkpt>
      <trkpt lat="46.76017" lon="1.20784">
        <ele>90.98</ele>
        <time>2011-01-23T15:46:54Z</time>
      </trkpt>
      <trkpt lat="46.76006" lon="1.20775">
        <ele>90.5</ele>
        <time>2011-01-23T15:47:06Z</time>
      </trkpt>
      <trkpt lat="46.75991" lon="1.20767">
        <ele>90.5</ele>
        <time>2011-01-23T15:47:20Z</time>
      </trkpt>
      <trkpt lat="46.75976" lon="1.20758">
        <ele>90.5</ele>
        <time>2011-01-23T15:47:35Z</time>
      </trkpt>
      <trkpt lat="46.75973" lon="1.20757">
        <ele>87.14</ele>
        <time>2011-01-23T15:47:38Z</time>
      </trkpt>
      <trkpt lat="46.75972" lon="1.20757">
        <ele>90.98</ele>
        <time>2011-01-23T15:47:39Z</time>
      </trkpt>
      <trkpt lat="46.75958" lon="1.20753">
        <ele>90.5</ele>
        <time>2011-01-23T15:47:51Z</time>
      </trkpt>
      <trkpt lat="46.75953" lon="1.20753">
        <ele>91.46</ele>
        <time>2011-01-23T15:47:56Z</time>
      </trkpt>
      <trkpt lat="46.75947" lon="1.20757">
        <ele>90.02</ele>
        <time>2011-01-23T15:48:03Z</time>
      </trkpt>
      <trkpt lat="46.7594" lon="1.20765">
        <ele>90.5</ele>
        <time>2011-01-23T15:48:13Z</time>
      </trkpt>
      <trkpt lat="46.75938" lon="1.20769">
        <ele>90.5</ele>
        <time>2011-01-23T15:48:24Z</time>
      </trkpt>
      <trkpt lat="46.75935" lon="1.20776">
        <ele>90.02</ele>
        <time>2011-01-23T15:48:34Z</time>
      </trkpt>
      <trkpt lat="46.75934" lon="1.20778">
        <ele>90.02</ele>
        <time>2011-01-23T15:48:35Z</time>
      </trkpt>
      <trkpt lat="46.75927" lon="1.20786">
        <ele>90.02</ele>
        <time>2011-01-23T15:48:44Z</time>
      </trkpt>
      <trkpt lat="46.75916" lon="1.20796">
        <ele>90.02</ele>
        <time>2011-01-23T15:48:55Z</time>
      </trkpt>
      <trkpt lat="46.75907" lon="1.20803">
        <ele>90.5</ele>
        <time>2011-01-23T15:49:05Z</time>
      </trkpt>
      <trkpt lat="46.75898" lon="1.20811">
        <ele>90.02</ele>
        <time>2011-01-23T15:49:19Z</time>
      </trkpt>
      <trkpt lat="46.75888" lon="1.20824">
        <ele>90.5</ele>
        <time>2011-01-23T15:49:30Z</time>
      </trkpt>
      <trkpt lat="46.75887" lon="1.20826">
        <ele>90.5</ele>
        <time>2011-01-23T15:49:32Z</time>
      </trkpt>
      <trkpt lat="46.75875" lon="1.20835">
        <ele>91.46</ele>
        <time>2011-01-23T15:49:43Z</time>
      </trkpt>
      <trkpt lat="46.75866" lon="1.20845">
        <ele>91.46</ele>
        <time>2011-01-23T15:49:54Z</time>
      </trkpt>
      <trkpt lat="46.75864" lon="1.20847">
        <ele>90.5</ele>
        <time>2011-01-23T15:49:56Z</time>
      </trkpt>
      <trkpt lat="46.75859" lon="1.2085">
        <ele>90.98</ele>
        <time>2011-01-23T15:50:01Z</time>
      </trkpt>
      <trkpt lat="46.75854" lon="1.20854">
        <ele>91.46</ele>
        <time>2011-01-23T15:50:12Z</time>
      </trkpt>
      <trkpt lat="46.75845" lon="1.20863">
        <ele>90.5</ele>
        <time>2011-01-23T15:50:22Z</time>
      </trkpt>
      <trkpt lat="46.75836" lon="1.20874">
        <ele>90.5</ele>
        <time>2011-01-23T15:50:33Z</time>
      </trkpt>
      <trkpt lat="46.75827" lon="1.20885">
        <ele>90.5</ele>
        <time>2011-01-23T15:50:43Z</time>
      </trkpt>
      <trkpt lat="46.75821" lon="1.20889">
        <ele>90.5</ele>
        <time>2011-01-23T15:50:54Z</time>
      </trkpt>
      <trkpt lat="46.75814" lon="1.20896">
        <ele>89.06</ele>
        <time>2011-01-23T15:51:08Z</time>
      </trkpt>
      <trkpt lat="46.75813" lon="1.20897">
        <ele>90.5</ele>
        <time>2011-01-23T15:51:09Z</time>
      </trkpt>
      <trkpt lat="46.758" lon="1.20909">
        <ele>90.5</ele>
        <time>2011-01-23T15:51:21Z</time>
      </trkpt>
      <trkpt lat="46.75796" lon="1.20912">
        <ele>90.98</ele>
        <time>2011-01-23T15:51:25Z</time>
      </trkpt>
      <trkpt lat="46.75788" lon="1.20921">
        <ele>90.5</ele>
        <time>2011-01-23T15:51:36Z</time>
      </trkpt>
      <trkpt lat="46.75781" lon="1.20929">
        <ele>90.98</ele>
        <time>2011-01-23T15:51:47Z</time>
      </trkpt>
      <trkpt lat="46.75769" lon="1.20941">
        <ele>90.02</ele>
        <time>2011-01-23T15:51:59Z</time>
      </trkpt>
      <trkpt lat="46.75767" lon="1.20943">
        <ele>90.98</ele>
        <time>2011-01-23T15:52:02Z</time>
      </trkpt>
      <trkpt lat="46.75762" lon="1.20944">
        <ele>92.42</ele>
        <time>2011-01-23T15:52:16Z</time>
      </trkpt>
      <trkpt lat="46.75762" lon="1.20944">
        <ele>92.42</ele>
        <time>2011-01-23T15:52:29Z</time>
      </trkpt>
      <trkpt lat="46.75762" lon="1.20946">
        <ele>92.42</ele>
        <time>2011-01-23T15:52:47Z</time>
      </trkpt>
      <trkpt lat="46.75762" lon="1.2095">
        <ele>91.94</ele>
        <time>2011-01-23T15:52:50Z</time>
      </trkpt>
      <trkpt lat="46.75761" lon="1.20972">
        <ele>91.94</ele>
        <time>2011-01-23T15:53:01Z</time>
      </trkpt>
      <trkpt lat="46.75757" lon="1.20978">
        <ele>91.94</ele>
        <time>2011-01-23T15:53:05Z</time>
      </trkpt>
      <trkpt lat="46.75742" lon="1.20981">
        <ele>90.5</ele>
        <time>2011-01-23T15:53:18Z</time>
      </trkpt>
      <trkpt lat="46.75741" lon="1.20981">
        <ele>93.87</ele>
        <time>2011-01-23T15:53:19Z</time>
      </trkpt>
      <trkpt lat="46.7574" lon="1.20983">
        <ele>91.46</ele>
        <time>2011-01-23T15:53:21Z</time>
      </trkpt>
      <trkpt lat="46.75736" lon="1.20986">
        <ele>91.94</ele>
        <time>2011-01-23T15:53:32Z</time>
      </trkpt>
      <trkpt lat="46.75736" lon="1.20987">
        <ele>91.46</ele>
        <time>2011-01-23T15:53:37Z</time>
      </trkpt>
      <trkpt lat="46.75731" lon="1.20983">
        <ele>91.94</ele>
        <time>2011-01-23T15:53:48Z</time>
      </trkpt>
      <trkpt lat="46.75731" lon="1.20983">
        <ele>91.94</ele>
        <time>2011-01-23T15:53:53Z</time>
      </trkpt>
      <trkpt lat="46.7572" lon="1.20981">
        <ele>90.98</ele>
        <time>2011-01-23T15:54:03Z</time>
      </trkpt>
      <trkpt lat="46.75716" lon="1.2098">
        <ele>90.02</ele>
        <time>2011-01-23T15:54:12Z</time>
      </trkpt>
      <trkpt lat="46.75706" lon="1.20979">
        <ele>88.58</ele>
        <time>2011-01-23T15:54:21Z</time>
      </trkpt>
      <trkpt lat="46.75699" lon="1.20973">
        <ele>89.06</ele>
        <time>2011-01-23T15:54:31Z</time>
      </trkpt>
      <trkpt lat="46.75695" lon="1.20971">
        <ele>89.06</ele>
        <time>2011-01-23T15:54:37Z</time>
      </trkpt>
      <trkpt lat="46.75686" lon="1.20966">
        <ele>88.58</ele>
        <time>2011-01-23T15:54:47Z</time>
      </trkpt>
      <trkpt lat="46.75678" lon="1.20959">
        <ele>88.58</ele>
        <time>2011-01-23T15:54:56Z</time>
      </trkpt>
      <trkpt lat="46.75673" lon="1.20956">
        <ele>89.06</ele>
        <time>2011-01-23T15:55:03Z</time>
      </trkpt>
      <trkpt lat="46.75668" lon="1.20954">
        <ele>87.62</ele>
        <time>2011-01-23T15:55:07Z</time>
      </trkpt>
      <trkpt lat="46.75666" lon="1.20953">
        <ele>89.06</ele>
        <time>2011-01-23T15:55:09Z</time>
      </trkpt>
      <trkpt lat="46.75655" lon="1.20944">
        <ele>89.54</ele>
        <time>2011-01-23T15:55:21Z</time>
      </trkpt>
      <trkpt lat="46.75646" lon="1.20938">
        <ele>88.58</ele>
        <time>2011-01-23T15:55:30Z</time>
      </trkpt>
      <trkpt lat="46.75636" lon="1.20932">
        <ele>89.06</ele>
        <time>2011-01-23T15:55:40Z</time>
      </trkpt>
      <trkpt lat="46.75628" lon="1.20927">
        <ele>89.06</ele>
        <time>2011-01-23T15:55:49Z</time>
      </trkpt>
      <trkpt lat="46.75617" lon="1.20922">
        <ele>89.06</ele>
        <time>2011-01-23T15:56:00Z</time>
      </trkpt>
      <trkpt lat="46.75606" lon="1.20916">
        <ele>89.06</ele>
        <time>2011-01-23T15:56:11Z</time>
      </trkpt>
      <trkpt lat="46.75603" lon="1.20914">
        <ele>88.58</ele>
        <time>2011-01-23T15:56:14Z</time>
      </trkpt>
      <trkpt lat="46.75594" lon="1.20909">
        <ele>89.06</ele>
        <time>2011-01-23T15:56:27Z</time>
      </trkpt>
      <trkpt lat="46.75594" lon="1.20909">
        <ele>89.06</ele>
        <time>2011-01-23T15:56:52Z</time>
      </trkpt>
      <trkpt lat="46.75594" lon="1.20909">
        <ele>84.73</ele>
        <time>2011-01-23T15:57:02Z</time>
      </trkpt>
      <trkpt lat="46.75594" lon="1.20909">
        <ele>89.54</ele>
        <time>2011-01-23T15:57:03Z</time>
      </trkpt>
      <trkpt lat="46.75587" lon="1.20906">
        <ele>88.58</ele>
        <time>2011-01-23T15:57:14Z</time>
      </trkpt>
      <trkpt lat="46.75576" lon="1.20901">
        <ele>89.06</ele>
        <time>2011-01-23T15:57:24Z</time>
      </trkpt>
      <trkpt lat="46.7556" lon="1.20895">
        <ele>88.58</ele>
        <time>2011-01-23T15:57:37Z</time>
      </trkpt>
      <trkpt lat="46.75551" lon="1.2089">
        <ele>88.58</ele>
        <time>2011-01-23T15:57:46Z</time>
      </trkpt>
      <trkpt lat="46.75537" lon="1.20883">
        <ele>89.06</ele>
        <time>2011-01-23T15:57:57Z</time>
      </trkpt>
      <trkpt lat="46.75521" lon="1.20875">
        <ele>90.5</ele>
        <time>2011-01-23T15:58:10Z</time>
      </trkpt>
      <trkpt lat="46.75518" lon="1.20874">
        <ele>88.58</ele>
        <time>2011-01-23T15:58:13Z</time>
      </trkpt>
      <trkpt lat="46.75507" lon="1.20871">
        <ele>89.06</ele>
        <time>2011-01-23T15:58:23Z</time>
      </trkpt>
      <trkpt lat="46.75497" lon="1.20867">
        <ele>89.06</ele>
        <time>2011-01-23T15:58:32Z</time>
      </trkpt>
      <trkpt lat="46.75486" lon="1.20861">
        <ele>88.1</ele>
        <time>2011-01-23T15:58:42Z</time>
      </trkpt>
      <trkpt lat="46.75471" lon="1.20855">
        <ele>89.06</ele>
        <time>2011-01-23T15:58:57Z</time>
      </trkpt>
      <trkpt lat="46.75457" lon="1.2085">
        <ele>89.54</ele>
        <time>2011-01-23T15:59:11Z</time>
      </trkpt>
      <trkpt lat="46.75448" lon="1.20846">
        <ele>89.06</ele>
        <time>2011-01-23T15:59:20Z</time>
      </trkpt>
      <trkpt lat="46.75443" lon="1.20844">
        <ele>87.14</ele>
        <time>2011-01-23T15:59:30Z</time>
      </trkpt>
      <trkpt lat="46.75443" lon="1.20844">
        <ele>90.5</ele>
        <time>2011-01-23T15:59:31Z</time>
      </trkpt>
      <trkpt lat="46.75442" lon="1.20844">
        <ele>90.02</ele>
        <time>2011-01-23T15:59:32Z</time>
      </trkpt>
      <trkpt lat="46.75429" lon="1.20838">
        <ele>89.54</ele>
        <time>2011-01-23T15:59:44Z</time>
      </trkpt>
      <trkpt lat="46.75417" lon="1.20835">
        <ele>89.06</ele>
        <time>2011-01-23T15:59:56Z</time>
      </trkpt>
      <trkpt lat="46.75409" lon="1.20834">
        <ele>89.06</ele>
        <time>2011-01-23T16:00:09Z</time>
      </trkpt>
      <trkpt lat="46.75401" lon="1.20832">
        <ele>92.42</ele>
        <time>2011-01-23T16:00:23Z</time>
      </trkpt>
      <trkpt lat="46.754" lon="1.20832">
        <ele>89.06</ele>
        <time>2011-01-23T16:00:24Z</time>
      </trkpt>
      <trkpt lat="46.75395" lon="1.20831">
        <ele>88.58</ele>
        <time>2011-01-23T16:00:33Z</time>
      </trkpt>
      <trkpt lat="46.75387" lon="1.20829">
        <ele>89.54</ele>
        <time>2011-01-23T16:00:39Z</time>
      </trkpt>
      <trkpt lat="46.75369" lon="1.20823">
        <ele>90.5</ele>
        <time>2011-01-23T16:00:53Z</time>
      </trkpt>
      <trkpt lat="46.75359" lon="1.20822">
        <ele>89.06</ele>
        <time>2011-01-23T16:01:04Z</time>
      </trkpt>
      <trkpt lat="46.75349" lon="1.20819">
        <ele>89.06</ele>
        <time>2011-01-23T16:01:13Z</time>
      </trkpt>
      <trkpt lat="46.75338" lon="1.20817">
        <ele>89.06</ele>
        <time>2011-01-23T16:01:23Z</time>
      </trkpt>
      <trkpt lat="46.75325" lon="1.20816">
        <ele>89.54</ele>
        <time>2011-01-23T16:01:34Z</time>
      </trkpt>
      <trkpt lat="46.7532" lon="1.20816">
        <ele>88.58</ele>
        <time>2011-01-23T16:01:38Z</time>
      </trkpt>
      <trkpt lat="46.75308" lon="1.20819">
        <ele>88.58</ele>
        <time>2011-01-23T16:01:50Z</time>
      </trkpt>
      <trkpt lat="46.75297" lon="1.20827">
        <ele>88.58</ele>
        <time>2011-01-23T16:02:03Z</time>
      </trkpt>
      <trkpt lat="46.75289" lon="1.20834">
        <ele>89.54</ele>
        <time>2011-01-23T16:02:11Z</time>
      </trkpt>
      <trkpt lat="46.75279" lon="1.2085">
        <ele>88.58</ele>
        <time>2011-01-23T16:02:25Z</time>
      </trkpt>
      <trkpt lat="46.7527" lon="1.20868">
        <ele>89.06</ele>
        <time>2011-01-23T16:02:39Z</time>
      </trkpt>
      <trkpt lat="46.75261" lon="1.20883">
        <ele>89.06</ele>
        <time>2011-01-23T16:02:52Z</time>
      </trkpt>
      <trkpt lat="46.75257" lon="1.20887">
        <ele>88.58</ele>
        <time>2011-01-23T16:03:06Z</time>
      </trkpt>
      <trkpt lat="46.75246" lon="1.209">
        <ele>88.58</ele>
        <time>2011-01-23T16:03:18Z</time>
      </trkpt>
      <trkpt lat="46.75237" lon="1.20911">
        <ele>88.58</ele>
        <time>2011-01-23T16:03:30Z</time>
      </trkpt>
      <trkpt lat="46.75234" lon="1.20913">
        <ele>88.1</ele>
        <time>2011-01-23T16:03:43Z</time>
      </trkpt>
      <trkpt lat="46.75227" lon="1.20921">
        <ele>88.58</ele>
        <time>2011-01-23T16:03:52Z</time>
      </trkpt>
      <trkpt lat="46.75213" lon="1.20936">
        <ele>88.58</ele>
        <time>2011-01-23T16:04:06Z</time>
      </trkpt>
      <trkpt lat="46.75203" lon="1.20952">
        <ele>88.58</ele>
        <time>2011-01-23T16:04:19Z</time>
      </trkpt>
      <trkpt lat="46.75194" lon="1.20964">
        <ele>88.58</ele>
        <time>2011-01-23T16:04:30Z</time>
      </trkpt>
      <trkpt lat="46.75182" lon="1.20975">
        <ele>89.06</ele>
        <time>2011-01-23T16:04:42Z</time>
      </trkpt>
      <trkpt lat="46.75165" lon="1.20987">
        <ele>89.06</ele>
        <time>2011-01-23T16:04:58Z</time>
      </trkpt>
      <trkpt lat="46.75152" lon="1.20996">
        <ele>88.58</ele>
        <time>2011-01-23T16:05:11Z</time>
      </trkpt>
      <trkpt lat="46.75139" lon="1.21005">
        <ele>88.58</ele>
        <time>2011-01-23T16:05:25Z</time>
      </trkpt>
      <trkpt lat="46.75126" lon="1.21015">
        <ele>88.58</ele>
        <time>2011-01-23T16:05:38Z</time>
      </trkpt>
      <trkpt lat="46.75116" lon="1.21023">
        <ele>89.06</ele>
        <time>2011-01-23T16:05:50Z</time>
      </trkpt>
      <trkpt lat="46.75113" lon="1.21025">
        <ele>85.69</ele>
        <time>2011-01-23T16:05:54Z</time>
      </trkpt>
      <trkpt lat="46.75112" lon="1.21026">
        <ele>90.02</ele>
        <time>2011-01-23T16:05:55Z</time>
      </trkpt>
      <trkpt lat="46.75098" lon="1.2104">
        <ele>89.54</ele>
        <time>2011-01-23T16:06:10Z</time>
      </trkpt>
      <trkpt lat="46.75084" lon="1.21051">
        <ele>90.02</ele>
        <time>2011-01-23T16:06:26Z</time>
      </trkpt>
      <trkpt lat="46.75073" lon="1.21055">
        <ele>90.5</ele>
        <time>2011-01-23T16:06:37Z</time>
      </trkpt>
      <trkpt lat="46.75073" lon="1.21055">
        <ele>86.66</ele>
        <time>2011-01-23T16:06:39Z</time>
      </trkpt>
      <trkpt lat="46.75073" lon="1.21055">
        <ele>88.58</ele>
        <time>2011-01-23T16:06:40Z</time>
      </trkpt>
      <trkpt lat="46.75073" lon="1.21055">
        <ele>89.54</ele>
        <time>2011-01-23T16:06:42Z</time>
      </trkpt>
      <trkpt lat="46.75064" lon="1.21061">
        <ele>90.5</ele>
        <time>2011-01-23T16:06:53Z</time>
      </trkpt>
      <trkpt lat="46.75051" lon="1.21068">
        <ele>90.5</ele>
        <time>2011-01-23T16:07:06Z</time>
      </trkpt>
      <trkpt lat="46.75037" lon="1.21076">
        <ele>90.5</ele>
        <time>2011-01-23T16:07:20Z</time>
      </trkpt>
      <trkpt lat="46.75036" lon="1.21076">
        <ele>86.66</ele>
        <time>2011-01-23T16:07:21Z</time>
      </trkpt>
      <trkpt lat="46.75035" lon="1.21077">
        <ele>88.58</ele>
        <time>2011-01-23T16:07:22Z</time>
      </trkpt>
      <trkpt lat="46.75033" lon="1.21078">
        <ele>90.02</ele>
        <time>2011-01-23T16:07:24Z</time>
      </trkpt>
      <trkpt lat="46.75024" lon="1.21084">
        <ele>90.5</ele>
        <time>2011-01-23T16:07:34Z</time>
      </trkpt>
      <trkpt lat="46.75013" lon="1.21089">
        <ele>89.54</ele>
        <time>2011-01-23T16:07:46Z</time>
      </trkpt>
      <trkpt lat="46.75013" lon="1.21089">
        <ele>90.02</ele>
        <time>2011-01-23T16:08:08Z</time>
      </trkpt>
      <trkpt lat="46.75011" lon="1.2109">
        <ele>89.06</ele>
        <time>2011-01-23T16:08:18Z</time>
      </trkpt>
      <trkpt lat="46.75004" lon="1.21091">
        <ele>90.02</ele>
        <time>2011-01-23T16:08:25Z</time>
      </trkpt>
      <trkpt lat="46.74994" lon="1.21097">
        <ele>90.02</ele>
        <time>2011-01-23T16:08:36Z</time>
      </trkpt>
      <trkpt lat="46.74988" lon="1.21099">
        <ele>90.02</ele>
        <time>2011-01-23T16:08:43Z</time>
      </trkpt>
      <trkpt lat="46.74981" lon="1.211">
        <ele>90.02</ele>
        <time>2011-01-23T16:08:54Z</time>
      </trkpt>
      <trkpt lat="46.7498" lon="1.211">
        <ele>89.54</ele>
        <time>2011-01-23T16:09:07Z</time>
      </trkpt>
      <trkpt lat="46.74978" lon="1.21101">
        <ele>89.54</ele>
        <time>2011-01-23T16:09:09Z</time>
      </trkpt>
      <trkpt lat="46.74973" lon="1.21102">
        <ele>90.5</ele>
        <time>2011-01-23T16:09:20Z</time>
      </trkpt>
      <trkpt lat="46.74973" lon="1.21102">
        <ele>90.02</ele>
        <time>2011-01-23T16:09:34Z</time>
      </trkpt>
      <trkpt lat="46.74973" lon="1.21102">
        <ele>90.02</ele>
        <time>2011-01-23T16:09:35Z</time>
      </trkpt>
      <trkpt lat="46.74963" lon="1.21104">
        <ele>90.02</ele>
        <time>2011-01-23T16:09:46Z</time>
      </trkpt>
      <trkpt lat="46.7496" lon="1.21103">
        <ele>90.02</ele>
        <time>2011-01-23T16:10:02Z</time>
      </trkpt>
      <trkpt lat="46.74955" lon="1.21106">
        <ele>87.62</ele>
        <time>2011-01-23T16:10:13Z</time>
      </trkpt>
      <trkpt lat="46.74955" lon="1.21106">
        <ele>91.46</ele>
        <time>2011-01-23T16:10:14Z</time>
      </trkpt>
      <trkpt lat="46.74945" lon="1.21108">
        <ele>90.02</ele>
        <time>2011-01-23T16:10:25Z</time>
      </trkpt>
      <trkpt lat="46.74933" lon="1.21109">
        <ele>90.02</ele>
        <time>2011-01-23T16:10:35Z</time>
      </trkpt>
      <trkpt lat="46.7492" lon="1.21113">
        <ele>89.06</ele>
        <time>2011-01-23T16:10:47Z</time>
      </trkpt>
      <trkpt lat="46.74917" lon="1.21113">
        <ele>89.06</ele>
        <time>2011-01-23T16:10:59Z</time>
      </trkpt>
      <trkpt lat="46.74914" lon="1.21112">
        <ele>89.54</ele>
        <time>2011-01-23T16:11:15Z</time>
      </trkpt>
      <trkpt lat="46.74917" lon="1.21111">
        <ele>88.58</ele>
        <time>2011-01-23T16:11:25Z</time>
      </trkpt>
      <trkpt lat="46.7491" lon="1.21114">
        <ele>89.06</ele>
        <time>2011-01-23T16:11:32Z</time>
      </trkpt>
      <trkpt lat="46.74904" lon="1.21117">
        <ele>88.58</ele>
        <time>2011-01-23T16:11:40Z</time>
      </trkpt>
      <trkpt lat="46.74903" lon="1.21117">
        <ele>89.54</ele>
        <time>2011-01-23T16:11:42Z</time>
      </trkpt>
      <trkpt lat="46.74897" lon="1.21122">
        <ele>89.54</ele>
        <time>2011-01-23T16:11:48Z</time>
      </trkpt>
      <trkpt lat="46.74894" lon="1.21122">
        <ele>89.54</ele>
        <time>2011-01-23T16:11:51Z</time>
      </trkpt>
      <trkpt lat="46.74878" lon="1.21132">
        <ele>90.5</ele>
        <time>2011-01-23T16:12:07Z</time>
      </trkpt>
      <trkpt lat="46.74868" lon="1.2114">
        <ele>89.54</ele>
        <time>2011-01-23T16:12:17Z</time>
      </trkpt>
      <trkpt lat="46.74866" lon="1.21141">
        <ele>90.02</ele>
        <time>2011-01-23T16:12:24Z</time>
      </trkpt>
      <trkpt lat="46.7486" lon="1.21147">
        <ele>90.02</ele>
        <time>2011-01-23T16:12:34Z</time>
      </trkpt>
      <trkpt lat="46.74855" lon="1.21151">
        <ele>90.02</ele>
        <time>2011-01-23T16:12:46Z</time>
      </trkpt>
      <trkpt lat="46.74847" lon="1.21159">
        <ele>90.02</ele>
        <time>2011-01-23T16:12:55Z</time>
      </trkpt>
      <trkpt lat="46.74843" lon="1.21163">
        <ele>90.5</ele>
        <time>2011-01-23T16:13:00Z</time>
      </trkpt>
      <trkpt lat="46.74836" lon="1.21169">
        <ele>90.02</ele>
        <time>2011-01-23T16:13:11Z</time>
      </trkpt>
      <trkpt lat="46.74836" lon="1.21171">
        <ele>90.5</ele>
        <time>2011-01-23T16:13:21Z</time>
      </trkpt>
      <trkpt lat="46.74837" lon="1.21175">
        <ele>88.58</ele>
        <time>2011-01-23T16:13:24Z</time>
      </trkpt>
      <trkpt lat="46.74843" lon="1.21187">
        <ele>89.06</ele>
        <time>2011-01-23T16:13:36Z</time>
      </trkpt>
      <trkpt lat="46.74846" lon="1.21192">
        <ele>90.02</ele>
        <time>2011-01-23T16:13:48Z</time>
      </trkpt>
      <trkpt lat="46.74849" lon="1.21197">
        <ele>89.54</ele>
        <time>2011-01-23T16:13:52Z</time>
      </trkpt>
      <trkpt lat="46.74854" lon="1.21205">
        <ele>89.54</ele>
        <time>2011-01-23T16:14:04Z</time>
      </trkpt>
      <trkpt lat="46.74863" lon="1.21218">
        <ele>90.02</ele>
        <time>2011-01-23T16:14:17Z</time>
      </trkpt>
      <trkpt lat="46.74871" lon="1.21231">
        <ele>89.54</ele>
        <time>2011-01-23T16:14:30Z</time>
      </trkpt>
      <trkpt lat="46.74877" lon="1.21243">
        <ele>89.54</ele>
        <time>2011-01-23T16:14:41Z</time>
      </trkpt>
      <trkpt lat="46.74879" lon="1.21247">
        <ele>90.5</ele>
        <time>2011-01-23T16:14:51Z</time>
      </trkpt>
      <trkpt lat="46.74879" lon="1.21248">
        <ele>89.54</ele>
        <time>2011-01-23T16:15:16Z</time>
      </trkpt>
      <trkpt lat="46.74879" lon="1.21248">
        <ele>88.1</ele>
        <time>2011-01-23T16:15:35Z</time>
      </trkpt>
      <trkpt lat="46.74881" lon="1.21247">
        <ele>89.54</ele>
        <time>2011-01-23T16:15:47Z</time>
      </trkpt>
      <trkpt lat="46.74881" lon="1.21247">
        <ele>90.02</ele>
        <time>2011-01-23T16:16:08Z</time>
      </trkpt>
      <trkpt lat="46.74879" lon="1.21248">
        <ele>90.5</ele>
        <time>2011-01-23T16:16:19Z</time>
      </trkpt>
      <trkpt lat="46.74879" lon="1.21249">
        <ele>86.66</ele>
        <time>2011-01-23T16:16:41Z</time>
      </trkpt>
      <trkpt lat="46.74878" lon="1.2125">
        <ele>90.98</ele>
        <time>2011-01-23T16:16:43Z</time>
      </trkpt>
      <trkpt lat="46.74878" lon="1.2125">
        <ele>89.06</ele>
        <time>2011-01-23T16:16:48Z</time>
      </trkpt>
      <trkpt lat="46.74876" lon="1.21251">
        <ele>90.5</ele>
        <time>2011-01-23T16:16:51Z</time>
      </trkpt>
      <trkpt lat="46.74871" lon="1.21257">
        <ele>89.06</ele>
        <time>2011-01-23T16:17:03Z</time>
      </trkpt>
      <trkpt lat="46.74866" lon="1.21269">
        <ele>86.66</ele>
        <time>2011-01-23T16:17:14Z</time>
      </trkpt>
      <trkpt lat="46.74865" lon="1.21269">
        <ele>92.42</ele>
        <time>2011-01-23T16:17:15Z</time>
      </trkpt>
      <trkpt lat="46.74863" lon="1.2127">
        <ele>89.06</ele>
        <time>2011-01-23T16:17:16Z</time>
      </trkpt>
      <trkpt lat="46.7486" lon="1.21268">
        <ele>88.58</ele>
        <time>2011-01-23T16:17:18Z</time>
      </trkpt>
      <trkpt lat="46.74855" lon="1.21264">
        <ele>88.1</ele>
        <time>2011-01-23T16:17:25Z</time>
      </trkpt>
      <trkpt lat="46.74844" lon="1.21256">
        <ele>88.58</ele>
        <time>2011-01-23T16:17:36Z</time>
      </trkpt>
      <trkpt lat="46.74838" lon="1.21251">
        <ele>88.1</ele>
        <time>2011-01-23T16:17:42Z</time>
      </trkpt>
      <trkpt lat="46.74829" lon="1.21237">
        <ele>88.58</ele>
        <time>2011-01-23T16:17:54Z</time>
      </trkpt>
      <trkpt lat="46.74817" lon="1.21218">
        <ele>89.06</ele>
        <time>2011-01-23T16:18:10Z</time>
      </trkpt>
      <trkpt lat="46.74815" lon="1.21217">
        <ele>90.02</ele>
        <time>2011-01-23T16:18:12Z</time>
      </trkpt>
      <trkpt lat="46.74809" lon="1.21202">
        <ele>89.54</ele>
        <time>2011-01-23T16:18:24Z</time>
      </trkpt>
      <trkpt lat="46.74807" lon="1.21209">
        <ele>89.06</ele>
        <time>2011-01-23T16:18:33Z</time>
      </trkpt>
      <trkpt lat="46.74807" lon="1.21213">
        <ele>90.5</ele>
        <time>2011-01-23T16:18:41Z</time>
      </trkpt>
      <trkpt lat="46.74807" lon="1.21219">
        <ele>89.54</ele>
        <time>2011-01-23T16:18:46Z</time>
      </trkpt>
      <trkpt lat="46.74806" lon="1.21227">
        <ele>91.46</ele>
        <time>2011-01-23T16:18:54Z</time>
      </trkpt>
      <trkpt lat="46.74805" lon="1.21227">
        <ele>90.5</ele>
        <time>2011-01-23T16:18:55Z</time>
      </trkpt>
      <trkpt lat="46.74793" lon="1.21227">
        <ele>90.98</ele>
        <time>2011-01-23T16:19:04Z</time>
      </trkpt>
      <trkpt lat="46.74786" lon="1.21226">
        <ele>90.5</ele>
        <time>2011-01-23T16:19:14Z</time>
      </trkpt>
      <trkpt lat="46.7478" lon="1.21229">
        <ele>90.5</ele>
        <time>2011-01-23T16:19:24Z</time>
      </trkpt>
      <trkpt lat="46.74774" lon="1.21233">
        <ele>89.54</ele>
        <time>2011-01-23T16:19:33Z</time>
      </trkpt>
      <trkpt lat="46.74772" lon="1.21235">
        <ele>91.94</ele>
        <time>2011-01-23T16:19:36Z</time>
      </trkpt>
      <trkpt lat="46.7477" lon="1.21238">
        <ele>90.98</ele>
        <time>2011-01-23T16:19:38Z</time>
      </trkpt>
      <trkpt lat="46.74765" lon="1.21246">
        <ele>91.46</ele>
        <time>2011-01-23T16:19:46Z</time>
      </trkpt>
      <trkpt lat="46.74764" lon="1.21246">
        <ele>90.98</ele>
        <time>2011-01-23T16:19:47Z</time>
      </trkpt>
      <trkpt lat="46.74756" lon="1.21257">
        <ele>90.98</ele>
        <time>2011-01-23T16:19:57Z</time>
      </trkpt>
      <trkpt lat="46.74751" lon="1.21267">
        <ele>90.98</ele>
        <time>2011-01-23T16:20:06Z</time>
      </trkpt>
      <trkpt lat="46.74742" lon="1.21276">
        <ele>91.94</ele>
        <time>2011-01-23T16:20:17Z</time>
      </trkpt>
      <trkpt lat="46.74735" lon="1.2129">
        <ele>91.46</ele>
        <time>2011-01-23T16:20:31Z</time>
      </trkpt>
      <trkpt lat="46.74735" lon="1.21291">
        <ele>90.02</ele>
        <time>2011-01-23T16:20:44Z</time>
      </trkpt>
      <trkpt lat="46.74733" lon="1.21295">
        <ele>90.98</ele>
        <time>2011-01-23T16:20:48Z</time>
      </trkpt>
      <trkpt lat="46.74728" lon="1.21303">
        <ele>90.5</ele>
        <time>2011-01-23T16:20:58Z</time>
      </trkpt>
      <trkpt lat="46.7472" lon="1.21316">
        <ele>90.5</ele>
        <time>2011-01-23T16:21:08Z</time>
      </trkpt>
      <trkpt lat="46.74714" lon="1.21326">
        <ele>90.5</ele>
        <time>2011-01-23T16:21:17Z</time>
      </trkpt>
      <trkpt lat="46.74708" lon="1.21337">
        <ele>90.5</ele>
        <time>2011-01-23T16:21:27Z</time>
      </trkpt>
      <trkpt lat="46.74703" lon="1.21346">
        <ele>90.5</ele>
        <time>2011-01-23T16:21:36Z</time>
      </trkpt>
      <trkpt lat="46.74696" lon="1.21358">
        <ele>90.02</ele>
        <time>2011-01-23T16:21:45Z</time>
      </trkpt>
      <trkpt lat="46.74695" lon="1.21359">
        <ele>90.98</ele>
        <time>2011-01-23T16:21:46Z</time>
      </trkpt>
      <trkpt lat="46.74691" lon="1.21365">
        <ele>90.5</ele>
        <time>2011-01-23T16:21:56Z</time>
      </trkpt>
      <trkpt lat="46.74687" lon="1.21373">
        <ele>90.02</ele>
        <time>2011-01-23T16:22:05Z</time>
      </trkpt>
      <trkpt lat="46.7468" lon="1.21386">
        <ele>90.5</ele>
        <time>2011-01-23T16:22:14Z</time>
      </trkpt>
      <trkpt lat="46.74678" lon="1.21387">
        <ele>90.5</ele>
        <time>2011-01-23T16:22:21Z</time>
      </trkpt>
      <trkpt lat="46.74676" lon="1.21392">
        <ele>90.5</ele>
        <time>2011-01-23T16:22:25Z</time>
      </trkpt>
      <trkpt lat="46.74669" lon="1.21406">
        <ele>90.5</ele>
        <time>2011-01-23T16:22:36Z</time>
      </trkpt>
      <trkpt lat="46.74663" lon="1.21419">
        <ele>90.5</ele>
        <time>2011-01-23T16:22:46Z</time>
      </trkpt>
      <trkpt lat="46.74659" lon="1.21426">
        <ele>94.35</ele>
        <time>2011-01-23T16:22:52Z</time>
      </trkpt>
      <trkpt lat="46.74657" lon="1.21427">
        <ele>90.98</ele>
        <time>2011-01-23T16:22:53Z</time>
      </trkpt>
      <trkpt lat="46.74646" lon="1.21431">
        <ele>90.5</ele>
        <time>2011-01-23T16:23:05Z</time>
      </trkpt>
      <trkpt lat="46.74634" lon="1.21434">
        <ele>90.02</ele>
        <time>2011-01-23T16:23:15Z</time>
      </trkpt>
      <trkpt lat="46.7463" lon="1.21436">
        <ele>90.98</ele>
        <time>2011-01-23T16:23:18Z</time>
      </trkpt>
      <trkpt lat="46.74621" lon="1.2144">
        <ele>91.46</ele>
        <time>2011-01-23T16:23:28Z</time>
      </trkpt>
      <trkpt lat="46.74612" lon="1.21444">
        <ele>90.5</ele>
        <time>2011-01-23T16:23:37Z</time>
      </trkpt>
      <trkpt lat="46.74604" lon="1.21448">
        <ele>91.46</ele>
        <time>2011-01-23T16:23:47Z</time>
      </trkpt>
      <trkpt lat="46.74595" lon="1.21455">
        <ele>90.02</ele>
        <time>2011-01-23T16:23:57Z</time>
      </trkpt>
      <trkpt lat="46.74587" lon="1.21464">
        <ele>90.98</ele>
        <time>2011-01-23T16:24:06Z</time>
      </trkpt>
      <trkpt lat="46.74582" lon="1.21478">
        <ele>90.98</ele>
        <time>2011-01-23T16:24:17Z</time>
      </trkpt>
      <trkpt lat="46.74576" lon="1.21492">
        <ele>90.02</ele>
        <time>2011-01-23T16:24:27Z</time>
      </trkpt>
      <trkpt lat="46.74572" lon="1.21502">
        <ele>90.5</ele>
        <time>2011-01-23T16:24:34Z</time>
      </trkpt>
      <trkpt lat="46.74569" lon="1.21509">
        <ele>90.02</ele>
        <time>2011-01-23T16:24:40Z</time>
      </trkpt>
      <trkpt lat="46.74564" lon="1.2152">
        <ele>90.5</ele>
        <time>2011-01-23T16:24:50Z</time>
      </trkpt>
      <trkpt lat="46.74563" lon="1.21523">
        <ele>90.02</ele>
        <time>2011-01-23T16:25:04Z</time>
      </trkpt>
      <trkpt lat="46.74562" lon="1.21526">
        <ele>90.5</ele>
        <time>2011-01-23T16:25:06Z</time>
      </trkpt>
      <trkpt lat="46.74556" lon="1.21545">
        <ele>90.5</ele>
        <time>2011-01-23T16:25:18Z</time>
      </trkpt>
      <trkpt lat="46.74552" lon="1.21561">
        <ele>90.5</ele>
        <time>2011-01-23T16:25:29Z</time>
      </trkpt>
      <trkpt lat="46.74549" lon="1.21569">
        <ele>90.5</ele>
        <time>2011-01-23T16:25:41Z</time>
      </trkpt>
      <trkpt lat="46.74546" lon="1.21579">
        <ele>90.5</ele>
        <time>2011-01-23T16:25:51Z</time>
      </trkpt>
      <trkpt lat="46.74545" lon="1.21595">
        <ele>90.02</ele>
        <time>2011-01-23T16:26:01Z</time>
      </trkpt>
      <trkpt lat="46.74541" lon="1.21612">
        <ele>90.02</ele>
        <time>2011-01-23T16:26:12Z</time>
      </trkpt>
      <trkpt lat="46.74536" lon="1.2163">
        <ele>90.5</ele>
        <time>2011-01-23T16:26:24Z</time>
      </trkpt>
      <trkpt lat="46.74532" lon="1.21638">
        <ele>90.98</ele>
        <time>2011-01-23T16:26:30Z</time>
      </trkpt>
      <trkpt lat="46.74529" lon="1.2164">
        <ele>90.5</ele>
        <time>2011-01-23T16:26:33Z</time>
      </trkpt>
      <trkpt lat="46.74519" lon="1.21651">
        <ele>90.98</ele>
        <time>2011-01-23T16:26:44Z</time>
      </trkpt>
      <trkpt lat="46.74507" lon="1.21659">
        <ele>90.02</ele>
        <time>2011-01-23T16:26:55Z</time>
      </trkpt>
      <trkpt lat="46.74495" lon="1.21664">
        <ele>90.98</ele>
        <time>2011-01-23T16:27:07Z</time>
      </trkpt>
      <trkpt lat="46.74483" lon="1.2167">
        <ele>90.5</ele>
        <time>2011-01-23T16:27:17Z</time>
      </trkpt>
      <trkpt lat="46.74477" lon="1.21673">
        <ele>90.98</ele>
        <time>2011-01-23T16:27:22Z</time>
      </trkpt>
      <trkpt lat="46.74465" lon="1.21679">
        <ele>90.98</ele>
        <time>2011-01-23T16:27:34Z</time>
      </trkpt>
      <trkpt lat="46.74462" lon="1.21682">
        <ele>91.46</ele>
        <time>2011-01-23T16:27:37Z</time>
      </trkpt>
      <trkpt lat="46.74452" lon="1.21695">
        <ele>90.5</ele>
        <time>2011-01-23T16:27:49Z</time>
      </trkpt>
      <trkpt lat="46.74444" lon="1.21705">
        <ele>90.98</ele>
        <time>2011-01-23T16:28:00Z</time>
      </trkpt>
      <trkpt lat="46.74435" lon="1.21719">
        <ele>90.98</ele>
        <time>2011-01-23T16:28:12Z</time>
      </trkpt>
      <trkpt lat="46.74425" lon="1.21731">
        <ele>91.46</ele>
        <time>2011-01-23T16:28:24Z</time>
      </trkpt>
      <trkpt lat="46.74415" lon="1.21747">
        <ele>91.46</ele>
        <time>2011-01-23T16:28:37Z</time>
      </trkpt>
      <trkpt lat="46.74411" lon="1.21757">
        <ele>90.98</ele>
        <time>2011-01-23T16:28:44Z</time>
      </trkpt>
      <trkpt lat="46.74407" lon="1.21779">
        <ele>91.46</ele>
        <time>2011-01-23T16:28:57Z</time>
      </trkpt>
      <trkpt lat="46.74403" lon="1.21801">
        <ele>92.42</ele>
        <time>2011-01-23T16:29:11Z</time>
      </trkpt>
      <trkpt lat="46.744" lon="1.21819">
        <ele>90.98</ele>
        <time>2011-01-23T16:29:24Z</time>
      </trkpt>
      <trkpt lat="46.74399" lon="1.21821">
        <ele>91.46</ele>
        <time>2011-01-23T16:29:35Z</time>
      </trkpt>
      <trkpt lat="46.74397" lon="1.21834">
        <ele>91.46</ele>
        <time>2011-01-23T16:29:46Z</time>
      </trkpt>
      <trkpt lat="46.74397" lon="1.21836">
        <ele>91.46</ele>
        <time>2011-01-23T16:29:57Z</time>
      </trkpt>
      <trkpt lat="46.74395" lon="1.21841">
        <ele>91.94</ele>
        <time>2011-01-23T16:30:07Z</time>
      </trkpt>
      <trkpt lat="46.74395" lon="1.21841">
        <ele>92.9</ele>
        <time>2011-01-23T16:30:19Z</time>
      </trkpt>
      <trkpt lat="46.74395" lon="1.21845">
        <ele>90.5</ele>
        <time>2011-01-23T16:30:29Z</time>
      </trkpt>
      <trkpt lat="46.74389" lon="1.21863">
        <ele>90.98</ele>
        <time>2011-01-23T16:30:40Z</time>
      </trkpt>
      <trkpt lat="46.74388" lon="1.21864">
        <ele>91.94</ele>
        <time>2011-01-23T16:30:41Z</time>
      </trkpt>
      <trkpt lat="46.74385" lon="1.21875">
        <ele>90.98</ele>
        <time>2011-01-23T16:30:48Z</time>
      </trkpt>
      <trkpt lat="46.7439" lon="1.21892">
        <ele>90.5</ele>
        <time>2011-01-23T16:31:01Z</time>
      </trkpt>
      <trkpt lat="46.74398" lon="1.21904">
        <ele>90.98</ele>
        <time>2011-01-23T16:31:11Z</time>
      </trkpt>
      <trkpt lat="46.74405" lon="1.21915">
        <ele>91.46</ele>
        <time>2011-01-23T16:31:21Z</time>
      </trkpt>
      <trkpt lat="46.74409" lon="1.21922">
        <ele>90.98</ele>
        <time>2011-01-23T16:31:27Z</time>
      </trkpt>
      <trkpt lat="46.74414" lon="1.21933">
        <ele>91.46</ele>
        <time>2011-01-23T16:31:38Z</time>
      </trkpt>
      <trkpt lat="46.74419" lon="1.21939">
        <ele>91.46</ele>
        <time>2011-01-23T16:31:52Z</time>
      </trkpt>
      <trkpt lat="46.74427" lon="1.21951">
        <ele>90.5</ele>
        <time>2011-01-23T16:32:02Z</time>
      </trkpt>
      <trkpt lat="46.74432" lon="1.21958">
        <ele>91.46</ele>
        <time>2011-01-23T16:32:09Z</time>
      </trkpt>
      <trkpt lat="46.74441" lon="1.21973">
        <ele>90.98</ele>
        <time>2011-01-23T16:32:19Z</time>
      </trkpt>
      <trkpt lat="46.74449" lon="1.21989">
        <ele>91.46</ele>
        <time>2011-01-23T16:32:29Z</time>
      </trkpt>
      <trkpt lat="46.74456" lon="1.22002">
        <ele>91.46</ele>
        <time>2011-01-23T16:32:40Z</time>
      </trkpt>
      <trkpt lat="46.74459" lon="1.22009">
        <ele>91.46</ele>
        <time>2011-01-23T16:32:50Z</time>
      </trkpt>
      <trkpt lat="46.74458" lon="1.22013">
        <ele>92.42</ele>
        <time>2011-01-23T16:32:59Z</time>
      </trkpt>
      <trkpt lat="46.74458" lon="1.22013">
        <ele>89.06</ele>
        <time>2011-01-23T16:33:03Z</time>
      </trkpt>
      <trkpt lat="46.74458" lon="1.22013">
        <ele>92.42</ele>
        <time>2011-01-23T16:33:04Z</time>
      </trkpt>
      <trkpt lat="46.74458" lon="1.22013">
        <ele>91.46</ele>
        <time>2011-01-23T16:33:16Z</time>
      </trkpt>
      <trkpt lat="46.74458" lon="1.22013">
        <ele>89.54</ele>
        <time>2011-01-23T16:33:34Z</time>
      </trkpt>
      <trkpt lat="46.74458" lon="1.22013">
        <ele>92.9</ele>
        <time>2011-01-23T16:33:44Z</time>
      </trkpt>
      <trkpt lat="46.74458" lon="1.22013">
        <ele>89.54</ele>
        <time>2011-01-23T16:33:46Z</time>
      </trkpt>
      <trkpt lat="46.74458" lon="1.22014">
        <ele>90.5</ele>
        <time>2011-01-23T16:33:51Z</time>
      </trkpt>
      <trkpt lat="46.74449" lon="1.2203">
        <ele>91.46</ele>
        <time>2011-01-23T16:34:03Z</time>
      </trkpt>
      <trkpt lat="46.74448" lon="1.22032">
        <ele>90.98</ele>
        <time>2011-01-23T16:34:09Z</time>
      </trkpt>
      <trkpt lat="46.74438" lon="1.2205">
        <ele>90.5</ele>
        <time>2011-01-23T16:34:22Z</time>
      </trkpt>
      <trkpt lat="46.74435" lon="1.22057">
        <ele>92.9</ele>
        <time>2011-01-23T16:34:27Z</time>
      </trkpt>
      <trkpt lat="46.74431" lon="1.22065">
        <ele>92.42</ele>
        <time>2011-01-23T16:34:32Z</time>
      </trkpt>
      <trkpt lat="46.74423" lon="1.22078">
        <ele>94.35</ele>
        <time>2011-01-23T16:34:42Z</time>
      </trkpt>
      <trkpt lat="46.74421" lon="1.2208">
        <ele>92.42</ele>
        <time>2011-01-23T16:34:44Z</time>
      </trkpt>
      <trkpt lat="46.74408" lon="1.22087">
        <ele>92.9</ele>
        <time>2011-01-23T16:34:57Z</time>
      </trkpt>
      <trkpt lat="46.74406" lon="1.22087">
        <ele>92.42</ele>
        <time>2011-01-23T16:35:00Z</time>
      </trkpt>
      <trkpt lat="46.74398" lon="1.22085">
        <ele>91.46</ele>
        <time>2011-01-23T16:35:11Z</time>
      </trkpt>
      <trkpt lat="46.74398" lon="1.22084">
        <ele>101.56</ele>
        <time>2011-01-23T16:35:20Z</time>
      </trkpt>
      <trkpt lat="46.74398" lon="1.22084">
        <ele>91.94</ele>
        <time>2011-01-23T16:35:21Z</time>
      </trkpt>
      <trkpt lat="46.74398" lon="1.22082">
        <ele>92.9</ele>
        <time>2011-01-23T16:35:41Z</time>
      </trkpt>
      <trkpt lat="46.74398" lon="1.22083">
        <ele>90.5</ele>
        <time>2011-01-23T16:35:58Z</time>
      </trkpt>
      <trkpt lat="46.744" lon="1.22084">
        <ele>92.42</ele>
        <time>2011-01-23T16:36:04Z</time>
      </trkpt>
      <trkpt lat="46.74407" lon="1.2209">
        <ele>92.42</ele>
        <time>2011-01-23T16:36:12Z</time>
      </trkpt>
      <trkpt lat="46.74407" lon="1.22105">
        <ele>91.94</ele>
        <time>2011-01-23T16:36:22Z</time>
      </trkpt>
      <trkpt lat="46.74406" lon="1.22105">
        <ele>91.94</ele>
        <time>2011-01-23T16:36:32Z</time>
      </trkpt>
      <trkpt lat="46.74407" lon="1.22105">
        <ele>92.42</ele>
        <time>2011-01-23T16:36:46Z</time>
      </trkpt>
      <trkpt lat="46.74407" lon="1.22105">
        <ele>92.9</ele>
        <time>2011-01-23T16:36:59Z</time>
      </trkpt>
      <trkpt lat="46.74407" lon="1.22105">
        <ele>92.9</ele>
        <time>2011-01-23T16:37:25Z</time>
      </trkpt>
      <trkpt lat="46.74407" lon="1.22105">
        <ele>92.42</ele>
        <time>2011-01-23T16:37:48Z</time>
      </trkpt>
      <trkpt lat="46.74407" lon="1.22105">
        <ele>92.42</ele>
        <time>2011-01-23T16:38:14Z</time>
      </trkpt>
      <trkpt lat="46.74407" lon="1.22105">
        <ele>92.9</ele>
        <time>2011-01-23T16:38:43Z</time>
      </trkpt>
      <trkpt lat="46.74407" lon="1.22105">
        <ele>92.9</ele>
        <time>2011-01-23T16:39:06Z</time>
      </trkpt>
      <trkpt lat="46.74407" lon="1.22105">
        <ele>91.94</ele>
        <time>2011-01-23T16:39:20Z</time>
      </trkpt>
      <trkpt lat="46.74406" lon="1.22105">
        <ele>92.42</ele>
        <time>2011-01-23T16:39:30Z</time>
      </trkpt>
      <trkpt lat="46.74406" lon="1.22105">
        <ele>91.94</ele>
        <time>2011-01-23T16:39:54Z</time>
      </trkpt>
      <trkpt lat="46.74405" lon="1.22105">
        <ele>92.42</ele>
        <time>2011-01-23T16:40:21Z</time>
      </trkpt>
      <trkpt lat="46.74405" lon="1.22105">
        <ele>92.42</ele>
        <time>2011-01-23T16:40:40Z</time>
      </trkpt>
      <trkpt lat="46.74406" lon="1.22104">
        <ele>97.23</ele>
        <time>2011-01-23T16:40:47Z</time>
      </trkpt>
      <trkpt lat="46.74406" lon="1.22104">
        <ele>91.46</ele>
        <time>2011-01-23T16:40:48Z</time>
      </trkpt>
      <trkpt lat="46.74407" lon="1.22102">
        <ele>91.46</ele>
        <time>2011-01-23T16:40:57Z</time>
      </trkpt>
      <trkpt lat="46.74407" lon="1.22102">
        <ele>65.51</ele>
        <time>2011-01-23T16:41:03Z</time>
      </trkpt>
      <trkpt lat="46.74408" lon="1.22102">
        <ele>103.48</ele>
        <time>2011-01-23T16:41:04Z</time>
      </trkpt>
      <trkpt lat="46.74409" lon="1.22102">
        <ele>91.94</ele>
        <time>2011-01-23T16:41:05Z</time>
      </trkpt>
      <trkpt lat="46.74411" lon="1.22101">
        <ele>92.42</ele>
        <time>2011-01-23T16:41:17Z</time>
      </trkpt>
      <trkpt lat="46.74411" lon="1.22101">
        <ele>91.94</ele>
        <time>2011-01-23T16:41:42Z</time>
      </trkpt>
      <trkpt lat="46.7441" lon="1.22101">
        <ele>80.41</ele>
        <time>2011-01-23T16:41:48Z</time>
      </trkpt>
      <trkpt lat="46.7441" lon="1.22101">
        <ele>95.79</ele>
        <time>2011-01-23T16:41:49Z</time>
      </trkpt>
      <trkpt lat="46.7441" lon="1.22101">
        <ele>94.83</ele>
        <time>2011-01-23T16:41:50Z</time>
      </trkpt>
      <trkpt lat="46.7441" lon="1.22101">
        <ele>88.1</ele>
        <time>2011-01-23T16:41:54Z</time>
      </trkpt>
      <trkpt lat="46.7441" lon="1.22101">
        <ele>97.23</ele>
        <time>2011-01-23T16:41:55Z</time>
      </trkpt>
      <trkpt lat="46.7441" lon="1.22101">
        <ele>88.58</ele>
        <time>2011-01-23T16:41:56Z</time>
      </trkpt>
      <trkpt lat="46.7441" lon="1.22101">
        <ele>93.87</ele>
        <time>2011-01-23T16:41:57Z</time>
      </trkpt>
      <trkpt lat="46.7441" lon="1.22101">
        <ele>86.18</ele>
        <time>2011-01-23T16:42:02Z</time>
      </trkpt>
      <trkpt lat="46.7441" lon="1.22101">
        <ele>93.87</ele>
        <time>2011-01-23T16:42:03Z</time>
      </trkpt>
      <trkpt lat="46.7441" lon="1.22101">
        <ele>103.48</ele>
        <time>2011-01-23T16:42:04Z</time>
      </trkpt>
      <trkpt lat="46.7441" lon="1.22101">
        <ele>84.25</ele>
        <time>2011-01-23T16:42:05Z</time>
      </trkpt>
      <trkpt lat="46.7441" lon="1.22101">
        <ele>102.04</ele>
        <time>2011-01-23T16:42:06Z</time>
      </trkpt>
      <trkpt lat="46.7441" lon="1.22101">
        <ele>91.94</ele>
        <time>2011-01-23T16:42:07Z</time>
      </trkpt>
      <trkpt lat="46.74409" lon="1.22104">
        <ele>91.94</ele>
        <time>2011-01-23T16:42:21Z</time>
      </trkpt>
      <trkpt lat="46.74409" lon="1.22104">
        <ele>91.46</ele>
        <time>2011-01-23T16:42:45Z</time>
      </trkpt>
      <trkpt lat="46.74409" lon="1.22104">
        <ele>91.46</ele>
        <time>2011-01-23T16:43:11Z</time>
      </trkpt>
      <trkpt lat="46.74409" lon="1.22104">
        <ele>92.9</ele>
        <time>2011-01-23T16:43:40Z</time>
      </trkpt>
      <trkpt lat="46.74409" lon="1.22104">
        <ele>91.94</ele>
        <time>2011-01-23T16:43:42Z</time>
      </trkpt>
      <trkpt lat="46.74409" lon="1.22104">
        <ele>95.79</ele>
        <time>2011-01-23T16:44:08Z</time>
      </trkpt>
      <trkpt lat="46.74408" lon="1.22103">
        <ele>91.94</ele>
        <time>2011-01-23T16:44:11Z</time>
      </trkpt>
      <trkpt lat="46.74405" lon="1.22106">
        <ele>91.46</ele>
        <time>2011-01-23T16:44:26Z</time>
      </trkpt>
      <trkpt lat="46.74403" lon="1.2211">
        <ele>91.94</ele>
        <time>2011-01-23T16:44:37Z</time>
      </trkpt>
      <trkpt lat="46.74403" lon="1.2211">
        <ele>91.46</ele>
        <time>2011-01-23T16:44:38Z</time>
      </trkpt>
      <trkpt lat="46.74395" lon="1.22119">
        <ele>91.94</ele>
        <time>2011-01-23T16:44:47Z</time>
      </trkpt>
      <trkpt lat="46.74387" lon="1.2213">
        <ele>92.42</ele>
        <time>2011-01-23T16:44:56Z</time>
      </trkpt>
      <trkpt lat="46.74379" lon="1.22143">
        <ele>92.42</ele>
        <time>2011-01-23T16:45:07Z</time>
      </trkpt>
      <trkpt lat="46.74374" lon="1.22155">
        <ele>91.94</ele>
        <time>2011-01-23T16:45:16Z</time>
      </trkpt>
      <trkpt lat="46.74371" lon="1.22168">
        <ele>91.94</ele>
        <time>2011-01-23T16:45:24Z</time>
      </trkpt>
      <trkpt lat="46.74369" lon="1.22183">
        <ele>91.94</ele>
        <time>2011-01-23T16:45:34Z</time>
      </trkpt>
      <trkpt lat="46.74367" lon="1.22201">
        <ele>92.42</ele>
        <time>2011-01-23T16:45:45Z</time>
      </trkpt>
      <trkpt lat="46.74367" lon="1.22204">
        <ele>91.46</ele>
        <time>2011-01-23T16:45:50Z</time>
      </trkpt>
      <trkpt lat="46.74365" lon="1.22217">
        <ele>91.94</ele>
        <time>2011-01-23T16:46:00Z</time>
      </trkpt>
      <trkpt lat="46.74363" lon="1.22228">
        <ele>92.42</ele>
        <time>2011-01-23T16:46:10Z</time>
      </trkpt>
      <trkpt lat="46.74361" lon="1.22233">
        <ele>92.42</ele>
        <time>2011-01-23T16:46:14Z</time>
      </trkpt>
      <trkpt lat="46.74359" lon="1.22236">
        <ele>91.94</ele>
        <time>2011-01-23T16:46:16Z</time>
      </trkpt>
      <trkpt lat="46.74353" lon="1.22239">
        <ele>91.94</ele>
        <time>2011-01-23T16:46:27Z</time>
      </trkpt>
      <trkpt lat="46.74354" lon="1.22238">
        <ele>91.94</ele>
        <time>2011-01-23T16:46:28Z</time>
      </trkpt>
      <trkpt lat="46.74355" lon="1.22236">
        <ele>91.94</ele>
        <time>2011-01-23T16:46:48Z</time>
      </trkpt>
      <trkpt lat="46.74355" lon="1.22236">
        <ele>91.94</ele>
        <time>2011-01-23T16:47:08Z</time>
      </trkpt>
      <trkpt lat="46.74353" lon="1.22236">
        <ele>91.46</ele>
        <time>2011-01-23T16:47:11Z</time>
      </trkpt>
      <trkpt lat="46.74348" lon="1.22238">
        <ele>92.42</ele>
        <time>2011-01-23T16:47:15Z</time>
      </trkpt>
      <trkpt lat="46.7434" lon="1.22237">
        <ele>92.42</ele>
        <time>2011-01-23T16:47:22Z</time>
      </trkpt>
      <trkpt lat="46.7433" lon="1.2224">
        <ele>92.9</ele>
        <time>2011-01-23T16:47:33Z</time>
      </trkpt>
      <trkpt lat="46.74324" lon="1.22239">
        <ele>92.9</ele>
        <time>2011-01-23T16:47:39Z</time>
      </trkpt>
      <trkpt lat="46.74312" lon="1.22249">
        <ele>92.42</ele>
        <time>2011-01-23T16:47:52Z</time>
      </trkpt>
      <trkpt lat="46.74307" lon="1.22271">
        <ele>92.42</ele>
        <time>2011-01-23T16:48:07Z</time>
      </trkpt>
      <trkpt lat="46.74306" lon="1.22288">
        <ele>91.94</ele>
        <time>2011-01-23T16:48:19Z</time>
      </trkpt>
      <trkpt lat="46.74306" lon="1.2229">
        <ele>92.42</ele>
        <time>2011-01-23T16:48:20Z</time>
      </trkpt>
      <trkpt lat="46.74307" lon="1.22299">
        <ele>92.42</ele>
        <time>2011-01-23T16:48:26Z</time>
      </trkpt>
      <trkpt lat="46.74308" lon="1.22317">
        <ele>91.94</ele>
        <time>2011-01-23T16:48:37Z</time>
      </trkpt>
      <trkpt lat="46.7431" lon="1.22335">
        <ele>91.94</ele>
        <time>2011-01-23T16:48:47Z</time>
      </trkpt>
      <trkpt lat="46.74309" lon="1.22338">
        <ele>91.94</ele>
        <time>2011-01-23T16:48:49Z</time>
      </trkpt>
      <trkpt lat="46.74307" lon="1.22344">
        <ele>88.1</ele>
        <time>2011-01-23T16:48:52Z</time>
      </trkpt>
      <trkpt lat="46.74307" lon="1.22346">
        <ele>91.94</ele>
        <time>2011-01-23T16:48:53Z</time>
      </trkpt>
      <trkpt lat="46.743" lon="1.22358">
        <ele>91.94</ele>
        <time>2011-01-23T16:49:03Z</time>
      </trkpt>
      <trkpt lat="46.7429" lon="1.22367">
        <ele>92.42</ele>
        <time>2011-01-23T16:49:14Z</time>
      </trkpt>
      <trkpt lat="46.74277" lon="1.22371">
        <ele>92.42</ele>
        <time>2011-01-23T16:49:25Z</time>
      </trkpt>
      <trkpt lat="46.74272" lon="1.22372">
        <ele>93.87</ele>
        <time>2011-01-23T16:49:29Z</time>
      </trkpt>
      <trkpt lat="46.74268" lon="1.22375">
        <ele>91.94</ele>
        <time>2011-01-23T16:49:34Z</time>
      </trkpt>
      <trkpt lat="46.74265" lon="1.22379">
        <ele>90.98</ele>
        <time>2011-01-23T16:49:45Z</time>
      </trkpt>
      <trkpt lat="46.74265" lon="1.2238">
        <ele>97.23</ele>
        <time>2011-01-23T16:49:46Z</time>
      </trkpt>
      <trkpt lat="46.74265" lon="1.22381">
        <ele>94.35</ele>
        <time>2011-01-23T16:49:47Z</time>
      </trkpt>
      <trkpt lat="46.74264" lon="1.22383">
        <ele>93.39</ele>
        <time>2011-01-23T16:49:58Z</time>
      </trkpt>
      <trkpt lat="46.7426" lon="1.22386">
        <ele>93.87</ele>
        <time>2011-01-23T16:50:04Z</time>
      </trkpt>
      <trkpt lat="46.7426" lon="1.22386">
        <ele>93.39</ele>
        <time>2011-01-23T16:50:08Z</time>
      </trkpt>
      <trkpt lat="46.7426" lon="1.22385">
        <ele>93.39</ele>
        <time>2011-01-23T16:50:18Z</time>
      </trkpt>
      <trkpt lat="46.7426" lon="1.22385">
        <ele>92.9</ele>
        <time>2011-01-23T16:50:27Z</time>
      </trkpt>
      <trkpt lat="46.74255" lon="1.22384">
        <ele>90.02</ele>
        <time>2011-01-23T16:50:36Z</time>
      </trkpt>
      <trkpt lat="46.74255" lon="1.22384">
        <ele>95.31</ele>
        <time>2011-01-23T16:50:37Z</time>
      </trkpt>
      <trkpt lat="46.74255" lon="1.22384">
        <ele>93.39</ele>
        <time>2011-01-23T16:50:52Z</time>
      </trkpt>
      <trkpt lat="46.74255" lon="1.22384">
        <ele>93.39</ele>
        <time>2011-01-23T16:51:10Z</time>
      </trkpt>
      <trkpt lat="46.74253" lon="1.22384">
        <ele>92.9</ele>
        <time>2011-01-23T16:51:25Z</time>
      </trkpt>
      <trkpt lat="46.7424" lon="1.22382">
        <ele>94.35</ele>
        <time>2011-01-23T16:51:37Z</time>
      </trkpt>
      <trkpt lat="46.74237" lon="1.22381">
        <ele>92.9</ele>
        <time>2011-01-23T16:51:49Z</time>
      </trkpt>
      <trkpt lat="46.74237" lon="1.22381">
        <ele>96.27</ele>
        <time>2011-01-23T16:51:57Z</time>
      </trkpt>
      <trkpt lat="46.74237" lon="1.22381">
        <ele>92.9</ele>
        <time>2011-01-23T16:52:00Z</time>
      </trkpt>
      <trkpt lat="46.74234" lon="1.22381">
        <ele>93.87</ele>
        <time>2011-01-23T16:52:15Z</time>
      </trkpt>
      <trkpt lat="46.74229" lon="1.22382">
        <ele>92.9</ele>
        <time>2011-01-23T16:52:20Z</time>
      </trkpt>
      <trkpt lat="46.74223" lon="1.22381">
        <ele>96.27</ele>
        <time>2011-01-23T16:52:26Z</time>
      </trkpt>
      <trkpt lat="46.74222" lon="1.22381">
        <ele>92.9</ele>
        <time>2011-01-23T16:52:27Z</time>
      </trkpt>
      <trkpt lat="46.74218" lon="1.22381">
        <ele>92.9</ele>
        <time>2011-01-23T16:52:30Z</time>
      </trkpt>
      <trkpt lat="46.74206" lon="1.22378">
        <ele>92.9</ele>
        <time>2011-01-23T16:52:41Z</time>
      </trkpt>
      <trkpt lat="46.74194" lon="1.22376">
        <ele>93.87</ele>
        <time>2011-01-23T16:52:52Z</time>
      </trkpt>
      <trkpt lat="46.7418" lon="1.22376">
        <ele>94.35</ele>
        <time>2011-01-23T16:53:05Z</time>
      </trkpt>
      <trkpt lat="46.74171" lon="1.22377">
        <ele>86.18</ele>
        <time>2011-01-23T16:53:13Z</time>
      </trkpt>
      <trkpt lat="46.7417" lon="1.22377">
        <ele>95.31</ele>
        <time>2011-01-23T16:53:14Z</time>
      </trkpt>
      <trkpt lat="46.74154" lon="1.22382">
        <ele>94.35</ele>
        <time>2011-01-23T16:53:28Z</time>
      </trkpt>
      <trkpt lat="46.74141" lon="1.22391">
        <ele>93.87</ele>
        <time>2011-01-23T16:53:41Z</time>
      </trkpt>
      <trkpt lat="46.74128" lon="1.22401">
        <ele>93.39</ele>
        <time>2011-01-23T16:53:54Z</time>
      </trkpt>
      <trkpt lat="46.74116" lon="1.2241">
        <ele>92.9</ele>
        <time>2011-01-23T16:54:06Z</time>
      </trkpt>
      <trkpt lat="46.74102" lon="1.22421">
        <ele>93.39</ele>
        <time>2011-01-23T16:54:19Z</time>
      </trkpt>
      <trkpt lat="46.74093" lon="1.22425">
        <ele>93.87</ele>
        <time>2011-01-23T16:54:27Z</time>
      </trkpt>
      <trkpt lat="46.74083" lon="1.2242">
        <ele>93.39</ele>
        <time>2011-01-23T16:54:38Z</time>
      </trkpt>
      <trkpt lat="46.74083" lon="1.2242">
        <ele>93.87</ele>
        <time>2011-01-23T16:54:47Z</time>
      </trkpt>
      <trkpt lat="46.74083" lon="1.2242">
        <ele>93.39</ele>
        <time>2011-01-23T16:55:11Z</time>
      </trkpt>
      <trkpt lat="46.74083" lon="1.2242">
        <ele>89.54</ele>
        <time>2011-01-23T16:55:15Z</time>
      </trkpt>
      <trkpt lat="46.74083" lon="1.2242">
        <ele>91.94</ele>
        <time>2011-01-23T16:55:16Z</time>
      </trkpt>
      <trkpt lat="46.74083" lon="1.2242">
        <ele>96.75</ele>
        <time>2011-01-23T16:55:17Z</time>
      </trkpt>
      <trkpt lat="46.74083" lon="1.2242">
        <ele>91.94</ele>
        <time>2011-01-23T16:55:18Z</time>
      </trkpt>
      <trkpt lat="46.74083" lon="1.2242">
        <ele>99.15</ele>
        <time>2011-01-23T16:55:19Z</time>
      </trkpt>
      <trkpt lat="46.74083" lon="1.2242">
        <ele>93.87</ele>
        <time>2011-01-23T16:55:20Z</time>
      </trkpt>
      <trkpt lat="46.74083" lon="1.2242">
        <ele>93.87</ele>
        <time>2011-01-23T16:55:37Z</time>
      </trkpt>
      <trkpt lat="46.74083" lon="1.2242">
        <ele>90.5</ele>
        <time>2011-01-23T16:55:42Z</time>
      </trkpt>
      <trkpt lat="46.74083" lon="1.2242">
        <ele>93.87</ele>
        <time>2011-01-23T16:55:43Z</time>
      </trkpt>
    </trkseg>
  </trk>
</gpx>